[[{"header":{"parameterUnit":"m.s-1","parameterCategory":1,"la1":31.0,"la2":29.5877,"lo1":-88.7671,"lo2":-86.6584,"dy":0.0162,"dx":0.0185,"nx":115,"ny":88,"refTime":"2025-11-12T00:00:00:Z","depth":0,"parameterNumber":2,"parameterNumberName":"U-component_of_WINDS"},"data":[0.0,0.0,0.0,0.0,0.0,0.0,0.0,0.0,0.0,0.0,0.0,0.0,0.0,0.0,0.0,0.0,0.0,0.0,0.0,0.0,0.0,0.0,0.0,0.0,0.0,0.0,0.0,0.0,0.0,0.0,0.0,0.0,0.0,0.0,0.0,0.0,0.0,0.0,0.0,0.0,0.0,0.0,0.0,0.0,0.0,0.0,0.0,0.0,0.0,0.0,0.0,0.0,0.0,0.0,0.0,0.0,0.0,0.0,0.0,0.0,0.0,0.0,0.0,0.0,0.0,0.0,0.0,0.0,0.0,0.0,0.0,0.0,0.0,0.0,0.0,0.0,0.0,0.0,0.0,0.0,0.0,0.0,0.0,0.0,0.0,0.0,0.0,0.0,0.0,0.0,0.0,0.0,0.0,0.0,0.0,0.0,0.0,0.0,0.0,0.0,0.0,0.0,0.0,0.0,0.0,0.0,0.0,0.0,0.0,0.0,0.0,0.0,0.0,0.0,0.0,0.0,0.0,0.0,0.0,0.0,0.0,0.0,0.0,0.0,0.0,0.0,0.0,0.0,0.0,0.0,0.0,0.0,0.0,0.0,0.0,0.0,0.0,0.0,0.0,0.0,0.0,0.0,0.0,0.0,0.0,0.0,0.0,0.0,0.0,0.0,0.0,0.0,0.0,0.0,0.0,0.0,0.0,0.0,0.0,0.0,0.0,0.0,0.0,0.0,0.0,0.0,0.0,0.0,0.0,0.0,0.0,0.0,0.0,0.0,0.0,0.0,0.0,0.0,0.0,0.0,0.0,0.0,0.0,0.0,0.0,0.0,0.0,0.0,0.0,0.0,0.0,0.0,0.0,0.0,0.0,0.0,0.0,0.0,0.0,0.0,0.0,0.0,0.0,0.0,0.0,0.0,0.0,0.0,0.0,0.0,0.0,0.0,0.0,0.0,0.0,0.0,0.0,0.0,0.0,0.0,0.0,0.0,0.0,0.0,0.0,0.0,0.0,0.0,0.0,0.0,0.0,0.0,0.0,0.0,0.0,0.0,0.0,0.0,0.0,0.0,0.0,0.0,0.0,0.0,0.0,0.0,0.0,0.0,0.0,0.0,0.0,0.0,0.0,0.0,0.0,0.0,0.0,0.0,0.0,0.0,0.0,0.0,0.0,0.0,0.0,0.0,0.0,0.0,0.0,0.0,0.0,0.0,0.0,0.0,0.0,0.0,0.0,0.0,0.0,0.0,0.0,0.0,0.0,0.0,0.0,0.0,0.0,0.0,0.0,0.0,0.0,0.0,0.0,0.0,0.0,0.0,0.0,0.0,0.0,0.0,0.0,0.0,0.0,0.0,0.0,0.0,0.0,0.0,0.0,0.0,0.0,0.0,0.0,0.0,0.0,0.0,0.0,0.0,0.0,0.0,0.0,0.0,0.0,0.0,0.0,0.0,0.0,0.0,0.0,0.0,0.0,0.0,0.0,0.0,0.0,0.0,0.0,0.0,0.0,0.0,0.0,0.0,0.0,0.0,0.0,0.0,0.0,0.0,0.0,0.0,0.0,0.0,0.0,0.0,0.0,0.0,0.0,0.0,0.0,0.0,0.0,0.0,0.0,0.0,0.0,0.0,0.0,0.0,0.0,0.0,0.0,0.0,0.0,0.0,0.0,0.0,0.0,0.0,0.0,0.0,0.0,0.0,0.0,0.0,0.0,0.0,0.0,0.0,0.0,0.0,0.0,0.0,0.0,0.0,0.0,0.0,0.0,0.0,0.0,0.0,0.0,0.0,0.0,0.0,0.0,0.0,0.0,0.0,0.0,0.0,0.0,0.0,0.0,0.0,0.0,0.0,0.0,0.0,0.0,0.0,0.0,0.0,0.0,0.0,0.0,0.0,0.0,0.0,0.0,0.0,0.0,0.0,0.0,0.0,0.0,0.0,0.0,0.0,0.0,0.0,0.0,0.0,0.0,0.0,0.0,0.0,0.0,0.0,0.0,0.0,0.0,0.0,0.0,0.0,0.0,0.0,0.0,0.0,0.0,0.0,0.0,0.0,0.0,0.0,0.0,0.0,0.0,0.0,0.0,0.0,0.0,0.0,0.0,0.0,0.0,0.0,0.0,0.0,0.0,0.0,0.0,0.0,0.0,0.0,0.0,0.0,0.0,0.0,0.0,0.0,0.0,0.0,0.0,0.0,0.0,0.0,0.0,0.0,0.0,0.0,0.0,0.0,0.0,0.0,0.0,0.0,0.0,0.0,0.0,0.0,0.0,0.0,0.0,0.0,0.0,0.0,0.0,0.0,0.0,0.0,0.0,0.0,0.0,0.0,0.0,0.0,0.0,0.0,0.0,0.0,0.0,0.0,0.0,0.0,0.0,0.0,0.0,0.0,0.0,0.0,0.0,0.0,0.0,0.0,0.0,0.0,0.0,0.0,0.0,0.0,0.0,0.0,0.0,0.0,0.0,0.0,0.0,0.0,0.0,0.0,0.0,0.0,0.0,0.0,0.0,0.0,0.0,0.0,0.0,0.0,0.0,0.0,0.0,0.0,0.0,0.0,0.0,0.0,0.0,0.0,0.0,0.0,0.0,0.0,0.0,0.0,0.0,0.0,0.0,0.0,0.0,0.0,0.0,0.0,0.0,0.0,0.0,0.0,0.0,0.0,0.0,0.0,0.0,0.0,0.0,0.0,0.0,0.0,0.0,0.0,0.0,0.0,0.0,0.0,0.0,0.0,0.0,0.0,0.0,0.0,0.0,0.0,0.0,0.0,0.0,0.0,0.0,0.0,0.0,0.0,0.0,0.0,0.0,0.0,0.0,0.0,0.0,0.0,0.0,0.0,0.0,0.0,0.0,0.0,0.0,0.0,0.0,0.0,0.0,0.0,0.0,0.0,0.0,0.0,0.0,0.0,0.0,0.0,0.0,0.0,0.0,0.0,0.0,0.0,0.0,0.0,0.0,0.0,0.0,0.0,0.0,0.0,0.0,0.0,0.0,0.0,0.0,0.0,0.0,0.0,0.0,0.0,0.0,0.0,0.0,0.0,0.0,0.0,0.0,0.0,0.0,0.0,0.0,0.0,0.0,0.0,0.0,0.0,0.0,0.0,0.0,0.0,0.0,0.0,0.0,0.0,0.0,0.0,0.0,0.0,0.0,0.0,0.0,0.0,0.0,0.0,0.0,0.0,0.0,0.0,0.0,0.0,0.0,0.0,0.0,0.0,0.0,0.0,0.0,0.0,0.0,0.0,0.0,0.0,0.0,0.0,0.0,0.0,0.0,0.0,0.0,0.0,0.0,0.0,0.0,0.0,0.0,0.0,0.0,0.0,0.0,0.0,0.0,0.0,0.0,0.0,0.0,0.0,0.0,0.0,0.0,0.0,0.0,0.0,0.0,0.0,0.0,0.0,0.0,0.0,0.0,0.0,0.0,0.0,0.0,0.0,0.0,0.0,0.0,0.0,0.0,0.0,0.0,0.0,0.0,0.0,0.0,0.0,0.0,0.0,0.0,0.0,0.0,0.0,0.0,0.0,0.0,0.0,0.0,0.0,0.0,0.0,0.0,0.0,0.0,0.0,0.0,0.0,0.0,0.0,0.0,0.0,0.0,0.0,0.0,0.0,0.0,0.0,0.0,0.0,0.0,0.0,0.0,0.0,0.0,0.0,0.0,0.0,0.0,0.0,0.0,0.0,0.0,0.0,0.0,0.0,0.0,0.0,0.0,0.0,0.0,0.0,0.0,0.0,0.0,0.0,0.0,0.0,0.0,0.0,0.0,0.0,0.0,0.0,0.0,0.0,0.0,0.0,0.0,0.0,0.0,0.0,0.0,0.0,0.0,0.0,0.0,0.0,0.0,0.0,0.0,0.0,0.0,0.0,0.0,0.0,0.0,0.0,0.0,0.0,0.0,0.0,0.0,0.0,0.0,0.0,0.0,0.0,0.0,0.0,0.0,0.0,0.0,0.0,0.0,0.0,0.0,0.0,0.0,0.0,0.0,0.0,0.0,0.0,0.0,0.0,0.0,0.0,0.0,0.0,0.0,0.0,0.0,0.0,0.0,0.0,0.0,0.0,0.0,0.0,0.0,0.0,0.0,0.0,0.0,0.0,0.0,0.0,0.0,0.0,0.0,0.0,0.0,0.0,0.0,0.0,0.0,0.0,0.0,0.0,0.0,0.0,0.0,0.0,0.0,0.0,0.0,0.0,0.0,0.0,0.0,0.0,0.0,0.0,0.0,0.0,0.0,0.0,0.0,0.0,0.0,0.0,0.0,0.0,0.0,0.0,2.012,0.0,0.0,0.0,0.0,0.0,0.0,0.0,0.0,0.0,0.0,0.0,0.0,0.0,0.0,0.0,0.0,0.0,0.0,0.0,0.0,0.0,0.0,0.0,0.0,0.0,0.0,0.0,0.0,0.0,0.0,0.0,0.0,0.0,0.0,0.0,0.0,0.0,0.0,0.0,0.0,0.0,0.0,0.0,0.0,0.0,0.0,0.0,0.0,0.0,0.0,0.0,0.0,0.0,0.0,0.0,0.0,0.0,0.0,0.0,0.0,0.0,0.0,0.0,0.0,0.0,0.0,0.0,0.0,0.0,0.0,0.0,0.0,0.0,0.0,0.0,0.0,0.0,0.0,0.0,0.0,0.0,0.0,0.0,0.0,0.0,0.0,0.0,0.0,0.0,0.0,0.0,0.0,0.0,0.0,0.0,0.0,0.0,0.0,0.0,0.0,0.0,0.0,0.0,0.0,0.0,0.0,0.0,0.0,0.0,0.0,2.2529,2.247,2.2377,2.1627,2.0069,0.0,0.0,0.0,0.0,0.0,0.0,0.0,0.0,0.0,0.0,0.0,0.0,0.0,0.0,0.0,0.0,0.0,0.0,0.0,0.0,0.0,0.0,0.0,0.0,0.0,0.0,0.0,0.0,0.0,0.0,0.0,0.0,0.0,0.0,0.0,0.0,0.0,0.0,0.0,0.0,0.0,0.0,0.0,0.0,0.0,0.0,0.0,0.0,0.0,0.0,0.0,0.0,0.0,0.0,0.0,0.0,0.0,0.0,0.0,0.0,0.0,0.0,0.0,0.0,0.0,0.0,0.0,0.0,0.0,0.0,0.0,0.0,0.0,0.0,0.0,0.0,0.0,0.0,0.0,0.0,0.0,0.0,0.0,0.0,0.0,0.0,0.0,0.0,0.0,0.0,0.0,0.0,0.0,0.0,0.0,0.0,0.0,0.0,0.0,0.0,0.0,0.0,0.0,0.0,0.0,0.0,0.0,0.0,0.0,0.0,0.0,0.0,2.2338,2.16,2.0035,0.0,0.0,0.0,0.0,0.0,0.0,0.0,0.0,0.0,0.0,0.0,0.0,0.0,0.0,0.0,0.0,0.0,0.0,0.0,0.0,0.0,0.0,0.0,0.0,0.0,0.0,0.0,0.0,0.0,0.0,0.0,0.0,0.0,0.0,0.0,0.0,0.0,0.0,0.0,0.0,0.0,0.0,0.0,0.0,0.0,0.0,0.0,0.0,0.0,0.0,0.0,0.0,0.0,0.0,0.0,0.0,0.0,0.0,0.0,0.0,0.0,0.0,0.0,0.0,0.0,0.0,0.0,0.0,0.0,0.0,0.0,0.0,0.0,0.0,0.0,0.0,0.0,0.0,0.0,0.0,0.0,0.0,0.0,0.0,0.0,0.0,0.0,0.0,0.0,0.0,0.0,0.0,0.0,0.0,0.0,0.0,0.0,0.0,0.0,0.0,0.0,0.0,0.0,0.0,0.0,0.0,0.0,0.0,0.0,0.0,2.2525,2.2405,2.2321,0.0,2.0002,0.0,0.0,0.0,0.0,0.0,0.0,0.0,0.0,0.0,0.0,0.0,0.0,0.0,0.0,0.0,0.0,0.0,0.0,0.0,0.0,0.0,0.0,0.0,0.0,0.0,0.0,0.0,0.0,0.0,0.0,0.0,0.0,0.0,0.0,0.0,0.0,0.0,0.0,0.0,0.0,0.0,0.0,0.0,0.0,0.0,0.0,0.0,0.0,0.0,0.0,0.0,0.0,0.0,0.0,0.0,0.0,0.0,0.0,0.0,0.0,0.0,0.0,0.0,0.0,0.0,0.0,0.0,0.0,0.0,0.0,0.0,0.0,0.0,0.0,0.0,0.0,0.0,0.0,0.0,0.0,0.0,0.0,0.0,0.0,0.0,0.0,0.0,0.0,0.0,0.0,0.0,0.0,0.0,0.0,0.0,0.0,0.0,0.0,0.0,0.0,0.0,0.0,0.0,0.0,0.0,0.0,0.0,0.0,0.0,0.0,0.0,2.2338,2.1448,2.0432,0.0,0.0,0.0,0.0,0.0,0.0,0.0,0.0,0.0,0.0,0.0,0.0,0.0,0.0,0.0,0.0,0.0,0.0,0.0,0.0,0.0,0.0,0.0,0.0,0.0,0.0,0.0,0.0,0.0,0.0,0.0,0.0,0.0,0.0,0.0,0.0,0.0,0.0,0.0,0.0,0.0,0.0,0.0,0.0,0.0,0.0,0.0,0.0,0.0,0.0,0.0,0.0,0.0,0.0,0.0,0.0,0.0,0.0,0.0,0.0,0.0,0.0,0.0,0.0,0.0,0.0,0.0,0.0,0.0,0.0,0.0,0.0,0.0,0.0,0.0,0.0,0.0,0.0,0.0,0.0,0.0,0.0,0.0,0.0,0.0,0.0,0.0,0.0,0.0,0.0,0.0,0.0,0.0,0.0,0.0,0.0,0.0,0.0,0.0,0.0,0.0,0.0,0.0,0.0,0.0,0.0,0.0,0.0,0.0,0.0,2.2449,0.0,2.1927,2.0632,1.9454,1.8432,0.0,0.0,0.0,0.0,0.0,0.0,0.0,0.0,0.0,0.0,0.0,0.0,0.0,0.0,0.0,0.0,0.0,0.0,0.0,0.0,0.0,0.0,0.0,0.0,0.0,0.0,0.0,0.0,0.0,0.0,0.0,0.0,0.0,0.0,0.0,0.0,0.0,0.0,0.0,0.0,0.0,0.0,0.0,0.0,0.0,0.0,0.0,0.0,0.0,0.0,0.0,0.0,0.0,0.0,0.0,0.0,0.0,0.0,0.0,0.0,0.0,0.0,0.0,0.0,0.0,0.0,0.0,0.0,0.0,0.0,0.0,0.0,0.0,0.0,0.0,0.0,0.0,0.0,0.0,0.0,0.0,0.0,0.0,0.0,0.0,0.0,0.0,0.0,0.0,0.0,0.0,0.0,0.0,0.0,0.0,0.0,0.0,0.0,0.0,0.0,0.0,0.0,0.0,0.0,0.0,0.0,0.0,0.0,0.0,2.2183,2.2065,2.1181,2.0214,1.9051,0.0,0.0,0.0,0.0,0.0,0.0,0.0,0.0,0.0,0.0,0.0,0.0,0.0,0.0,0.0,0.0,0.0,0.0,0.0,0.0,0.0,0.0,0.0,0.0,0.0,0.0,0.0,0.0,0.0,0.0,0.0,0.0,0.0,0.0,0.0,0.0,0.0,0.0,0.0,0.0,0.0,0.0,0.0,0.0,0.0,0.0,0.0,0.0,0.0,0.0,0.0,0.0,0.0,0.0,0.0,0.0,0.0,0.0,0.0,0.0,0.0,0.0,0.0,0.0,0.0,0.0,0.0,0.0,0.0,0.0,0.0,0.0,0.0,0.0,0.0,0.0,0.0,0.0,0.0,0.0,0.0,0.0,0.0,0.0,0.0,0.0,0.0,0.0,0.0,0.0,0.0,0.0,0.0,0.0,0.0,0.0,0.0,0.0,0.0,0.0,0.0,0.0,0.0,0.0,0.0,0.0,0.0,0.0,0.0,2.149,2.2031,2.1619,2.0194,1.9841,1.8717,0.0,0.0,0.0,0.0,0.0,0.0,0.0,0.0,0.0,0.0,0.0,0.0,0.0,0.0,0.0,0.0,0.0,0.0,0.0,0.0,0.0,0.0,0.0,0.0,0.0,0.0,0.0,0.0,0.0,0.0,0.0,0.0,0.0,0.0,0.0,0.0,0.0,0.0,0.0,0.0,0.0,0.0,0.0,0.0,0.0,0.0,0.0,0.0,0.0,0.0,0.0,0.0,0.0,0.0,0.0,0.0,0.0,0.0,0.0,0.0,0.0,0.0,0.0,0.0,0.0,0.0,0.0,0.0,0.0,0.0,0.0,0.0,0.0,0.0,0.0,0.0,0.0,0.0,0.0,0.0,0.0,0.0,0.0,0.0,0.0,0.0,0.0,0.0,0.0,0.0,0.0,0.0,0.0,0.0,0.0,0.0,0.0,0.0,0.0,0.0,0.0,0.0,0.0,0.0,0.0,0.0,0.0,0.0,0.0,2.1729,0.0,2.1329,0.0,1.9584,1.8332,0.0,0.0,0.0,0.0,0.0,0.0,0.0,0.0,0.0,0.0,0.0,0.0,0.0,0.0,0.0,0.0,0.0,0.0,0.0,0.0,0.0,0.0,0.0,0.0,0.0,0.0,0.0,0.0,0.0,0.0,0.0,0.0,0.0,0.0,0.0,0.0,0.0,0.0,0.0,0.0,0.0,0.0,0.0,0.0,0.0,0.0,0.0,0.0,0.0,0.0,0.0,0.0,0.0,0.0,0.0,0.0,0.0,0.0,0.0,0.0,0.0,0.0,0.0,0.0,0.0,0.0,0.0,0.0,0.0,0.0,0.0,0.0,0.0,0.0,0.0,0.0,0.0,0.0,0.0,0.0,0.0,0.0,0.0,0.0,0.0,0.0,0.0,0.0,0.0,0.0,0.0,0.0,0.0,0.0,0.0,0.0,0.0,0.0,0.0,0.0,0.0,0.0,0.0,0.0,0.0,0.0,0.0,0.0,2.0993,2.2192,2.2084,2.1222,1.9764,1.9416,1.7915,0.0,0.0,0.0,0.0,0.0,0.0,0.0,0.0,0.0,0.0,0.0,0.0,0.0,0.0,0.0,0.0,0.0,0.0,0.0,0.0,0.0,0.0,0.0,0.0,0.0,0.0,0.0,0.0,0.0,0.0,0.0,0.0,0.0,0.0,0.0,0.0,0.0,0.0,0.0,0.0,0.0,0.0,0.0,0.0,0.0,0.0,0.0,0.0,0.0,0.0,0.0,0.0,0.0,0.0,0.0,0.0,0.0,0.0,0.0,0.0,0.0,0.0,0.0,0.0,0.0,0.0,0.0,0.0,0.0,0.0,0.0,0.0,0.0,0.0,0.0,0.0,0.0,0.0,0.0,0.0,0.0,0.0,0.0,0.0,0.0,0.0,0.0,0.0,0.0,0.0,0.0,0.0,0.0,0.0,0.0,0.0,0.0,0.0,0.0,0.0,0.0,0.0,0.0,0.0,0.0,0.0,0.0,0.0,0.0,2.1349,2.1306,2.0689,1.9553,1.8822,1.75,0.0,0.0,0.0,0.0,0.0,0.0,0.0,0.0,0.0,0.0,0.0,0.0,0.0,0.0,0.0,0.0,0.0,0.0,0.0,0.0,0.0,0.0,0.0,0.0,0.0,0.0,0.0,0.0,0.0,0.0,0.0,0.0,0.0,0.0,0.0,0.0,0.0,0.0,0.0,0.0,0.0,0.0,0.0,0.0,0.0,0.0,0.0,0.0,0.0,0.0,0.0,0.0,0.0,0.0,0.0,0.0,0.0,0.0,0.0,0.0,0.0,0.0,0.0,0.0,0.0,0.0,0.0,0.0,0.0,0.0,0.0,0.0,0.0,0.0,0.0,0.0,0.0,0.0,0.0,0.0,0.0,0.0,0.0,0.0,0.0,0.0,0.0,0.0,0.0,0.0,0.0,0.0,0.0,0.0,0.0,0.0,0.0,0.0,0.0,0.0,0.0,0.0,0.0,0.0,0.0,0.0,0.0,0.0,0.0,2.0203,2.0364,1.9986,1.8974,1.834,1.7241,1.5643,0.0,0.0,0.0,0.0,0.0,0.0,0.0,0.0,0.0,0.0,0.0,0.0,0.0,0.0,0.0,0.0,0.0,0.0,0.0,0.0,0.0,0.0,0.0,0.0,0.0,0.0,0.0,0.0,0.0,0.0,0.0,0.0,0.0,0.0,0.0,0.0,0.0,0.0,0.0,0.0,0.0,0.0,0.0,0.0,0.0,0.0,0.0,0.0,0.0,0.0,0.0,0.0,0.0,0.0,0.0,0.0,0.0,0.0,0.0,0.0,0.0,0.0,0.0,0.0,0.0,0.0,0.0,0.0,0.0,0.0,0.0,0.0,0.0,0.0,0.0,0.0,0.0,0.0,0.0,0.0,0.0,0.0,0.0,0.0,0.0,0.0,0.0,0.0,0.0,0.0,0.0,0.0,0.0,0.0,0.0,0.0,0.0,0.0,0.0,0.0,0.0,0.0,0.0,0.0,0.0,0.0,0.0,0.0,1.8812,1.9328,1.9138,1.8251,1.7947,1.7104,0.0,0.0,0.0,0.0,0.0,0.0,0.0,0.0,0.0,0.0,0.0,0.0,0.0,0.0,0.0,0.0,0.0,0.0,0.0,0.0,0.0,0.0,0.0,0.0,0.0,0.0,0.0,0.0,0.0,0.0,0.0,0.0,0.0,0.0,0.0,0.0,0.0,0.0,0.0,0.0,0.0,0.0,0.0,0.0,0.0,0.0,0.0,0.0,0.0,0.0,0.0,0.0,0.0,0.0,0.0,0.0,0.0,0.0,0.0,0.0,0.0,0.0,0.0,0.0,0.0,0.0,0.0,0.0,0.0,0.0,0.0,0.0,0.0,0.0,0.0,0.0,0.0,0.0,0.0,0.0,0.0,0.0,0.0,0.0,0.0,0.0,0.0,0.0,0.0,0.0,0.0,0.0,0.0,0.0,0.0,0.0,0.0,0.0,0.0,0.0,0.0,0.0,0.0,0.0,0.0,0.0,0.0,0.0,0.0,1.8093,1.7985,1.7971,1.8107,1.7348,1.6664,0.0,0.0,0.0,0.0,0.0,0.0,0.0,0.0,0.0,0.0,0.0,0.0,0.0,0.0,0.0,0.0,0.0,0.0,0.0,0.0,0.0,0.0,0.0,0.0,0.0,0.0,0.0,0.0,0.0,0.0,0.0,0.0,0.0,0.0,0.0,0.0,0.0,0.0,0.0,0.0,0.0,0.0,0.0,0.0,0.0,0.0,0.0,0.0,0.0,0.0,0.0,0.0,0.0,0.0,0.0,0.0,0.0,0.0,0.0,0.0,0.0,0.0,0.0,0.0,0.0,0.0,0.0,0.0,0.0,0.0,0.0,0.0,0.0,0.0,0.0,0.0,0.0,0.0,0.0,0.0,0.0,0.0,0.0,0.0,0.0,0.0,0.0,0.0,0.0,0.0,0.0,0.0,0.0,0.0,0.0,0.0,0.0,0.0,0.0,0.0,0.0,0.0,0.0,0.0,0.0,0.0,0.0,0.0,1.7673,1.7424,1.6759,1.6642,1.7129,1.6739,1.6436,0.0,0.0,0.0,0.0,0.0,0.0,0.0,0.0,0.0,0.0,0.0,0.0,0.0,0.0,0.0,0.0,0.0,0.0,0.0,0.0,0.0,0.0,0.0,0.0,0.0,0.0,0.0,0.0,0.0,0.0,0.0,0.0,0.0,0.0,0.0,0.0,0.0,0.0,0.0,0.0,0.0,0.0,0.0,0.0,0.0,0.0,0.0,0.0,0.0,0.0,0.0,0.0,0.0,0.0,0.0,0.0,0.0,0.0,0.0,0.0,0.0,0.0,0.0,0.0,0.0,0.0,0.0,0.0,0.0,0.0,0.0,0.0,0.0,0.0,0.0,0.0,0.0,0.0,0.0,0.0,0.0,0.0,0.0,0.0,0.0,0.0,0.0,0.0,0.0,0.0,0.0,0.0,0.0,0.0,0.0,0.0,0.0,0.0,0.0,0.0,0.0,0.0,0.0,0.0,0.0,0.0,0.0,0.0,1.7082,1.6901,1.5787,1.5414,1.5791,1.6103,1.6254,0.0,0.0,0.0,0.0,0.0,0.0,0.0,0.0,0.0,0.0,0.0,0.0,0.0,0.0,0.0,0.0,0.0,0.0,0.0,0.0,0.0,0.0,0.0,0.0,0.0,0.0,0.0,0.0,0.0,0.0,0.0,0.0,0.0,0.0,0.0,0.0,0.0,0.0,0.0,0.0,0.0,0.0,0.0,0.0,0.0,0.0,0.0,0.0,0.0,0.0,0.0,0.0,0.0,0.0,0.0,0.0,0.0,0.0,0.0,0.0,0.0,0.0,0.0,0.0,0.0,0.0,0.0,0.0,0.0,0.0,0.0,0.0,0.0,0.0,0.0,0.0,0.0,0.0,0.0,0.0,0.0,0.0,0.0,0.0,0.0,0.0,0.0,0.0,0.0,0.0,0.0,0.0,0.0,0.0,0.0,0.0,0.0,0.0,0.0,0.0,0.0,0.0,0.0,0.0,0.0,0.0,0.0,0.0,1.7103,1.6887,1.589,1.5522,1.587,1.5688,1.5737,0.0,0.0,0.0,0.0,0.0,0.0,0.0,0.0,0.0,0.0,0.0,0.0,0.0,0.0,0.0,0.0,0.0,0.0,0.0,0.0,0.0,0.0,0.0,0.0,0.0,0.0,0.0,0.0,0.0,0.0,0.0,0.0,0.0,0.0,0.0,0.0,0.0,0.0,0.0,0.0,0.0,0.0,0.0,0.0,0.0,0.0,0.0,0.0,1.7526,0.0,0.0,0.0,0.0,0.0,0.0,0.0,0.0,0.0,0.0,0.0,0.0,0.0,0.0,0.0,0.0,0.0,0.0,0.0,0.0,0.0,0.0,0.0,0.0,0.0,0.0,0.0,0.0,0.0,0.0,0.0,0.0,0.0,0.0,0.0,0.0,0.0,0.0,0.0,0.0,0.0,0.0,0.0,0.0,0.0,0.0,0.0,0.0,0.0,0.0,0.0,0.0,0.0,0.0,0.0,0.0,0.0,0.0,0.0,1.6571,1.5972,1.4959,1.4785,1.5444,1.513,1.5268,0.0,0.0,0.0,0.0,0.0,0.0,0.0,0.0,0.0,0.0,0.0,0.0,0.0,0.0,0.0,0.0,0.0,0.0,0.0,0.0,0.0,0.0,0.0,0.0,0.0,0.0,0.0,0.0,0.0,0.0,0.0,0.0,0.0,0.0,0.0,0.0,0.0,0.0,0.0,0.0,0.0,0.0,0.0,0.0,0.0,0.0,0.0,0.0,0.0,0.0,0.0,0.0,0.0,0.0,0.0,0.0,0.0,0.0,0.0,0.0,0.0,0.0,0.0,0.0,0.0,0.0,0.0,0.0,0.0,0.0,0.0,0.0,0.0,0.0,0.0,0.0,0.0,0.0,0.0,0.0,0.0,0.0,0.0,0.0,0.0,0.0,0.0,0.0,0.0,0.0,0.0,0.0,0.0,0.0,0.0,0.0,0.0,0.0,0.0,0.0,0.0,0.0,0.0,0.0,0.0,0.0,0.0,1.6926,1.5978,1.4926,1.3936,1.3932,1.4978,1.4606,1.4947,1.6062,0.0,0.0,0.0,0.0,0.0,0.0,0.0,0.0,0.0,0.0,0.0,0.0,0.0,0.0,0.0,0.0,0.0,0.0,0.0,0.0,0.0,0.0,0.0,0.0,0.0,0.0,0.0,0.0,0.0,0.0,0.0,0.0,0.0,0.0,0.0,0.0,0.0,0.0,1.7789,1.7732,0.0,0.0,0.0,0.0,0.0,0.0,0.0,0.0,1.87,0.0,0.0,0.0,0.0,0.0,0.0,0.0,0.0,0.0,0.0,0.0,0.0,0.0,0.0,0.0,0.0,0.0,0.0,0.0,0.0,0.0,0.0,0.0,0.0,0.0,0.0,0.0,0.0,0.0,0.0,0.0,0.0,0.0,0.0,0.0,0.0,0.0,0.0,0.0,0.0,0.0,0.0,0.0,0.0,0.0,0.0,0.0,0.0,0.0,0.0,0.0,0.0,0.0,0.0,0.0,0.0,1.7796,1.6942,1.5995,1.5009,1.4017,1.4004,1.5021,1.4635,1.4965,1.6102,0.0,0.0,0.0,0.0,0.0,0.0,0.0,0.0,0.0,0.0,0.0,0.0,0.0,0.0,0.0,0.0,0.0,0.0,0.0,0.0,0.0,0.0,0.0,0.0,0.0,0.0,0.0,0.0,0.0,0.0,0.0,0.0,0.0,0.0,0.0,0.0,0.0,0.0,0.0,1.7749,1.7664,0.0,0.0,0.0,0.0,0.0,0.0,0.0,0.0,1.8539,0.0,0.0,0.0,0.0,0.0,0.0,0.0,0.0,0.0,0.0,0.0,0.0,0.0,0.0,0.0,0.0,0.0,0.0,0.0,0.0,0.0,0.0,0.0,0.0,0.0,0.0,0.0,0.0,0.0,0.0,0.0,0.0,0.0,0.0,0.0,0.0,0.0,0.0,0.0,0.0,0.0,0.0,0.0,0.0,0.0,0.0,0.0,0.0,0.0,0.0,0.0,0.0,0.0,0.0,0.0,1.7199,1.6789,1.5911,1.4541,1.3856,1.3888,1.4541,1.4467,1.4754,0.0,0.0,0.0,0.0,0.0,0.0,0.0,0.0,0.0,0.0,0.0,0.0,0.0,0.0,0.0,0.0,0.0,0.0,0.0,0.0,0.0,0.0,0.0,0.0,0.0,0.0,0.0,0.0,0.0,0.0,0.0,0.0,0.0,0.0,0.0,0.0,0.0,0.0,0.0,0.0,1.7687,1.7746,1.7987,0.0,0.0,0.0,0.0,0.0,0.0,1.9231,1.9432,0.0,0.0,0.0,0.0,0.0,0.0,0.0,0.0,0.0,0.0,0.0,0.0,0.0,0.0,0.0,0.0,0.0,0.0,0.0,0.0,0.0,0.0,0.0,0.0,0.0,0.0,0.0,0.0,0.0,0.0,0.0,0.0,0.0,0.0,0.0,0.0,0.0,0.0,0.0,0.0,0.0,0.0,0.0,0.0,0.0,0.0,0.0,0.0,0.0,0.0,0.0,0.0,0.0,0.0,0.0,1.6607,1.6637,1.5806,1.4073,1.3728,1.3769,1.409,1.4313,1.4599,0.0,0.0,0.0,0.0,0.0,0.0,0.0,0.0,0.0,0.0,0.0,0.0,0.0,0.0,0.0,0.0,0.0,0.0,0.0,0.0,0.0,0.0,0.0,0.0,0.0,0.0,0.0,0.0,0.0,0.0,0.0,0.0,0.0,0.0,0.0,0.0,0.0,0.0,0.0,0.0,0.0,1.7762,1.8376,1.8345,0.0,0.0,0.0,0.0,1.9502,1.9882,0.0,0.0,0.0,0.0,0.0,0.0,0.0,0.0,0.0,0.0,0.0,0.0,0.0,0.0,0.0,0.0,0.0,0.0,0.0,0.0,0.0,0.0,0.0,0.0,0.0,0.0,0.0,0.0,0.0,0.0,0.0,0.0,0.0,0.0,0.0,0.0,0.0,0.0,0.0,0.0,0.0,0.0,0.0,0.0,0.0,0.0,0.0,0.0,0.0,0.0,0.0,0.0,0.0,0.0,0.0,0.0,1.6548,1.6514,1.5666,1.3994,1.3713,1.3769,1.4093,1.4297,1.4574,0.0,0.0,0.0,0.0,0.0,0.0,0.0,0.0,0.0,0.0,0.0,0.0,0.0,0.0,0.0,0.0,0.0,0.0,0.0,0.0,0.0,0.0,0.0,0.0,0.0,0.0,0.0,0.0,0.0,0.0,0.0,0.0,0.0,0.0,0.0,0.0,0.0,0.0,0.0,0.0,0.0,1.7641,1.8222,1.8598,1.8954,0.0,0.0,1.9958,1.9798,1.9823,0.0,0.0,0.0,0.0,0.0,0.0,0.0,0.0,0.0,0.0,0.0,0.0,0.0,0.0,0.0,0.0,0.0,0.0,0.0,0.0,0.0,0.0,0.0,0.0,0.0,0.0,0.0,0.0,0.0,0.0,0.0,0.0,0.0,0.0,0.0,0.0,0.0,0.0,0.0,0.0,0.0,0.0,0.0,0.0,0.0,0.0,0.0,0.0,0.0,0.0,0.0,0.0,0.0,0.0,0.0,1.5967,1.5713,1.5744,1.5163,1.395,1.3667,1.3531,1.3549,1.4084,1.4404,0.0,0.0,0.0,0.0,0.0,0.0,0.0,0.0,0.0,0.0,0.0,0.0,0.0,0.0,0.0,0.0,0.0,0.0,0.0,0.0,0.0,0.0,0.0,0.0,0.0,0.0,0.0,0.0,0.0,0.0,0.0,0.0,0.0,0.0,0.0,0.0,0.0,0.0,0.0,0.0,0.0,0.0,1.8556,1.8779,0.0,0.0,0.0,1.994,1.9762,0.0,0.0,0.0,0.0,0.0,0.0,0.0,0.0,0.0,0.0,0.0,0.0,0.0,0.0,0.0,0.0,0.0,0.0,0.0,0.0,0.0,0.0,0.0,0.0,0.0,0.0,0.0,0.0,0.0,0.0,0.0,0.0,0.0,0.0,0.0,0.0,0.0,0.0,0.0,0.0,0.0,0.0,0.0,0.0,0.0,0.0,0.0,0.0,0.0,0.0,0.0,0.0,0.0,0.0,0.0,0.0,0.0,1.5257,1.5356,1.49,1.3894,1.3655,1.3379,1.31,1.3839,0.0,0.0,0.0,0.0,0.0,0.0,0.0,0.0,0.0,0.0,0.0,0.0,0.0,0.0,0.0,0.0,0.0,0.0,0.0,0.0,0.0,0.0,0.0,0.0,0.0,0.0,0.0,1.3986,0.0,0.0,0.0,0.0,0.0,0.0,0.0,0.0,0.0,0.0,0.0,0.0,0.0,0.0,1.7902,1.8869,1.8969,1.9296,0.0,0.0,1.9884,1.9705,1.9596,1.9413,0.0,0.0,0.0,0.0,0.0,0.0,0.0,0.0,0.0,0.0,0.0,0.0,0.0,0.0,0.0,0.0,0.0,0.0,0.0,0.0,0.0,0.0,0.0,0.0,0.0,0.0,0.0,0.0,0.0,0.0,0.0,0.0,0.0,0.0,0.0,0.0,0.0,0.0,0.0,0.0,0.0,0.0,0.0,0.0,0.0,0.0,0.0,0.0,0.0,0.0,0.0,0.0,0.0,0.0,0.0,1.5744,1.5887,1.521,1.3771,1.3627,1.3413,1.303,1.3542,1.3818,0.0,0.0,0.0,0.0,0.0,0.0,0.0,0.0,0.0,0.0,0.0,0.0,0.0,0.0,0.0,0.0,0.0,0.0,0.0,0.0,0.0,0.0,0.0,0.0,0.0,0.0,0.0,0.0,0.0,0.0,0.0,0.0,0.0,0.0,0.0,0.0,0.0,0.0,0.0,0.0,0.0,1.8264,1.8831,1.9231,1.962,0.0,0.0,1.9777,1.9596,1.9398,1.9199,1.9055,0.0,0.0,0.0,0.0,0.0,0.0,0.0,0.0,0.0,0.0,0.0,0.0,0.0,0.0,0.0,0.0,0.0,0.0,0.0,0.0,0.0,0.0,0.0,0.0,0.0,0.0,0.0,0.0,0.0,0.0,0.0,0.0,0.0,0.0,0.0,0.0,0.0,0.0,0.0,0.0,0.0,0.0,0.0,0.0,0.0,0.0,0.0,0.0,0.0,0.0,0.0,0.0,0.0,1.5345,1.5547,1.5236,1.483,1.4331,1.3769,1.3495,1.356,1.3646,1.3879,0.0,0.0,0.0,0.0,0.0,0.0,0.0,0.0,0.0,0.0,0.0,0.0,0.0,0.0,0.0,0.0,0.0,0.0,0.0,0.0,0.0,0.0,0.0,0.0,0.0,0.0,0.0,0.0,1.5081,1.536,1.5991,0.0,0.0,0.0,0.0,0.0,0.0,0.0,0.0,0.0,0.0,1.8828,1.9337,1.9453,0.0,0.0,1.9884,1.9654,1.945,1.9228,1.895,1.8644,1.8514,0.0,0.0,0.0,0.0,0.0,0.0,0.0,0.0,0.0,0.0,0.0,0.0,0.0,0.0,0.0,0.0,0.0,0.0,0.0,0.0,0.0,0.0,0.0,0.0,0.0,0.0,0.0,0.0,0.0,0.0,0.0,0.0,0.0,0.0,0.0,0.0,0.0,0.0,0.0,0.0,0.0,0.0,0.0,0.0,0.0,0.0,0.0,0.0,0.0,0.0,0.0,0.0,1.5354,1.56,1.5275,1.4954,1.4604,1.3818,1.3534,1.3852,1.3874,1.4096,0.0,0.0,0.0,0.0,0.0,0.0,0.0,0.0,0.0,0.0,0.0,0.0,0.0,0.0,0.0,0.0,0.0,0.0,0.0,0.0,0.0,0.0,0.0,0.0,0.0,0.0,0.0,0.0,1.5289,1.5607,1.6053,0.0,0.0,0.0,0.0,0.0,0.0,0.0,0.0,0.0,0.0,1.9259,1.9547,1.9637,1.9749,1.9929,1.9812,1.9611,1.9339,1.904,1.8721,1.8266,0.0,0.0,0.0,0.0,0.0,0.0,0.0,0.0,0.0,0.0,0.0,0.0,0.0,0.0,0.0,0.0,0.0,0.0,0.0,0.0,0.0,0.0,0.0,0.0,0.0,0.0,0.0,0.0,0.0,0.0,0.0,0.0,0.0,0.0,0.0,0.0,0.0,0.0,0.0,0.0,0.0,0.0,0.0,0.0,0.0,0.0,0.0,0.0,0.0,0.0,0.0,0.0,0.0,0.0,1.6082,1.6304,1.5771,1.4473,1.3681,1.3475,1.3799,1.4309,1.4521,1.4407,0.0,0.0,0.0,0.0,0.0,0.0,0.0,0.0,0.0,0.0,0.0,0.0,0.0,0.0,0.0,0.0,0.0,0.0,0.0,0.0,0.0,0.0,0.0,0.0,0.0,0.0,1.4728,1.5277,1.5693,0.0,0.0,0.0,0.0,0.0,0.0,0.0,0.0,0.0,0.0,1.9092,1.953,1.9353,1.9728,1.9954,1.9818,1.972,1.9604,1.9339,1.886,1.8383,0.0,0.0,0.0,0.0,0.0,0.0,0.0,0.0,0.0,0.0,0.0,0.0,0.0,0.0,0.0,0.0,0.0,0.0,0.0,0.0,0.0,0.0,0.0,0.0,0.0,0.0,0.0,1.1913,1.221,0.0,0.0,0.0,0.0,0.0,0.0,0.0,0.0,0.0,0.0,0.0,1.5031,1.4891,0.0,0.0,0.0,0.0,0.0,0.0,0.0,0.0,0.0,0.0,0.0,0.0,1.6218,1.6605,1.6373,1.5841,1.5061,1.3789,1.3464,1.4225,1.4397,1.445,1.4401,0.0,0.0,0.0,0.0,0.0,0.0,0.0,0.0,0.0,0.0,0.0,0.0,0.0,0.0,0.0,0.0,0.0,0.0,0.0,0.0,0.0,0.0,0.0,0.0,0.0,1.4496,0.0,0.0,0.0,0.0,0.0,0.0,0.0,0.0,0.0,0.0,0.0,1.9341,1.9644,1.9507,1.9384,1.9319,1.8956,1.8824,0.0,0.0,0.0,0.0,0.0,0.0,0.0,0.0,0.0,0.0,0.0,0.0,0.0,0.0,2.1403,2.2331,2.2463,2.2449,2.2555,0.0,0.0,0.0,0.0,0.0,0.0,0.0,0.0,0.0,0.0,0.0,0.0,0.0,0.0,0.0,0.0,1.263,0.0,0.0,0.0,0.0,0.0,0.0,0.0,0.0,1.427,1.431,1.4257,1.4113,1.404,0.0,1.4063,1.4482,0.0,0.0,0.0,0.0,0.0,0.0,0.0,0.0,1.6583,1.7072,1.6645,1.6046,1.5284,1.4247,1.3946,1.4491,1.4603,1.4557,1.4374,1.3769,1.3133,0.0,0.0,0.0,0.0,0.0,0.0,0.0,0.0,0.0,0.0,0.0,0.0,0.0,0.0,0.0,0.0,0.0,0.0,0.0,0.0,0.0,0.0,0.0,1.424,0.0,0.0,0.0,0.0,0.0,0.0,0.0,0.0,0.0,1.9147,1.942,1.9549,1.9656,1.9363,1.9078,1.8801,0.0,0.0,0.0,0.0,0.0,0.0,0.0,1.7906,1.7503,1.724,1.7031,1.6918,1.7553,1.8341,1.912,0.0,0.0,2.1622,2.1841,2.1888,2.1983,2.2044,2.2123,2.2184,2.231,2.2388,0.0,0.0,0.0,0.0,0.0,0.0,0.0,0.0,1.0999,1.1516,0.0,1.2505,0.0,0.0,0.0,0.0,0.0,0.0,0.0,0.0,1.3772,1.4043,1.3986,1.3882,1.381,1.3841,1.382,1.395,1.4231,1.4512,0.0,0.0,0.0,0.0,0.0,0.0,1.6864,1.7436,1.7141,1.6378,1.5179,1.5065,1.4844,1.4531,1.4898,1.4845,1.4319,1.3669,1.3067,1.2626,1.2473,0.0,0.0,0.0,0.0,0.0,0.0,0.0,0.0,0.0,0.0,0.0,0.0,0.0,0.0,0.0,0.0,0.0,0.0,0.0,0.0,1.3887,0.0,0.0,0.0,0.0,0.0,0.0,0.0,0.0,0.0,0.0,1.8574,1.8954,1.8958,1.8449,0.0,0.0,0.0,0.0,1.7734,1.7587,1.8695,1.9101,1.7956,1.7564,1.7424,1.7328,0.0,0.0,1.668,1.7137,1.7568,1.7854,1.8766,1.9891,2.0842,2.1099,2.1277,2.152,2.1554,2.1602,2.1698,2.1746,2.1793,0.1403,0.0,0.0,0.0,0.0,0.6907,0.7822,0.8721,0.9428,1.0022,1.0542,1.1113,0.0,0.0,0.0,0.0,0.0,0.0,1.2598,1.2502,1.257,1.258,1.2589,1.2385,1.2288,1.2395,1.2502,1.2638,1.2812,1.3186,1.3795,1.4648,0.0,0.0,0.0,0.0,1.6373,1.7013,1.6846,1.6358,1.5667,1.5558,1.5247,1.4729,1.4877,1.4735,1.4287,1.3568,1.2953,1.2473,1.2138,0.0,0.0,0.0,0.0,0.0,0.0,0.0,0.0,0.0,0.0,0.0,0.0,0.0,0.0,0.0,0.0,0.0,0.0,0.0,1.3047,1.3362,1.36,0.0,0.0,0.0,0.0,0.0,0.0,0.0,0.0,0.0,1.7087,1.7678,1.807,0.0,0.0,1.7092,1.6948,1.6547,1.6427,1.6889,0.0,0.0,0.0,1.6645,1.6238,1.606,1.575,1.56,1.591,1.604,1.6403,1.7232,1.7647,1.813,1.8831,1.9976,2.072,2.0858,2.0858,2.0908,2.0957,2.1006,2.1104,-0.019,0.1227,0.2497,0.3539,0.4476,0.555,0.6512,0.7356,0.8115,0.873,0.9182,0.9867,1.0227,1.0272,1.0595,0.0,0.0,0.0,1.1495,1.1314,1.1256,1.1256,1.1256,1.1011,1.1038,1.1334,1.1443,1.1584,1.1841,1.2138,1.2771,1.3645,0.0,0.0,1.5582,1.5765,1.6155,1.6713,1.6542,1.6229,1.5775,1.5555,1.5227,1.474,1.4892,1.4811,1.4337,1.3602,1.2953,1.2413,1.1957,1.1627,0.0,0.0,0.0,0.0,0.0,0.0,0.0,0.0,0.0,0.0,0.0,1.2029,0.0,0.0,0.0,0.0,1.2711,1.2805,1.2781,1.3341,0.0,0.0,0.0,0.0,0.0,0.0,0.0,1.541,1.5474,1.5592,1.5841,1.623,1.6595,1.6973,1.657,1.6218,1.6126,0.0,1.5743,1.6204,1.5914,1.5834,1.6379,1.5709,1.5148,1.5359,1.5146,1.5043,1.5291,1.5246,1.5517,1.6287,1.6697,1.7065,1.7613,1.876,1.9652,1.97,1.9798,1.9798,1.9798,1.9895,1.9991,-0.1042,-0.0331,0.1228,0.2403,0.3309,0.4474,0.546,0.6265,0.7022,0.757,0.7995,0.8847,0.9243,0.9306,0.9943,0.0,0.0,1.03,1.0242,0.989,0.9906,0.9995,1.0092,0.985,1.0032,1.0618,1.0626,1.083,1.1166,1.1325,1.1715,1.2308,1.3746,1.4827,1.5483,1.5757,1.6076,1.6467,1.6273,1.6011,1.5663,1.533,1.5015,1.472,1.5008,1.4935,1.4452,1.3709,1.3045,1.2437,1.1909,1.1479,1.1126,0.0,0.0,0.0,0.0,0.0,0.0,0.0,0.0,0.0,0.0,0.0,0.0,0.0,0.0,0.0,1.2427,0.0,1.2662,1.3433,0.0,0.0,0.0,1.4078,1.3641,1.3957,1.4171,1.4004,0.0,0.0,0.0,0.0,1.486,1.5304,1.5684,1.5794,1.5447,1.5522,1.561,1.5654,1.5725,1.5799,1.5841,1.487,1.4333,1.4925,1.498,1.4816,1.4815,1.4712,1.4858,1.5364,1.5939,1.6467,1.699,1.7618,1.8113,1.824,1.8423,1.8593,1.8644,1.8657,1.8763,-0.0545,0.0136,0.1223,0.2064,0.2706,0.3653,0.4565,0.5437,0.6076,0.667,0.7181,0.7623,0.7919,0.8193,0.8338,0.8504,0.8704,0.889,0.8989,0.9009,0.9118,0.9173,0.9212,0.9079,0.9341,0.986,0.9917,1.0098,1.0393,1.0605,1.0837,1.1159,1.2103,1.3346,1.4659,1.4803,1.525,1.6024,1.5995,1.6006,1.6045,1.5878,1.5697,1.5502,1.5315,1.498,1.4564,1.3901,1.3229,1.2567,1.209,1.1638,1.1212,1.1147,0.0,0.0,0.0,0.0,0.0,0.0,0.0,0.0,0.0,1.192,1.1799,0.0,1.2022,0.0,1.1566,1.1643,1.1589,1.207,0.0,0.0,1.252,1.2849,1.2517,1.3053,1.3512,1.3604,1.3643,1.375,1.4038,1.3879,1.389,1.4312,1.4782,1.5134,1.5283,1.5433,1.558,1.5712,1.5684,1.5608,1.5394,1.4676,1.4092,1.4188,1.3985,1.3925,1.4321,1.42,1.4287,1.4794,1.5339,1.5723,1.5897,1.6461,1.6898,1.6974,1.768,1.8298,1.8298,1.8273,1.838,0.0446,0.1027,0.2184,0.28,0.3129,0.364,0.4355,0.514,0.5701,0.6173,0.6685,0.6988,0.7268,0.7583,0.7631,0.7834,0.8072,0.8294,0.8443,0.8451,0.8549,0.8648,0.8784,0.8731,0.8944,0.9565,0.9612,0.9787,1.0062,1.0258,1.0527,1.0857,1.1433,1.2382,1.3581,1.4113,1.4774,1.5449,1.5506,1.5379,1.5198,1.5391,1.5432,1.5223,1.5257,1.5102,1.4655,1.413,1.3535,1.2871,1.2389,1.1884,1.1415,1.1164,1.0833,0.0,0.0,0.0,0.0,0.0,0.0,0.0,0.0,0.0,0.0,0.0,1.1459,0.0,1.1176,0.0,1.1295,1.1724,1.1861,1.1622,1.2025,1.2139,1.1733,1.2276,1.2637,1.2665,1.2814,1.3022,1.3349,1.3408,1.3581,1.3967,1.4433,1.4902,1.5253,1.5418,1.558,1.577,1.5757,1.5551,1.5149,1.4627,1.4195,1.3941,1.3721,1.3642,1.3798,1.372,1.3728,1.4274,1.4757,1.5215,1.5463,1.6073,1.6565,1.6696,1.7156,1.7561,1.7554,1.7509,1.7599,0.1772,0.2228,0.3565,0.4132,0.4168,0.4343,0.47,0.5226,0.5658,0.6099,0.6471,0.6774,0.7015,0.7245,0.7386,0.7568,0.7863,0.8136,0.821,0.8129,0.8224,0.8399,0.8704,0.8601,0.8904,0.9517,0.9571,0.9744,1.0088,1.0222,1.0552,1.1075,1.1337,1.1812,1.2544,1.3616,1.4353,1.474,1.4835,1.4556,1.396,1.4569,1.4782,1.4578,1.511,1.5224,1.4777,1.4369,1.3855,1.3285,1.2743,1.2222,1.1715,1.1271,1.0971,0.0,1.0649,0.0,0.0,0.0,0.0,0.0,0.0,0.0,0.0,1.1006,1.0888,1.0328,1.0924,1.1328,1.1267,1.1633,1.1824,1.1654,1.1782,1.1714,1.1226,1.1609,1.186,1.1623,1.2066,1.252,1.2873,1.3242,1.3648,1.4,1.4433,1.4871,1.5238,1.5403,1.5566,1.5785,1.5786,1.5536,1.5029,1.4707,1.4406,1.4105,1.3874,1.3741,1.3518,1.3395,1.3396,1.3813,1.4387,1.4937,1.5408,1.6137,1.6693,1.6774,1.6897,1.6935,1.685,1.6832,1.6846,0.362,0.376,0.4418,0.5029,0.546,0.5765,0.5776,0.561,0.6039,0.6428,0.6793,0.6888,0.694,0.6991,0.7071,0.7274,0.7574,0.7845,0.8104,0.8352,0.8419,0.8577,0.8766,0.8865,0.919,0.9701,0.9848,1.0096,1.0385,1.0587,1.0799,1.0952,1.1529,1.1902,0.0,0.0,0.0,0.0,1.4049,1.4106,1.4099,1.4595,1.4878,1.4824,1.5211,0.0,1.5086,1.4606,1.4111,1.3635,1.3104,0.0,0.0,0.0,0.0,0.0,0.0,0.0,0.0,0.0,0.0,0.0,1.04,1.0467,1.0621,1.0582,1.0495,1.0302,1.0449,1.0528,1.0518,1.0587,1.0637,1.0666,1.0795,1.0911,1.0956,1.1301,1.1561,1.176,1.215,1.2544,1.2861,1.3242,1.3682,1.4144,1.4511,1.4856,1.5299,1.5448,1.558,1.577,1.5727,1.5551,1.5268,1.4996,1.4721,1.4438,1.413,1.3914,1.3741,1.3615,1.3493,1.3629,1.4419,1.5108,1.5248,1.613,1.6888,1.6931,1.6973,1.696,1.6876,1.6918,1.7057,0.4536,0.0,0.5484,0.6062,0.0,0.7085,0.7161,0.6952,0.679,0.6894,0.7167,0.7251,0.73,0.7314,0.7454,0.7682,0.8021,0.8193,0.848,0.8846,0.8878,0.9079,0.9408,0.9457,0.9716,1.0183,1.0264,1.0506,1.0855,1.1003,1.1211,1.1516,1.1719,1.2005,1.236,1.2698,1.2956,1.3203,1.3413,1.3366,1.3161,1.4044,1.4474,1.4386,0.0,0.0,0.0,0.0,0.0,0.0,0.0,0.0,0.0,0.0,0.0,1.1271,1.1067,1.0829,1.0572,1.0457,1.039,1.0351,1.0322,1.0351,1.0438,1.039,1.0341,1.0302,1.0351,1.0351,1.0351,1.04,1.0467,1.0534,1.0687,1.084,1.1029,1.1314,1.1612,1.1932,1.2294,1.2685,1.3057,1.3446,1.3861,1.4337,1.4655,1.4966,1.5329,1.5463,1.558,1.577,1.5668,1.5566,1.5418,1.5208,1.498,1.4672,1.442,1.4163,1.3914,1.3848,1.3769,1.3752,1.4572,1.5336,1.5477,1.6362,1.724,1.7323,1.7406,1.7419,1.7378,1.7337,1.7323,0.5343,0.6005,0.6505,0.7054,0.7636,0.8134,0.8432,0.8521,0.0,0.0,0.0,0.787,0.7934,0.7964,0.8118,0.8431,0.8724,0.8869,0.9159,0.9558,0.9558,0.9795,1.0205,1.0244,1.0467,1.0802,1.0802,1.1029,1.1404,1.1505,1.1799,1.2271,1.2237,1.243,1.2794,1.2639,1.256,1.2652,1.2901,1.2728,1.2257,1.3459,1.4044,1.387,1.5137,1.5624,1.5268,1.498,1.4624,1.4181,1.3749,1.331,1.2908,1.2473,1.2029,1.1627,1.1282,1.1019,1.0802,1.0611,1.0495,1.0428,1.039,1.0361,1.0322,1.0322,1.0322,1.0371,1.04,1.0457,1.0457,1.0534,1.0649,1.0753,1.0878,1.104,1.1292,1.1542,1.1836,1.215,1.2544,1.2943,1.3365,1.3728,1.4124,1.4515,1.4828,1.5134,1.5389,1.5522,1.561,1.577,1.5697,1.5624,1.5522,1.5374,1.5147,1.4918,1.4718,1.447,1.4181,1.4098,1.4046,1.3908,1.4822,1.5541,1.5801,1.6756,1.7585,1.7787,1.7895,1.7949,1.8003,1.7841,1.7828,0.653,0.7023,0.7368,0.7696,0.8076,0.8691,0.925,0.9591,0.8884,0.8667,0.8773,0.8814,0.8896,0.8996,0.9073,0.9328,0.9616,0.9815,1.0089,0.0,1.0611,1.0802,1.1019,1.1217,1.1394,1.1627,1.1689,1.1872,1.2222,1.2354,1.2661,1.3123,1.3498,1.3581,1.3347,1.2637,1.2334,1.2522,1.2585,1.2569,1.2546,1.3664,1.4247,1.4197,1.5246,1.5697,1.5448,1.5149,1.4828,1.447,1.4059,1.3661,1.3251,1.2826,1.2449,1.2041,1.1689,1.1383,1.1142,1.0964,1.0774,1.0582,1.0582,1.0467,1.0322,1.0351,1.0428,1.0535,1.0554,1.0572,1.0649,1.0677,1.084,1.1105,1.1142,1.1292,1.1664,1.1932,1.2186,1.2556,1.2931,1.3263,1.3622,1.3986,1.4347,1.4724,1.4929,1.5225,1.5507,1.5668,1.577,1.5814,1.5814,1.5741,1.561,1.5507,1.5374,1.5178,1.5027,1.4814,1.4501,1.4438,1.4388,1.4254,1.5263,1.6005,1.615,1.718,1.7997,1.8201,1.8266,1.8279,1.84,1.8489,1.8553,0.7439,0.7918,0.8192,0.8532,0.8916,0.9697,1.017,1.0448,1.0421,1.0079,0.9509,0.9597,0.9701,0.9753,1.0039,1.0321,1.0583,1.0778,1.1046,1.1356,1.1542,1.1726,1.1945,1.2115,1.2306,1.2425,1.2461,1.2684,1.3,1.317,1.3462,1.3881,1.4234,1.4238,1.3949,1.3711,1.3722,1.3897,1.3047,1.2796,1.3251,1.4076,1.4633,1.4896,1.5683,1.5955,1.5726,1.5389,1.5059,1.4735,1.4337,1.396,1.3581,1.3254,1.2908,1.2508,1.2222,1.1884,1.1616,1.1244,1.0992,1.0802,1.0764,1.0725,1.0659,1.0544,1.0592,1.0738,1.0784,1.0878,1.0943,1.1094,1.1282,1.1505,1.1627,1.1811,1.2066,1.2318,1.2615,1.2918,1.3276,1.3532,1.351,1.3812,1.3954,1.4069,1.45,1.5138,1.5666,1.5841,1.5885,1.5799,1.5814,1.5799,1.5697,1.5639,1.5522,1.5388,1.5284,1.5104,1.4845,1.4783,1.4704,1.4675,1.5638,1.6418,1.66,1.7669,1.8422,1.8707,1.8731,1.8745,1.8836,1.9011,1.9124,0.8303,0.8713,0.8893,0.9251,0.9777,1.0442,1.0889,1.1206,1.1639,1.1373,1.0664,1.058,1.0584,1.0664,1.1023,1.1333,1.1539,1.1746,1.2006,1.2283,1.2472,1.2661,1.2859,1.3032,1.3157,1.3259,1.3293,1.3475,1.3735,1.396,1.4315,1.4715,1.4883,1.4827,1.4703,1.4828,1.5005,1.5072,1.3835,1.3479,1.4112,1.4718,1.5208,1.5589,1.6061,1.6219,1.597,1.5653,1.5315,1.4996,1.4637,1.4268,1.3954,1.3674,1.3357,1.2978,1.2685,1.2365,1.1945,1.1579,1.1282,1.1105,1.1105,1.1105,1.1105,1.0981,1.0937,1.1071,1.1115,1.1207,1.1404,1.1579,1.1774,1.1957,1.2113,1.2282,1.252,1.2768,1.2975,1.3272,1.3544,1.3563,1.3442,1.3552,1.3615,1.3588,1.4216,1.5074,1.5624,1.5874,1.5983,1.5942,1.5885,1.5856,1.5856,1.5784,1.5668,1.561,1.5551,1.5389,1.5195,1.5104,1.5172,1.5233,1.609,1.6933,1.7294,1.8216,1.8985,1.9213,1.9199,1.925,1.9236,1.942,1.9566,0.9128,0.9232,0.9455,0.9852,1.0379,1.0493,1.1107,1.1944,1.198,1.2237,1.2495,1.1995,1.1788,1.1872,1.2056,1.2295,1.2489,1.2738,1.2985,1.3204,1.3462,1.3596,1.3729,1.3907,1.3986,1.4006,1.4168,1.4315,1.4533,1.4769,1.5226,1.5762,1.5682,1.5702,1.5789,1.5468,1.533,1.5378,1.4811,1.4718,1.5151,1.5698,1.5947,1.5847,1.6269,1.6409,1.6151,1.5839,1.5551,1.5268,1.4918,1.4606,1.4351,1.404,1.3728,1.3446,1.3069,1.265,1.215,1.192,1.1811,1.1726,1.17,1.17,1.17,1.1774,1.1712,1.1656,1.1575,1.1689,1.1957,1.2029,1.2174,1.2425,1.2532,1.2685,1.299,1.3173,1.3327,1.3524,1.3515,1.3374,1.3436,1.336,1.3438,1.3719,1.4399,1.5076,1.5392,1.586,1.6207,1.6166,1.6067,1.5996,1.5968,1.5968,1.5926,1.5856,1.5799,1.5668,1.5507,1.5477,1.5475,1.5997,1.6786,1.7539,1.8185,1.8977,1.9515,1.9617,1.9654,1.9654,1.9741,1.9848,1.9869,0.997,1.0071,1.0197,1.0441,1.0754,1.1071,1.1648,1.241,1.2703,1.3205,1.3723,1.3504,1.3187,1.2798,1.3017,1.3246,1.3494,1.3717,1.3914,1.4141,1.4379,1.4519,1.4582,1.4769,1.4876,1.4876,1.4984,1.5121,1.5315,1.5666,1.6117,1.656,1.6636,1.6766,1.6915,1.6792,1.6773,1.6876,1.6686,1.666,1.6696,1.6298,1.6249,1.6637,1.6655,1.6554,1.6316,1.6024,1.574,1.5463,1.5208,1.4918,1.4704,1.442,1.413,1.3868,1.3399,1.2953,1.2544,1.2389,1.2282,1.2186,1.2186,1.221,1.2246,1.2389,1.2508,1.2484,1.2294,1.2246,1.2473,1.2638,1.2801,1.2941,1.3079,1.3263,1.3446,1.3622,1.3842,1.4011,1.3823,1.3584,1.3359,1.2881,1.3017,1.3761,1.4467,1.4943,1.567,1.6184,1.6432,1.649,1.6448,1.6313,1.6179,1.6123,1.6111,1.6083,1.6011,1.5926,1.5871,1.6144,1.6367,1.6588,1.7498,1.8235,1.8665,1.9366,1.9919,2.001,2.0045,2.008,2.0135,2.0204,2.0289,1.0736,1.0855,1.0954,1.1038,1.1165,1.1717,1.231,1.2926,1.3486,1.41,1.4679,1.4783,1.4509,1.4028,1.4049,1.4201,1.4432,1.4637,1.4847,1.5016,1.5226,1.533,1.5433,1.5551,1.5624,1.5638,1.571,1.5838,1.6062,1.647,1.6876,1.7167,1.7384,1.7555,1.7732,1.78,1.7866,1.7971,1.7971,1.7944,1.7754,1.6976,1.6739,1.7174,1.7043,1.6805,1.6517,1.6246,1.5996,1.5755,1.5477,1.5224,1.5074,1.4783,1.4515,1.4195,1.3735,1.3331,1.3082,1.2931,1.2826,1.272,1.2743,1.2779,1.2849,1.3022,1.3229,1.3297,1.3113,1.3057,1.3035,1.3263,1.3421,1.3488,1.3669,1.3815,1.3881,1.413,1.4401,1.4564,1.4322,1.3853,1.3359,1.2855,1.2891,1.3798,1.4484,1.5042,1.6024,1.6475,1.6712,1.6789,1.6789,1.6644,1.6409,1.6355,1.6344,1.6289,1.6262,1.6179,1.6169,1.6618,1.7167,1.7333,1.8366,1.9101,1.9492,2.002,2.0289,2.0407,2.0426,2.046,2.0512,2.0613,2.0728,1.1341,1.149,1.1615,1.1659,1.1726,1.2371,1.2986,1.3576,1.4256,1.4889,1.5389,1.5492,1.5609,1.5593,1.5211,1.5075,1.5197,1.5477,1.5651,1.5766,1.5953,1.608,1.6176,1.6176,1.6176,1.6188,1.6285,1.6528,1.6834,1.7109,1.7368,1.7589,1.7816,1.7992,1.8086,1.8146,1.8184,1.8187,1.8138,1.8091,1.8053,1.781,1.7574,1.7408,1.7264,1.7043,1.6789,1.6517,1.6274,1.6083,1.5755,1.5551,1.5448,1.5165,1.4797,1.4415,1.4072,1.3828,1.3682,1.3547,1.3446,1.3446,1.3501,1.3547,1.3535,1.3735,1.3868,1.3954,1.4065,1.4026,1.3769,1.3835,1.3901,1.4,1.4144,1.4287,1.4351,1.4606,1.4916,1.509,1.4804,1.4236,1.3482,1.3346,1.3477,1.3981,1.4888,1.5815,1.6088,1.6604,1.6944,1.7018,1.6977,1.6901,1.6722,1.6659,1.6633,1.6581,1.6517,1.6472,1.6576,1.683,1.7421,1.8084,1.8965,1.9696,2.0244,2.0545,2.0662,2.0777,2.0827,2.0877,2.0909,2.1071,2.1167,1.1897,1.2024,1.2102,1.2185,1.2308,1.2929,1.3551,1.4175,1.4817,1.5465,1.6001,1.6105,1.6188,1.6324,1.6266,1.6157,1.5978,1.6133,1.6297,1.6459,1.6565,1.6644,1.6696,1.6773,1.6783,1.6783,1.6901,1.7109,1.7432,1.7641,1.7839,1.7997,1.8205,1.8365,1.8391,1.8448,1.845,1.8448,1.8385,1.8304,1.8163,1.8091,1.7939,1.7658,1.7392,1.715,1.6942,1.6659,1.6463,1.6274,1.5996,1.5826,1.5797,1.5433,1.5104,1.4766,1.456,1.4351,1.4124,1.4065,1.4032,1.3888,1.4032,1.413,1.4149,1.4324,1.4479,1.4556,1.4746,1.4794,1.4735,1.456,1.4465,1.4574,1.4637,1.4746,1.4902,1.5072,1.5284,1.5389,1.5169,1.4791,1.4397,1.4257,1.4527,1.5056,1.5671,1.6205,1.6661,1.706,1.7264,1.7296,1.732,1.7296,1.7248,1.7018,1.6892,1.685,1.6821,1.703,1.7214,1.7748,1.8352,1.8997,1.9799,2.0321,2.0877,2.0958,2.1087,2.1119,2.1183,2.123,2.1309,2.1402,2.1495,1.2392,1.2506,1.2581,1.2771,1.3138,1.3746,1.4411,1.508,1.5742,1.6247,1.6612,1.6664,1.6716,1.685,1.7002,1.7002,1.6815,1.6799,1.685,1.6993,1.7076,1.715,1.724,1.7272,1.732,1.7344,1.7469,1.7647,1.7827,1.8057,1.8222,1.8293,1.8489,1.8622,1.8678,1.8697,1.8679,1.8678,1.8601,1.8448,1.8345,1.826,1.8134,1.7922,1.7625,1.7327,1.7101,1.6892,1.6686,1.6517,1.6328,1.6136,1.6011,1.574,1.5418,1.5134,1.5027,1.4856,1.4651,1.4578,1.4533,1.4406,1.4547,1.4728,1.4973,1.5202,1.5441,1.571,1.5908,1.6019,1.5785,1.5589,1.5348,1.519,1.5102,1.5163,1.5314,1.5477,1.5667,1.5862,1.5639,1.5366,1.5245,1.524,1.5531,1.6118,1.6407,1.6842,1.7221,1.7384,1.7472,1.7526,1.7526,1.7502,1.7479,1.7329,1.7224,1.7175,1.714,1.7429,1.7958,1.8567,1.9228,1.9917,2.0524,2.1052,2.1309,2.1402,2.1433,2.1464,2.1526,2.157,2.1648,2.1708,2.1963,1.2836,1.2908,1.2961,1.3446,1.4131,1.4791,1.5581,1.6264,1.6922,1.7175,1.7199,1.719,1.7238,1.7368,1.7408,1.7502,1.7579,1.7462,1.7408,1.7408,1.7526,1.7618,1.7687,1.7693,1.7732,1.7811,1.7954,1.8044,1.8149,1.8351,1.8489,1.8548,1.8717,1.8825,1.8895,1.8895,1.8895,1.886,1.8734,1.862,1.8561,1.8408,1.8284,1.8172,1.7932,1.7636,1.732,1.7175,1.7002,1.6815,1.6659,1.6463,1.6179,1.5998,1.577,1.5536,1.5389,1.5269,1.5178,1.5088,1.5058,1.5113,1.5176,1.5601,1.6174,1.6386,1.6718,1.7292,1.7537,1.7496,1.7015,1.6955,1.6533,1.5699,1.5551,1.5566,1.5668,1.5826,1.6136,1.6396,1.6171,1.5959,1.6115,1.619,1.6324,1.6608,1.7019,1.7392,1.7532,1.7589,1.7629,1.7612,1.7635,1.7675,1.7669,1.7622,1.7586,1.7548,1.751,1.7658,1.8451,1.9088,1.9809,2.0521,2.1038,2.1554,2.1631,2.1691,2.1721,2.1751,2.1811,2.194,2.2165,2.2375,2.2698,1.3176,1.3244,1.3295,1.3786,1.4603,1.5333,1.6044,1.6829,1.744,1.7692,1.7693,1.7664,1.7703,1.776,1.7839,1.791,1.798,1.8001,1.7954,1.7839,1.791,1.798,1.8061,1.8103,1.8166,1.8266,1.8328,1.841,1.8528,1.866,1.8734,1.8789,1.893,1.8998,1.9031,1.9084,1.9084,1.9033,1.8931,1.8843,1.8732,1.8584,1.8448,1.8266,1.8146,1.7958,1.7732,1.7415,1.7183,1.7076,1.6917,1.667,1.6421,1.6274,1.6123,1.5883,1.5797,1.5682,1.5522,1.561,1.5862,1.6158,1.6368,1.6773,1.7407,1.759,1.779,1.8129,1.8192,1.813,1.8144,1.8142,1.7542,1.6104,1.5926,1.6026,1.6065,1.6313,1.6581,1.6773,1.6783,1.684,1.6967,1.7044,1.708,1.7188,1.7484,1.7647,1.7726,1.7822,1.7833,1.7856,1.7867,1.8132,1.8397,1.8576,1.8596,1.8507,1.8393,1.8444,1.9121,1.9673,2.0388,2.1028,2.1578,2.1836,2.1911,2.194,2.1957,2.1957,2.1986,2.2312,2.2786,2.311,2.3304,1.3509,1.3592,1.3641,1.4293,1.5297,1.5819,1.66,1.7502,1.7938,1.8117,1.8082,1.8045,1.808,1.8103,1.8201,1.8246,1.8293,1.841,1.8388,1.8304,1.8287,1.833,1.8391,1.8487,1.8565,1.8641,1.8677,1.8752,1.8843,1.8913,1.9,1.9051,1.9166,1.9198,1.918,1.9214,1.9232,1.9166,1.9102,1.8984,1.8878,1.877,1.8623,1.845,1.833,1.8225,1.7997,1.7726,1.7479,1.7296,1.7101,1.6901,1.667,1.6581,1.6557,1.6598,1.662,1.6611,1.668,1.6876,1.6982,1.7379,1.7516,1.7884,1.8501,1.878,1.889,1.9233,1.9421,1.9388,1.9273,1.927,1.8625,1.7427,1.6943,1.669,1.6622,1.6722,1.6901,1.7035,1.7166,1.7361,1.7502,1.7572,1.7618,1.7704,1.7772,1.7816,1.7929,1.82,1.8307,1.8557,1.8859,1.912,1.9403,1.9532,1.9627,1.9561,1.9445,1.963,2.0054,2.0377,2.0888,2.1461,2.2003,2.2061,2.2135,2.2175,2.2175,2.2175,2.2192,2.2615,2.3056,2.3386,2.3762,1.3791,1.3918,1.3918,1.4841,1.616,1.6319,1.7117,1.8353,1.8508,1.8485,1.8428,1.836,1.8378,1.8408,1.8485,1.8544,1.8603,1.8678,1.877,1.8752,1.8715,1.8697,1.8716,1.8825,1.8896,1.8913,1.8984,1.9035,1.9102,1.9186,1.9251,1.928,1.9341,1.9372,1.9323,1.9305,1.9311,1.9264,1.9182,1.9084,1.9001,1.8948,1.8807,1.8641,1.8545,1.8408,1.8225,1.8053,1.7833,1.7549,1.7296,1.7175,1.7032,1.6914,1.7194,1.7606,1.7685,1.7911,1.8354,1.8293,1.8418,1.8559,1.8652,1.8965,1.9657,1.9862,2.0114,2.0639,2.091,2.0844,2.0358,2.0289,1.9946,1.9313,1.8278,1.7535,1.7014,1.7052,1.7158,1.728,1.7439,1.7572,1.7687,1.7749,1.7816,1.7917,1.8029,1.8188,1.8391,1.8778,1.9155,1.9453,1.9757,2.0078,2.0312,2.0377,2.0506,2.0858,2.0679,2.0721,2.0853,2.1069,2.1362,2.1911,2.2225,2.231,2.2321,2.2332,2.2388,2.2415,2.2596,2.2942,2.3391,2.3876,2.4574,1.4091,1.4105,1.4132,1.5042,1.6402,1.6527,1.7425,1.8771,1.8825,1.877,1.8769,1.8752,1.8715,1.8714,1.8769,1.8824,1.8843,1.8949,1.9018,1.9104,1.9134,1.9048,1.9016,1.9067,1.9152,1.918,1.9212,1.9243,1.9305,1.9383,1.9427,1.9446,1.9475,1.9475,1.9442,1.9402,1.939,1.936,1.9298,1.9216,1.9135,1.9069,1.8966,1.8825,1.8733,1.8637,1.8426,1.8197,1.7944,1.7664,1.7486,1.7649,1.7962,1.7941,1.8146,1.8607,1.8712,1.8731,1.8879,1.8959,1.9228,1.9709,1.9771,2.0166,2.0875,2.0939,2.1146,2.1448,2.1526,2.1521,2.1368,2.1348,2.1048,2.0339,1.9132,1.8055,1.7445,1.732,1.7415,1.7502,1.7635,1.7749,1.7816,1.7922,1.8,1.8168,1.8503,1.8947,1.9191,1.976,2.0269,2.0331,2.058,2.0912,2.1153,2.1219,2.1497,2.2039,2.197,2.1721,2.1737,2.1735,2.2014,2.2388,2.2405,2.246,2.2487,2.2497,2.2525,2.2605,2.2718,2.3013,2.4112,2.4826,2.561,1.4288,1.4301,1.4277,1.5233,1.6631,1.6737,1.7627,1.8917,1.9102,1.9034,1.9036,1.9002,1.8966,1.8932,1.8984,1.9018,1.9052,1.917,1.9248,1.9292,1.9398,1.938,1.9301,1.932,1.9383,1.9456,1.9456,1.9481,1.9523,1.955,1.9582,1.9614,1.9596,1.9601,1.9574,1.9522,1.945,1.9402,1.936,1.9314,1.9251,1.9202,1.912,1.9091,1.9165,1.9358,1.9462,1.9338,1.8943,1.8421,1.8215,1.8399,1.8942,1.8982,1.918,1.9727,1.9764,1.9878,2.0143,2.0221,2.0446,2.0806,2.0964,2.1174,2.1529,2.1675,2.1781,2.1823,2.1915,2.1961,2.1974,2.202,2.168,2.1032,2.0114,1.9127,1.8102,1.8081,1.7967,1.7867,1.7839,1.7944,1.7988,1.8091,1.8327,1.865,1.91,1.9565,2.0035,2.0785,2.1344,2.1366,2.1613,2.2019,2.2165,2.2174,2.2126,2.2667,2.2729,2.2522,2.2401,2.2288,2.2417,2.2579,2.2596,2.2623,2.2659,2.2712,2.2764,2.2816,2.2842,2.3276,2.4313,2.5127,2.6018,1.4428,1.4421,1.4439,1.5386,1.6775,1.6958,1.7835,1.9139,1.9329,1.9282,1.9216,1.9148,1.9134,1.9155,1.9184,1.9216,1.9232,1.9375,1.9446,1.9513,1.9628,1.9649,1.958,1.9545,1.9591,1.9694,1.9725,1.9719,1.9745,1.9738,1.977,1.9788,1.9757,1.9732,1.9712,1.9633,1.955,1.9456,1.9416,1.936,1.9314,1.9301,1.931,1.9518,2.0011,2.0439,2.0705,2.0688,2.0234,1.9464,1.9205,1.9401,1.9951,1.9982,2.0287,2.0739,2.0893,2.1126,2.1641,2.1624,2.1799,2.1845,2.189,2.1986,2.2056,2.2084,2.2141,2.2181,2.226,2.2321,2.2321,2.2321,2.2078,2.1649,2.142,2.0688,1.9561,1.9134,1.8864,1.8222,1.8229,1.8254,1.8301,1.8437,1.877,1.9689,2.0086,2.0608,2.1153,2.1821,2.222,2.2349,2.2718,2.3188,2.3189,2.3135,2.3058,2.3151,2.3109,2.2989,2.2865,2.2772,2.2721,2.2747,2.2816,2.2868,2.2902,2.2952,2.302,2.307,2.3119,2.359,2.4222,2.4845,2.5638,1.4648,1.4637,1.4656,1.5562,1.691,1.7096,1.8003,1.9504,1.9541,1.9479,1.9383,1.9331,1.9338,1.9329,1.9353,1.9398,1.9442,1.9578,1.9681,1.9794,1.9825,1.9889,1.9862,1.9774,1.98,1.9866,1.9858,1.9889,1.9919,1.99,1.9949,1.9949,1.9896,1.9861,1.9837,1.9738,1.9628,1.9555,1.9471,1.9402,1.9393,1.9405,1.9685,2.022,2.0826,2.1129,2.1155,2.1043,2.1106,2.1148,2.0685,2.0504,2.0952,2.1002,2.1278,2.1714,2.1905,2.2051,2.2215,2.2276,2.2304,2.2343,2.2371,2.2415,2.247,2.248,2.2508,2.2561,2.2605,2.2605,2.2605,2.2605,2.2512,2.2366,2.2375,2.215,2.1295,2.0515,1.986,1.9364,1.9187,1.9251,1.9324,1.9366,1.9835,2.0643,2.1203,2.1726,2.2275,2.2823,2.2991,2.3099,2.3279,2.3576,2.3549,2.3481,2.3435,2.3412,2.3389,2.3389,2.3271,2.3151,2.3084,2.3077,2.3052,2.3102,2.3151,2.3223,2.3295,2.3336,2.3419,2.3762,2.4201,2.476,2.5398,1.4804,1.4794,1.4785,1.572,1.7034,1.7209,1.8143,1.9487,1.9692,1.9647,1.9569,1.955,1.9541,1.955,1.9541,1.9582,1.9655,1.9745,1.9835,1.9915,1.9936,1.999,2.0069,2.001,1.9998,1.9981,2.0,2.0019,2.0048,2.0048,2.0029,2.0048,1.9977,1.9936,1.9926,1.9842,1.9763,1.9699,1.9569,1.9471,1.945,1.9795,2.0523,2.1386,2.1916,2.2111,2.2506,2.2395,2.2486,2.2558,2.2194,2.1857,2.203,2.1988,2.2165,2.2412,2.2515,2.2542,2.2579,2.2623,2.2676,2.2738,2.2755,2.279,2.2799,2.2825,2.2807,2.2876,2.2893,2.2893,2.2893,2.2893,2.2893,2.2944,2.2977,2.2877,2.2487,2.1744,2.0929,2.039,2.0192,2.0255,2.0321,2.0385,2.0856,2.1613,2.1898,2.2427,2.3007,2.3485,2.3617,2.3689,2.3726,2.3792,2.3768,2.3725,2.3642,2.362,2.3602,2.3642,2.3598,2.3508,2.3435,2.3389,2.3319,2.3365,2.3435,2.3499,2.3549,2.3576,2.3692,2.3911,2.4204,2.4644,2.5398,1.493,1.493,1.4904,1.5781,1.7024,1.7267,1.8178,1.9475,1.9794,1.9801,1.9738,1.972,1.9726,1.9732,1.9726,1.9782,1.983,1.9881,1.9969,2.003,2.004,2.0098,2.0192,2.0192,2.0173,2.0125,2.0107,2.0117,2.0117,2.0107,2.0117,2.0117,2.006,2.003,1.9991,1.9936,1.9884,1.9813,1.9694,1.9582,1.9648,2.0203,2.1248,2.2447,2.2922,2.3174,2.3571,2.3593,2.3653,2.3721,2.3526,2.3319,2.3077,2.285,2.2764,2.2773,2.2842,2.2868,2.2919,2.297,2.302,2.307,2.307,2.3095,2.3126,2.3091,2.3091,2.3151,2.3168,2.3168,2.3168,2.3193,2.3217,2.3247,2.3271,2.3319,2.33,2.278,2.2087,2.1369,2.1242,2.1325,2.1386,2.1464,2.2008,2.2501,2.2767,2.3063,2.3628,2.3976,2.3996,2.4032,2.3994,2.3971,2.3948,2.3894,2.3813,2.3813,2.3816,2.3816,2.3834,2.3771,2.3664,2.3594,2.3571,2.3616,2.366,2.3703,2.375,2.3816,2.3852,2.3958,2.4218,2.4532,2.5266,1.5076,1.5068,1.5019,1.5538,1.6413,1.7141,1.8001,1.8909,1.9677,1.993,1.987,1.987,1.987,1.987,1.987,1.9896,1.9979,2.003,2.0108,2.0155,2.0164,2.0218,2.026,2.0277,2.0265,2.0262,2.023,2.0188,2.0188,2.018,2.018,2.0171,2.0173,2.0126,2.0079,2.0001,1.9958,1.99,1.9794,1.9688,1.9782,2.0459,2.1567,2.3031,2.3566,2.3895,2.4002,2.3976,2.3855,2.3837,2.3732,2.3646,2.3513,2.3277,2.3151,2.3102,2.3126,2.3175,2.3247,2.3313,2.336,2.3383,2.3407,2.3407,2.3412,2.3394,2.3394,2.343,2.3471,2.343,2.343,2.3476,2.3504,2.3549,2.3576,2.3624,2.3631,2.3491,2.3169,2.2422,2.2373,2.2375,2.2417,2.2493,2.2841,2.3208,2.3431,2.358,2.3892,2.4075,2.4113,2.415,2.4168,2.4165,2.4142,2.4051,2.3976,2.3976,2.3978,2.3978,2.3978,2.3958,2.3915,2.3834,2.3792,2.3831,2.3873,2.3915,2.3937,2.3978,2.3978,2.3958,2.418,2.444,2.4732,1.5101,1.5113,1.5066,1.5541,1.6364,1.7193,1.8003,1.8812,1.9649,2.0029,2.0029,2.0,2.0,2.001,2.0,2.004,2.0098,2.0182,2.0235,2.026,2.0269,2.0265,2.0304,2.0292,2.0306,2.0287,2.0265,2.0262,2.0265,2.0269,2.026,2.026,2.0225,2.0169,2.0143,2.0088,2.004,1.9988,1.99,1.9806,1.9869,2.0765,2.22,2.3433,2.4044,2.4247,2.4228,2.4134,2.4057,2.4037,2.3996,2.3937,2.3876,2.3771,2.3576,2.3445,2.3445,2.3486,2.3553,2.3576,2.362,2.3642,2.366,2.366,2.3642,2.3624,2.366,2.3797,2.3783,2.3747,2.3768,2.3789,2.381,2.3852,2.3894,2.3917,2.3958,2.4018,2.3744,2.3394,2.3376,2.3358,2.347,2.3581,2.371,2.3913,2.4097,2.4153,2.4191,2.4191,2.4228,2.4228,2.4247,2.4265,2.4263,2.4208,2.4134,2.4134,2.4115,2.4115,2.4135,2.4115,2.4115,2.4096,2.4077,2.4037,2.4056,2.4075,2.4114,2.4115,2.4135,2.4153,2.4172,2.4319,2.4651,1.4979,1.5114,1.5114,1.5516,1.6263,1.7221,1.7972,1.8701,1.9685,2.0144,2.0144,2.0144,2.0144,2.0144,2.0143,2.0169,2.0222,2.03,2.0323,2.0311,2.0318,2.0313,2.0314,2.0308,2.0321,2.0366,2.0328,2.0295,2.0292,2.0289,2.0292,2.0292,2.0246,2.0211,2.0195,2.0152,2.0126,2.0069,1.9998,1.9941,2.0383,2.141,2.2781,2.4094,2.4353,2.441,2.4357,2.4321,2.4248,2.4248,2.4229,2.421,2.4172,2.4171,2.4037,2.3821,2.3777,2.3774,2.3816,2.3855,2.3894,2.3894,2.3896,2.3876,2.3858,2.3878,2.3937,2.418,2.4127,2.4036,2.4018,2.4056,2.4095,2.4152,2.4153,2.4172,2.421,2.4248,2.4284,2.4137,2.4229,2.4174,2.4082,2.4045,2.4063,2.4082,2.4266,2.4284,2.4302,2.4302,2.4302,2.4302,2.4321,2.4339,2.4358,2.434,2.4284,2.4266,2.4266,2.4266,2.4266,2.4284,2.4284,2.4284,2.4303,2.4266,2.4247,2.4247,2.4247,2.4284,2.4321,2.4321,2.4284,2.4321,2.4524,1.4545,1.519,1.5199,1.5251,1.5598,1.7023,1.7722,1.8054,1.9588,2.0273,2.0257,2.0277,2.0277,2.0265,2.0277,2.0299,2.0313,2.0353,2.0392,2.0399,2.0379,2.0392,2.0396,2.0383,2.0404,2.0448,2.0413,2.0347,2.0334,2.0318,2.0296,2.0296,2.0281,2.0265,2.0219,2.0195,2.018,2.0098,2.0088,2.0348,2.0915,2.1757,2.2642,2.354,2.4145,2.4505,2.451,2.4495,2.4442,2.4389,2.4372,2.4372,2.4355,2.4355,2.4373,2.4265,2.4154,2.4074,2.4113,2.4114,2.4114,2.4114,2.4152,2.4133,2.4115,2.4154,2.4228,2.4506,2.4377,2.4266,2.4284,2.4303,2.4339,2.4357,2.4356,2.4355,2.4391,2.4462,2.4497,2.4528,2.4495,2.4442,2.4368,2.4371,2.4353,2.4372,2.4372,2.4408,2.4408,2.4425,2.4425,2.4425,2.4444,2.4462,2.4481,2.4481,2.4444,2.4425,2.4425,2.4408,2.4425,2.4425,2.4408,2.4408,2.4444,2.4479,2.4462,2.4428,2.441,2.441,2.4444,2.4426,2.4391,2.4464,2.4519,1.407,1.5255,1.5265,1.5265,1.5483,1.7029,1.7744,1.8131,1.9593,2.036,2.0372,2.0339,2.0366,2.036,2.036,2.034,2.0371,2.0427,2.0457,2.0457,2.0443,2.0454,2.0468,2.0463,2.0476,2.0491,2.0482,2.0449,2.0408,2.0334,2.0294,2.0294,2.0299,2.0277,2.0262,2.0265,2.0222,2.0161,2.0184,2.0506,2.1104,2.1587,2.2274,2.3479,2.3879,2.4245,2.4588,2.4704,2.467,2.462,2.462,2.462,2.462,2.462,2.4639,2.462,2.454,2.4442,2.4338,2.4321,2.4321,2.4321,2.4321,2.4284,2.4264,2.4372,2.4498,2.47,2.4605,2.4549,2.453,2.4547,2.4564,2.458,2.4578,2.4669,2.4685,2.4645,2.4676,2.4738,2.4764,2.47,2.4651,2.4604,2.4572,2.4575,2.4575,2.4594,2.4594,2.4594,2.4594,2.4559,2.4594,2.4631,2.4631,2.465,2.4613,2.4575,2.4594,2.4594,2.4578,2.4578,2.4575,2.461,2.4645,2.4679,2.4663,2.4629,2.458,2.4561,2.4559,2.4559,2.4559,2.465,2.4928,1.3659,1.5001,1.5241,1.5315,1.5431,1.6894,1.7635,1.8004,1.9415,2.0205,2.0374,2.0408,2.0427,2.0438,2.0434,2.0425,2.0439,2.0472,2.0495,2.0515,2.05,2.0504,2.0508,2.0499,2.0483,2.0522,2.0503,2.0496,2.0476,2.042,2.0357,2.0328,2.0314,2.0294,2.0299,2.0284,2.0262,2.0219,2.0161,2.0432,2.0908,2.12,2.1935,2.2773,2.3449,2.396,2.4458,2.4823,2.4861,2.4828,2.4828,2.4814,2.4828,2.4865,2.4847,2.4832,2.4785,2.4741,2.462,2.4556,2.4489,2.4489,2.4508,2.4505,2.45,2.4601,2.4719,2.4885,2.4821,2.4783,2.4798,2.4779,2.4779,2.4779,2.4779,2.4926,2.5087,2.5102,2.5206,2.5367,2.5294,2.4929,2.4869,2.4847,2.479,2.4746,2.4749,2.4768,2.4749,2.4749,2.4731,2.4712,2.4731,2.4768,2.4787,2.4787,2.4768,2.4764,2.4749,2.4764,2.476,2.4775,2.479,2.4827,2.4861,2.4875,2.4884,2.4813,2.4753,2.4749,2.4731,2.4731,2.4768,2.4862,2.542,1.3343,1.4249,1.5048,1.5342,1.5375,1.6288,1.7142,1.7835,1.8873,1.9784,2.0437,2.048,2.0476,2.0484,2.0496,2.048,2.0503,2.051,2.0513,2.0513,2.0516,2.0513,2.0516,2.0519,2.0528,2.0572,2.0555,2.0511,2.0506,2.0487,2.0428,2.0399,2.0365,2.0321,2.0295,2.032,2.0306,2.0284,2.0246,2.0214,2.0563,2.09,2.1464,2.1911,2.2999,2.3904,2.3926,2.4643,2.505,2.4987,2.4968,2.4949,2.5,2.5057,2.5038,2.5031,2.5012,2.4975,2.4917,2.4814,2.4756,2.4756,2.4756,2.4771,2.4799,2.4842,2.494,2.5023,2.4993,2.4987,2.4968,2.4981,2.4968,2.5012,2.5145,2.5532,2.5653,2.5628,2.5755,2.6009,2.5869,2.5531,2.5206,2.5177,2.4974,2.4915,2.4888,2.4888,2.4888,2.4888,2.4888,2.4869,2.4888,2.4907,2.4945,2.4945,2.4907,2.4921,2.4934,2.4961,2.4968,2.4968,2.4987,2.5,2.5032,2.5057,2.5069,2.5,2.4947,2.4902,2.4888,2.4888,2.5148,2.5408,2.6151,1.3025,1.3432,1.4798,1.5389,1.5418,1.6283,1.6856,1.7365,1.8651,1.9737,2.049,2.0506,2.05,2.0514,2.0499,2.0501,2.0501,2.0504,2.0538,2.0553,2.055,2.055,2.0555,2.0564,2.0573,2.0594,2.0555,2.0552,2.0566,2.0538,2.0489,2.0441,2.0415,2.0399,2.0371,2.0366,2.0366,2.0353,2.0339,2.0306,2.033,2.0508,2.0993,2.1641,2.2487,2.3505,2.4005,2.4782,2.5079,2.5184,2.5143,2.5143,2.5184,2.5241,2.5252,2.5233,2.5224,2.5224,2.5192,2.5049,2.4929,2.4923,2.4968,2.5006,2.5019,2.5056,2.513,2.516,2.5172,2.5126,2.5126,2.5126,2.5134,2.5249,2.5558,2.6022,2.6312,2.6335,2.6672,2.7078,2.6664,2.6165,2.5838,2.5559,2.5291,2.5068,2.5043,2.5031,2.5012,2.5012,2.5012,2.5012,2.5031,2.5031,2.5069,2.505,2.5031,2.5075,2.5118,2.5111,2.5115,2.5115,2.5115,2.5157,2.5198,2.5209,2.5209,2.5187,2.5134,2.5068,2.5043,2.5012,2.538,2.5939,2.6842,1.285,1.3007,1.4686,1.5409,1.5488,1.6056,1.647,1.6905,1.7956,1.9163,2.0137,2.0354,2.0515,2.0503,2.0505,2.0505,2.0523,2.0543,2.0559,2.0576,2.0593,2.0607,2.0591,2.0594,2.0598,2.0605,2.0605,2.0601,2.0599,2.0554,2.0527,2.0538,2.0542,2.0492,2.0449,2.0432,2.0435,2.0435,2.041,2.0385,2.034,2.0386,2.0534,2.1338,2.2272,2.3064,2.3829,2.4612,2.5288,2.5357,2.5348,2.5348,2.5376,2.5412,2.544,2.5448,2.5429,2.5429,2.5367,2.5254,2.5126,2.5138,2.5141,2.5182,2.5203,2.5224,2.5283,2.5312,2.5303,2.5284,2.5284,2.5293,2.5303,2.5409,2.6073,2.6574,2.7055,2.7267,2.7759,2.8174,2.7566,2.6911,2.6255,2.5898,2.5524,2.528,2.5171,2.516,2.5179,2.516,2.516,2.516,2.516,2.516,2.5179,2.5179,2.5179,2.5231,2.5271,2.5262,2.5264,2.5264,2.5284,2.5322,2.5351,2.5361,2.5361,2.5351,2.5293,2.5222,2.5346,2.5595,2.6113,2.6749,2.7535,1.2774,1.3024,1.463,1.5366,1.539,1.543,1.5918,1.6543,1.6894,1.7909,1.9412,2.0095,2.0466,2.0484,2.0504,2.0504,2.0505,2.0565,2.0585,2.0586,2.0605,2.0604,2.0601,2.0601,2.0605,2.0605,2.0605,2.0605,2.0605,2.0581,2.0578,2.0575,2.0566,2.0536,2.0503,2.05,2.0506,2.0497,2.0425,2.04,2.04,2.041,2.0521,2.0903,2.2144,2.3036,2.3443,2.4717,2.5395,2.5492,2.5466,2.5466,2.5473,2.5531,2.5557,2.5499,2.5499,2.5499,2.5485,2.5429,2.5376,2.535,2.533,2.5339,2.5367,2.5385,2.5401,2.5437,2.5437,2.5464,2.5484,2.5492,2.548,2.5732,2.6378,2.711,2.7609,2.8431,2.8916,2.9078,2.8412,2.7687,2.6873,2.6226,2.5796,2.5532,2.5361,2.5303,2.5313,2.5303,2.5284,2.5293,2.5293,2.5313,2.5303,2.5303,2.5313,2.538,2.5388,2.5378,2.5404,2.5421,2.5448,2.5484,2.5484,2.5464,2.5492,2.5519,2.5812,2.6144,2.6216,2.6477,2.6988,2.7537,2.828,1.2278,1.2902,1.4056,1.4878,1.5352,1.5412,1.5587,1.5917,1.652,1.7645,1.9022,1.9564,2.0021,2.0338,2.0475,2.0455,2.0501,2.0508,2.0531,2.054,2.0582,2.0605,2.0605,2.0605,2.0605,2.0605,2.0605,2.0605,2.0605,2.0604,2.0601,2.0598,2.0598,2.0572,2.0533,2.0516,2.0503,2.0503,2.048,2.0476,2.0476,2.0472,2.0469,2.0527,2.2099,2.2935,2.311,2.4657,2.5396,2.5551,2.5565,2.5546,2.5571,2.5609,2.5615,2.5581,2.5566,2.5566,2.5566,2.5521,2.5505,2.5473,2.5471,2.5459,2.5473,2.5506,2.5518,2.5531,2.5531,2.557,2.5564,2.5556,2.5621,2.59,2.6547,2.7498,2.8268,2.937,3.0069,2.9926,2.946,2.8631,2.7815,2.7173,2.6696,2.6151,2.5967,2.5545,2.5432,2.5451,2.5432,2.5423,2.5423,2.5423,2.5443,2.5432,2.5412,2.5456,2.548,2.5476,2.5498,2.5518,2.5544,2.5544,2.557,2.559,2.5816,2.6158,2.6837,2.72,2.7265,2.7358,2.7749,2.8255,2.8857,1.2012,1.2868,1.3727,1.4601,1.5296,1.5404,1.5385,1.5516,1.6288,1.7313,1.8162,1.8566,1.9204,1.9837,2.0068,2.0332,2.0464,2.0513,2.0506,2.0504,2.0533,2.056,2.0583,2.0585,2.0605,2.0605,2.0605,2.0605,2.0605,2.0605,2.0603,2.0601,2.0601,2.0578,2.0547,2.0538,2.055,2.0547,2.0542,2.0542,2.0542,2.0522,2.0522,2.0893,2.177,2.2728,2.3368,2.43,2.5348,2.5504,2.5621,2.5617,2.5644,2.5664,2.5668,2.5652,2.5632,2.5652,2.5629,2.5629,2.5604,2.5576,2.5565,2.5546,2.5551,2.5571,2.5595,2.5605,2.5604,2.56,2.5595,2.5604,2.5712,2.5999,2.6899,2.7848,2.852,2.9586,3.0541,3.0433,3.0297,2.9494,2.8788,2.8247,2.7692,2.7133,2.6587,2.612,2.564,2.5556,2.5536,2.5529,2.551,2.551,2.5517,2.5524,2.5531,2.5538,2.5551,2.555,2.5549,2.5565,2.559,2.5609,2.5629,2.579,2.6306,2.6826,2.7615,2.8106,2.8252,2.8382,2.8566,2.9052,2.9594,1.1965,1.2826,1.37,1.4494,1.5174,1.5307,1.5349,1.5371,1.6165,1.6592,1.6744,1.7618,1.8349,1.9018,1.9141,1.9521,2.0016,2.0149,2.0126,2.0243,2.0129,2.0297,2.044,2.052,2.058,2.0601,2.0601,2.0599,2.0601,2.0603,2.0605,2.0604,2.0604,2.0583,2.058,2.0578,2.0572,2.0586,2.0582,2.0582,2.0582,2.0579,2.0582,2.0894,2.1518,2.2298,2.302,2.3954,2.4793,2.5281,2.5634,2.5673,2.5693,2.5693,2.5693,2.5693,2.5693,2.5696,2.5696,2.5679,2.5676,2.5645,2.5616,2.5609,2.5617,2.5609,2.5617,2.5625,2.5619,2.5619,2.56,2.5613,2.5644,2.6385,2.7289,2.7982,2.8499,2.9396,3.043,3.0742,3.0723,3.0232,2.9659,2.9136,2.8717,2.8145,2.7488,2.6688,2.6189,2.5626,2.5607,2.5582,2.5582,2.5582,2.5587,2.5587,2.5613,2.5593,2.5595,2.561,2.5624,2.5613,2.5632,2.5652,2.5699,2.6151,2.7242,2.7952,2.8528,2.8902,2.9257,2.9355,2.9523,2.9888,3.0358,1.1083,1.1954,1.2765,1.3594,1.4418,1.5022,1.5259,1.5345,1.5616,1.5965,1.6624,1.6856,1.7437,1.8168,1.8208,1.8431,1.8596,1.8649,1.8617,1.8838,1.9367,1.9558,1.9821,2.0119,2.0412,2.0549,2.0547,2.0529,2.0607,2.0591,2.0599,2.0604,2.0605,2.0605,2.0605,2.0605,2.0604,2.0601,2.0598,2.0597,2.0597,2.0597,2.0597,2.0831,2.1319,2.1964,2.2491,2.3584,2.4386,2.4699,2.5386,2.5661,2.57,2.57,2.5701,2.57,2.5701,2.57,2.57,2.57,2.57,2.57,2.5679,2.5685,2.5673,2.5668,2.5671,2.5659,2.5648,2.565,2.5646,2.5661,2.5657,2.6161,2.7084,2.7854,2.8446,2.9384,3.038,3.0868,3.0868,3.0769,3.0238,3.0199,2.9755,2.9168,2.842,2.7513,2.6656,2.6065,2.5658,2.5634,2.5615,2.5634,2.5615,2.5595,2.5639,2.5663,2.5664,2.5655,2.5662,2.5665,2.5662,2.5938,2.6376,2.7426,2.8711,2.9227,2.9455,3.0025,3.0378,3.0406,3.0489,3.0657,3.0751,1.0689,1.1497,1.198,1.2856,1.3937,1.4472,1.4863,1.5163,1.5241,1.5599,1.6019,1.6043,1.6498,1.721,1.7316,1.7518,1.7943,1.8028,1.8014,1.8173,1.8403,1.8617,1.8983,1.9283,1.9578,1.9868,2.0121,2.0143,2.0416,2.0543,2.0554,2.0557,2.0575,2.0594,2.0594,2.0596,2.0599,2.0604,2.0605,2.0605,2.0605,2.0605,2.0605,2.0703,2.123,2.1465,2.1894,2.3144,2.3476,2.3926,2.4726,2.5152,2.5289,2.5444,2.5679,2.5698,2.5698,2.5698,2.5698,2.5698,2.5698,2.5698,2.5698,2.5702,2.5703,2.5681,2.5699,2.5681,2.5682,2.5702,2.5701,2.5698,2.5696,2.5751,2.6695,2.7655,2.8534,2.9433,3.0136,3.0742,3.0918,3.0898,3.0859,3.0918,3.0722,2.9999,2.912,2.8122,2.7175,2.6334,2.5892,2.5668,2.5671,2.5652,2.5632,2.5619,2.5648,2.5676,2.5685,2.5689,2.5689,2.5808,2.5909,2.6573,2.7354,2.8408,2.9445,2.9936,3.0291,3.0741,3.0898,3.0779,3.0678,3.0767,3.0823,1.0606,1.1277,1.1397,1.2343,1.3704,1.3896,1.4346,1.4986,1.513,1.5215,1.5254,1.5234,1.5703,1.6331,1.6416,1.675,1.7045,1.7184,1.7141,1.7588,1.7707,1.7808,1.7842,1.7972,1.8659,1.8974,1.9211,1.9461,2.0188,2.0431,2.0514,2.0499,2.0558,2.0577,2.0579,2.0579,2.0582,2.0566,2.0575,2.058,2.0601,2.0601,2.0601,2.0601,2.0757,2.0952,2.1557,2.1988,2.2221,2.3019,2.3835,2.441,2.4932,2.5281,2.5593,2.5671,2.5673,2.5671,2.5671,2.5671,2.5668,2.5687,2.5707,2.5673,2.567,2.5699,2.5701,2.5702,2.57,2.5699,2.5701,2.5702,2.5703,2.5898,2.6581,2.7204,2.7731,2.8746,2.976,3.0228,3.0307,3.0404,3.0873,3.0873,3.0873,3.0425,2.9508,2.8416,2.7637,2.6655,2.6062,2.5703,2.5683,2.5685,2.5685,2.5672,2.5679,2.5701,2.5683,2.5703,2.5703,2.5918,2.6191,2.7206,2.832,2.9003,2.9843,3.0291,3.0602,3.0757,3.0873,3.0892,3.0877,3.0879,3.0878,1.0232,1.0481,1.1119,1.2003,1.2958,1.3632,1.399,1.4252,1.4878,1.5089,1.5114,1.5158,1.5266,1.5553,1.5624,1.5842,1.5923,1.6204,1.5906,1.6242,1.6604,1.6898,1.7027,1.7373,1.789,1.8104,1.8341,1.8749,1.9535,2.0083,2.048,2.0513,2.0533,2.0536,2.0542,2.0542,2.0542,2.0522,2.0528,2.0558,2.0582,2.0603,2.0603,2.0603,2.0662,2.0683,2.1154,2.1522,2.1774,2.2294,2.3692,2.458,2.5297,2.5512,2.5609,2.5629,2.5621,2.5617,2.5613,2.5632,2.5628,2.5628,2.5632,2.5617,2.5632,2.5673,2.5703,2.5683,2.5683,2.5683,2.5683,2.5685,2.5744,2.6076,2.6371,2.6661,2.6952,2.8045,2.9213,2.9584,2.9659,3.0049,3.0579,3.0813,3.083,3.0189,2.9116,2.8201,2.7715,2.6926,2.6093,2.5742,2.5702,2.5702,2.5703,2.5683,2.5682,2.5679,2.5675,2.5689,2.5744,2.6527,2.7288,2.8335,2.933,2.9823,3.0196,3.0523,3.0774,3.0833,3.0833,3.0836,3.0833,3.0823,3.0852,1.0105,1.0167,1.0627,1.1273,1.2028,1.2552,1.3138,1.3824,1.4287,1.4694,1.5028,1.5082,1.5127,1.514,1.514,1.5152,1.5176,1.5226,1.5372,1.5529,1.5671,1.5903,1.627,1.6613,1.6928,1.7204,1.7771,1.8338,1.9007,1.9517,1.9895,2.0336,2.0456,2.0508,2.0496,2.0515,2.0496,2.0515,2.0496,2.0519,2.0552,2.0558,2.0547,2.0547,2.057,2.057,2.0664,2.1015,2.1107,2.1662,2.2843,2.4408,2.5143,2.5586,2.561,2.5605,2.56,2.5576,2.5571,2.5565,2.556,2.556,2.5565,2.5551,2.56,2.5652,2.5648,2.5652,2.5642,2.5642,2.5642,2.5642,2.5645,2.584,2.6035,2.625,2.6445,2.6991,2.8372,2.9542,2.964,2.9811,3.0322,3.0806,3.0786,3.0611,2.9441,2.8525,2.7959,2.7179,2.6376,2.5861,2.5868,2.5751,2.5687,2.5685,2.5679,2.5671,2.5762,2.6035,2.6383,2.7491,2.8501,2.9219,2.9808,3.0256,3.063,3.0763,3.0782,3.0806,3.0806,3.0806,3.0782,3.0782,3.0817,1.0082,1.0087,1.0102,1.0488,1.1108,1.1274,1.2167,1.3372,1.3668,1.4198,1.4896,1.503,1.5085,1.5087,1.5107,1.5101,1.5114,1.5152,1.5177,1.5201,1.5262,1.5457,1.5468,1.5497,1.5956,1.6542,1.7127,1.7785,1.8468,1.9021,1.9613,2.0161,2.039,2.0488,2.0488,2.0488,2.0488,2.0468,2.0468,2.0488,2.0487,2.0511,2.0503,2.051,2.0513,2.0513,2.051,2.0506,2.0538,2.1184,2.2221,2.3872,2.5026,2.557,2.557,2.5564,2.5544,2.5512,2.5486,2.5479,2.5479,2.5479,2.5486,2.5512,2.5564,2.5582,2.5585,2.5581,2.558,2.5589,2.5589,2.5589,2.5589,2.5609,2.5749,2.5866,2.6022,2.6197,2.7541,2.9041,2.9372,2.9489,3.0185,3.0691,3.0711,3.0575,3.0088,2.927,2.8394,2.7454,2.6587,2.6244,2.6174,2.6015,2.5757,2.5796,2.5816,2.6041,2.6212,2.6543,2.7069,2.8155,2.9046,2.9635,3.0205,3.0531,3.0667,3.0764,3.0789,3.0769,3.0764,3.0764,3.0764,3.0764,3.0764,1.0022,1.0022,1.0006,1.0114,1.0355,1.0936,1.1765,1.2674,1.3355,1.4088,1.4699,1.4904,1.4963,1.5004,1.503,1.5052,1.5094,1.5114,1.5153,1.5197,1.5195,1.5212,1.5229,1.5254,1.5322,1.5791,1.6331,1.68,1.7592,1.8486,1.9149,1.9418,2.0134,2.032,2.0404,2.0423,2.0429,2.0404,2.0423,2.0423,2.0441,2.0454,2.0506,2.0511,2.0511,2.0511,2.0511,2.0511,2.0473,2.0939,2.1983,2.367,2.4767,2.5444,2.5503,2.5503,2.5476,2.5468,2.5422,2.5426,2.5426,2.5426,2.5426,2.5414,2.5468,2.5495,2.5505,2.5511,2.5538,2.5568,2.5574,2.5579,2.5579,2.5579,2.5676,2.5676,2.5754,2.5987,2.6687,2.7795,2.8534,2.9311,3.0439,3.0711,3.0711,3.0477,3.0089,2.9311,2.8728,2.777,2.6779,2.6532,2.6362,2.6092,2.5775,2.6009,2.612,2.6387,2.6804,2.74,2.8061,2.8845,2.9603,3.0069,3.0341,3.0614,3.0711,3.0711,3.0711,3.0691,3.0711,3.0711,3.0711,3.0711,3.0691]},{"header":{"parameterUnit":"m.s-1","parameterCategory":1,"la1":31.0,"la2":29.5877,"lo1":-88.7671,"lo2":-86.6584,"dy":0.0162,"dx":0.0185,"nx":115,"ny":88,"refTime":"2025-11-12T00:00:00:Z","depth":0,"parameterNumber":3,"parameterNumberName":"V-component_of_WINDS"},"data":[0.0,0.0,0.0,0.0,0.0,0.0,0.0,0.0,0.0,0.0,0.0,0.0,0.0,0.0,0.0,0.0,0.0,0.0,0.0,0.0,0.0,0.0,0.0,0.0,0.0,0.0,0.0,0.0,0.0,0.0,0.0,0.0,0.0,0.0,0.0,0.0,0.0,0.0,0.0,0.0,0.0,0.0,0.0,0.0,0.0,0.0,0.0,0.0,0.0,0.0,0.0,0.0,0.0,0.0,0.0,0.0,0.0,0.0,0.0,0.0,0.0,0.0,0.0,0.0,0.0,0.0,0.0,0.0,0.0,0.0,0.0,0.0,0.0,0.0,0.0,0.0,0.0,0.0,0.0,0.0,0.0,0.0,0.0,0.0,0.0,0.0,0.0,0.0,0.0,0.0,0.0,0.0,0.0,0.0,0.0,0.0,0.0,0.0,0.0,0.0,0.0,0.0,0.0,0.0,0.0,0.0,0.0,0.0,0.0,0.0,0.0,0.0,0.0,0.0,0.0,0.0,0.0,0.0,0.0,0.0,0.0,0.0,0.0,0.0,0.0,0.0,0.0,0.0,0.0,0.0,0.0,0.0,0.0,0.0,0.0,0.0,0.0,0.0,0.0,0.0,0.0,0.0,0.0,0.0,0.0,0.0,0.0,0.0,0.0,0.0,0.0,0.0,0.0,0.0,0.0,0.0,0.0,0.0,0.0,0.0,0.0,0.0,0.0,0.0,0.0,0.0,0.0,0.0,0.0,0.0,0.0,0.0,0.0,0.0,0.0,0.0,0.0,0.0,0.0,0.0,0.0,0.0,0.0,0.0,0.0,0.0,0.0,0.0,0.0,0.0,0.0,0.0,0.0,0.0,0.0,0.0,0.0,0.0,0.0,0.0,0.0,0.0,0.0,0.0,0.0,0.0,0.0,0.0,0.0,0.0,0.0,0.0,0.0,0.0,0.0,0.0,0.0,0.0,0.0,0.0,0.0,0.0,0.0,0.0,0.0,0.0,0.0,0.0,0.0,0.0,0.0,0.0,0.0,0.0,0.0,0.0,0.0,0.0,0.0,0.0,0.0,0.0,0.0,0.0,0.0,0.0,0.0,0.0,0.0,0.0,0.0,0.0,0.0,0.0,0.0,0.0,0.0,0.0,0.0,0.0,0.0,0.0,0.0,0.0,0.0,0.0,0.0,0.0,0.0,0.0,0.0,0.0,0.0,0.0,0.0,0.0,0.0,0.0,0.0,0.0,0.0,0.0,0.0,0.0,0.0,0.0,0.0,0.0,0.0,0.0,0.0,0.0,0.0,0.0,0.0,0.0,0.0,0.0,0.0,0.0,0.0,0.0,0.0,0.0,0.0,0.0,0.0,0.0,0.0,0.0,0.0,0.0,0.0,0.0,0.0,0.0,0.0,0.0,0.0,0.0,0.0,0.0,0.0,0.0,0.0,0.0,0.0,0.0,0.0,0.0,0.0,0.0,0.0,0.0,0.0,0.0,0.0,0.0,0.0,0.0,0.0,0.0,0.0,0.0,0.0,0.0,0.0,0.0,0.0,0.0,0.0,0.0,0.0,0.0,0.0,0.0,0.0,0.0,0.0,0.0,0.0,0.0,0.0,0.0,0.0,0.0,0.0,0.0,0.0,0.0,0.0,0.0,0.0,0.0,0.0,0.0,0.0,0.0,0.0,0.0,0.0,0.0,0.0,0.0,0.0,0.0,0.0,0.0,0.0,0.0,0.0,0.0,0.0,0.0,0.0,0.0,0.0,0.0,0.0,0.0,0.0,0.0,0.0,0.0,0.0,0.0,0.0,0.0,0.0,0.0,0.0,0.0,0.0,0.0,0.0,0.0,0.0,0.0,0.0,0.0,0.0,0.0,0.0,0.0,0.0,0.0,0.0,0.0,0.0,0.0,0.0,0.0,0.0,0.0,0.0,0.0,0.0,0.0,0.0,0.0,0.0,0.0,0.0,0.0,0.0,0.0,0.0,0.0,0.0,0.0,0.0,0.0,0.0,0.0,0.0,0.0,0.0,0.0,0.0,0.0,0.0,0.0,0.0,0.0,0.0,0.0,0.0,0.0,0.0,0.0,0.0,0.0,0.0,0.0,0.0,0.0,0.0,0.0,0.0,0.0,0.0,0.0,0.0,0.0,0.0,0.0,0.0,0.0,0.0,0.0,0.0,0.0,0.0,0.0,0.0,0.0,0.0,0.0,0.0,0.0,0.0,0.0,0.0,0.0,0.0,0.0,0.0,0.0,0.0,0.0,0.0,0.0,0.0,0.0,0.0,0.0,0.0,0.0,0.0,0.0,0.0,0.0,0.0,0.0,0.0,0.0,0.0,0.0,0.0,0.0,0.0,0.0,0.0,0.0,0.0,0.0,0.0,0.0,0.0,0.0,0.0,0.0,0.0,0.0,0.0,0.0,0.0,0.0,0.0,0.0,0.0,0.0,0.0,0.0,0.0,0.0,0.0,0.0,0.0,0.0,0.0,0.0,0.0,0.0,0.0,0.0,0.0,0.0,0.0,0.0,0.0,0.0,0.0,0.0,0.0,0.0,0.0,0.0,0.0,0.0,0.0,0.0,0.0,0.0,0.0,0.0,0.0,0.0,0.0,0.0,0.0,0.0,0.0,0.0,0.0,0.0,0.0,0.0,0.0,0.0,0.0,0.0,0.0,0.0,0.0,0.0,0.0,0.0,0.0,0.0,0.0,0.0,0.0,0.0,0.0,0.0,0.0,0.0,0.0,0.0,0.0,0.0,0.0,0.0,0.0,0.0,0.0,0.0,0.0,0.0,0.0,0.0,0.0,0.0,0.0,0.0,0.0,0.0,0.0,0.0,0.0,0.0,0.0,0.0,0.0,0.0,0.0,0.0,0.0,0.0,0.0,0.0,0.0,0.0,0.0,0.0,0.0,0.0,0.0,0.0,0.0,0.0,0.0,0.0,0.0,0.0,0.0,0.0,0.0,0.0,0.0,0.0,0.0,0.0,0.0,0.0,0.0,0.0,0.0,0.0,0.0,0.0,0.0,0.0,0.0,0.0,0.0,0.0,0.0,0.0,0.0,0.0,0.0,0.0,0.0,0.0,0.0,0.0,0.0,0.0,0.0,0.0,0.0,0.0,0.0,0.0,0.0,0.0,0.0,0.0,0.0,0.0,0.0,0.0,0.0,0.0,0.0,0.0,0.0,0.0,0.0,0.0,0.0,0.0,0.0,0.0,0.0,0.0,0.0,0.0,0.0,0.0,0.0,0.0,0.0,0.0,0.0,0.0,0.0,0.0,0.0,0.0,0.0,0.0,0.0,0.0,0.0,0.0,0.0,0.0,0.0,0.0,0.0,0.0,0.0,0.0,0.0,0.0,0.0,0.0,0.0,0.0,0.0,0.0,0.0,0.0,0.0,0.0,0.0,0.0,0.0,0.0,0.0,0.0,0.0,0.0,0.0,0.0,0.0,0.0,0.0,0.0,0.0,0.0,0.0,0.0,0.0,0.0,0.0,0.0,0.0,0.0,0.0,0.0,0.0,0.0,0.0,0.0,0.0,0.0,0.0,0.0,0.0,0.0,0.0,0.0,0.0,0.0,0.0,0.0,0.0,0.0,0.0,0.0,0.0,0.0,0.0,0.0,0.0,0.0,0.0,0.0,0.0,0.0,0.0,0.0,0.0,0.0,0.0,0.0,0.0,0.0,0.0,0.0,0.0,0.0,0.0,0.0,0.0,0.0,0.0,0.0,0.0,0.0,0.0,0.0,0.0,0.0,0.0,0.0,0.0,0.0,0.0,0.0,0.0,0.0,0.0,0.0,0.0,0.0,0.0,0.0,0.0,0.0,0.0,0.0,0.0,0.0,0.0,0.0,0.0,0.0,0.0,0.0,0.0,0.0,0.0,0.0,0.0,0.0,0.0,0.0,0.0,0.0,0.0,0.0,0.0,0.0,0.0,0.0,0.0,0.0,0.0,0.0,0.0,0.0,0.0,0.0,0.0,0.0,0.0,0.0,0.0,0.0,0.0,0.0,0.0,0.0,0.0,0.0,0.0,0.0,0.0,0.0,0.0,0.0,0.0,0.0,0.0,0.0,0.0,0.0,0.0,0.0,0.0,0.0,0.0,0.0,0.0,0.0,0.0,0.0,0.0,0.0,0.0,0.0,0.0,0.0,0.0,0.0,0.0,0.0,0.0,0.0,0.0,0.0,0.0,0.0,0.0,0.0,0.0,0.0,0.0,0.0,0.0,0.0,0.0,0.0,0.0,0.0,0.0,0.0,0.0,0.0,0.0,0.0,-1.1558,0.0,0.0,0.0,0.0,0.0,0.0,0.0,0.0,0.0,0.0,0.0,0.0,0.0,0.0,0.0,0.0,0.0,0.0,0.0,0.0,0.0,0.0,0.0,0.0,0.0,0.0,0.0,0.0,0.0,0.0,0.0,0.0,0.0,0.0,0.0,0.0,0.0,0.0,0.0,0.0,0.0,0.0,0.0,0.0,0.0,0.0,0.0,0.0,0.0,0.0,0.0,0.0,0.0,0.0,0.0,0.0,0.0,0.0,0.0,0.0,0.0,0.0,0.0,0.0,0.0,0.0,0.0,0.0,0.0,0.0,0.0,0.0,0.0,0.0,0.0,0.0,0.0,0.0,0.0,0.0,0.0,0.0,0.0,0.0,0.0,0.0,0.0,0.0,0.0,0.0,0.0,0.0,0.0,0.0,0.0,0.0,0.0,0.0,0.0,0.0,0.0,0.0,0.0,0.0,0.0,0.0,0.0,0.0,0.0,0.0,-1.2169,-1.252,-1.2725,-1.2424,-1.1645,0.0,0.0,0.0,0.0,0.0,0.0,0.0,0.0,0.0,0.0,0.0,0.0,0.0,0.0,0.0,0.0,0.0,0.0,0.0,0.0,0.0,0.0,0.0,0.0,0.0,0.0,0.0,0.0,0.0,0.0,0.0,0.0,0.0,0.0,0.0,0.0,0.0,0.0,0.0,0.0,0.0,0.0,0.0,0.0,0.0,0.0,0.0,0.0,0.0,0.0,0.0,0.0,0.0,0.0,0.0,0.0,0.0,0.0,0.0,0.0,0.0,0.0,0.0,0.0,0.0,0.0,0.0,0.0,0.0,0.0,0.0,0.0,0.0,0.0,0.0,0.0,0.0,0.0,0.0,0.0,0.0,0.0,0.0,0.0,0.0,0.0,0.0,0.0,0.0,0.0,0.0,0.0,0.0,0.0,0.0,0.0,0.0,0.0,0.0,0.0,0.0,0.0,0.0,0.0,0.0,0.0,0.0,0.0,0.0,0.0,0.0,0.0,-1.2832,-1.2471,-1.1626,0.0,0.0,0.0,0.0,0.0,0.0,0.0,0.0,0.0,0.0,0.0,0.0,0.0,0.0,0.0,0.0,0.0,0.0,0.0,0.0,0.0,0.0,0.0,0.0,0.0,0.0,0.0,0.0,0.0,0.0,0.0,0.0,0.0,0.0,0.0,0.0,0.0,0.0,0.0,0.0,0.0,0.0,0.0,0.0,0.0,0.0,0.0,0.0,0.0,0.0,0.0,0.0,0.0,0.0,0.0,0.0,0.0,0.0,0.0,0.0,0.0,0.0,0.0,0.0,0.0,0.0,0.0,0.0,0.0,0.0,0.0,0.0,0.0,0.0,0.0,0.0,0.0,0.0,0.0,0.0,0.0,0.0,0.0,0.0,0.0,0.0,0.0,0.0,0.0,0.0,0.0,0.0,0.0,0.0,0.0,0.0,0.0,0.0,0.0,0.0,0.0,0.0,0.0,0.0,0.0,0.0,0.0,0.0,0.0,0.0,-1.2421,-1.2676,-1.2822,0.0,-1.1606,0.0,0.0,0.0,0.0,0.0,0.0,0.0,0.0,0.0,0.0,0.0,0.0,0.0,0.0,0.0,0.0,0.0,0.0,0.0,0.0,0.0,0.0,0.0,0.0,0.0,0.0,0.0,0.0,0.0,0.0,0.0,0.0,0.0,0.0,0.0,0.0,0.0,0.0,0.0,0.0,0.0,0.0,0.0,0.0,0.0,0.0,0.0,0.0,0.0,0.0,0.0,0.0,0.0,0.0,0.0,0.0,0.0,0.0,0.0,0.0,0.0,0.0,0.0,0.0,0.0,0.0,0.0,0.0,0.0,0.0,0.0,0.0,0.0,0.0,0.0,0.0,0.0,0.0,0.0,0.0,0.0,0.0,0.0,0.0,0.0,0.0,0.0,0.0,0.0,0.0,0.0,0.0,0.0,0.0,0.0,0.0,0.0,0.0,0.0,0.0,0.0,0.0,0.0,0.0,0.0,0.0,0.0,0.0,0.0,0.0,0.0,-1.2832,-1.2383,-1.1915,0.0,0.0,0.0,0.0,0.0,0.0,0.0,0.0,0.0,0.0,0.0,0.0,0.0,0.0,0.0,0.0,0.0,0.0,0.0,0.0,0.0,0.0,0.0,0.0,0.0,0.0,0.0,0.0,0.0,0.0,0.0,0.0,0.0,0.0,0.0,0.0,0.0,0.0,0.0,0.0,0.0,0.0,0.0,0.0,0.0,0.0,0.0,0.0,0.0,0.0,0.0,0.0,0.0,0.0,0.0,0.0,0.0,0.0,0.0,0.0,0.0,0.0,0.0,0.0,0.0,0.0,0.0,0.0,0.0,0.0,0.0,0.0,0.0,0.0,0.0,0.0,0.0,0.0,0.0,0.0,0.0,0.0,0.0,0.0,0.0,0.0,0.0,0.0,0.0,0.0,0.0,0.0,0.0,0.0,0.0,0.0,0.0,0.0,0.0,0.0,0.0,0.0,0.0,0.0,0.0,0.0,0.0,0.0,0.0,0.0,-1.2316,0.0,-1.2724,-1.2153,-1.1574,-1.1075,0.0,0.0,0.0,0.0,0.0,0.0,0.0,0.0,0.0,0.0,0.0,0.0,0.0,0.0,0.0,0.0,0.0,0.0,0.0,0.0,0.0,0.0,0.0,0.0,0.0,0.0,0.0,0.0,0.0,0.0,0.0,0.0,0.0,0.0,0.0,0.0,0.0,0.0,0.0,0.0,0.0,0.0,0.0,0.0,0.0,0.0,0.0,0.0,0.0,0.0,0.0,0.0,0.0,0.0,0.0,0.0,0.0,0.0,0.0,0.0,0.0,0.0,0.0,0.0,0.0,0.0,0.0,0.0,0.0,0.0,0.0,0.0,0.0,0.0,0.0,0.0,0.0,0.0,0.0,0.0,0.0,0.0,0.0,0.0,0.0,0.0,0.0,0.0,0.0,0.0,0.0,0.0,0.0,0.0,0.0,0.0,0.0,0.0,0.0,0.0,0.0,0.0,0.0,0.0,0.0,0.0,0.0,0.0,0.0,-1.2233,-1.2484,-1.2414,-1.2206,-1.1675,0.0,0.0,0.0,0.0,0.0,0.0,0.0,0.0,0.0,0.0,0.0,0.0,0.0,0.0,0.0,0.0,0.0,0.0,0.0,0.0,0.0,0.0,0.0,0.0,0.0,0.0,0.0,0.0,0.0,0.0,0.0,0.0,0.0,0.0,0.0,0.0,0.0,0.0,0.0,0.0,0.0,0.0,0.0,0.0,0.0,0.0,0.0,0.0,0.0,0.0,0.0,0.0,0.0,0.0,0.0,0.0,0.0,0.0,0.0,0.0,0.0,0.0,0.0,0.0,0.0,0.0,0.0,0.0,0.0,0.0,0.0,0.0,0.0,0.0,0.0,0.0,0.0,0.0,0.0,0.0,0.0,0.0,0.0,0.0,0.0,0.0,0.0,0.0,0.0,0.0,0.0,0.0,0.0,0.0,0.0,0.0,0.0,0.0,0.0,0.0,0.0,0.0,0.0,0.0,0.0,0.0,0.0,0.0,0.0,-1.1668,-1.2464,-1.2671,-1.2314,-1.2218,-1.1695,0.0,0.0,0.0,0.0,0.0,0.0,0.0,0.0,0.0,0.0,0.0,0.0,0.0,0.0,0.0,0.0,0.0,0.0,0.0,0.0,0.0,0.0,0.0,0.0,0.0,0.0,0.0,0.0,0.0,0.0,0.0,0.0,0.0,0.0,0.0,0.0,0.0,0.0,0.0,0.0,0.0,0.0,0.0,0.0,0.0,0.0,0.0,0.0,0.0,0.0,0.0,0.0,0.0,0.0,0.0,0.0,0.0,0.0,0.0,0.0,0.0,0.0,0.0,0.0,0.0,0.0,0.0,0.0,0.0,0.0,0.0,0.0,0.0,0.0,0.0,0.0,0.0,0.0,0.0,0.0,0.0,0.0,0.0,0.0,0.0,0.0,0.0,0.0,0.0,0.0,0.0,0.0,0.0,0.0,0.0,0.0,0.0,0.0,0.0,0.0,0.0,0.0,0.0,0.0,0.0,0.0,0.0,0.0,0.0,-1.2044,0.0,-1.2816,0.0,-1.2297,-1.1792,0.0,0.0,0.0,0.0,0.0,0.0,0.0,0.0,0.0,0.0,0.0,0.0,0.0,0.0,0.0,0.0,0.0,0.0,0.0,0.0,0.0,0.0,0.0,0.0,0.0,0.0,0.0,0.0,0.0,0.0,0.0,0.0,0.0,0.0,0.0,0.0,0.0,0.0,0.0,0.0,0.0,0.0,0.0,0.0,0.0,0.0,0.0,0.0,0.0,0.0,0.0,0.0,0.0,0.0,0.0,0.0,0.0,0.0,0.0,0.0,0.0,0.0,0.0,0.0,0.0,0.0,0.0,0.0,0.0,0.0,0.0,0.0,0.0,0.0,0.0,0.0,0.0,0.0,0.0,0.0,0.0,0.0,0.0,0.0,0.0,0.0,0.0,0.0,0.0,0.0,0.0,0.0,0.0,0.0,0.0,0.0,0.0,0.0,0.0,0.0,0.0,0.0,0.0,0.0,0.0,0.0,0.0,0.0,-1.1517,-1.2812,-1.3074,-1.2878,-1.223,-1.2489,-1.1858,0.0,0.0,0.0,0.0,0.0,0.0,0.0,0.0,0.0,0.0,0.0,0.0,0.0,0.0,0.0,0.0,0.0,0.0,0.0,0.0,0.0,0.0,0.0,0.0,0.0,0.0,0.0,0.0,0.0,0.0,0.0,0.0,0.0,0.0,0.0,0.0,0.0,0.0,0.0,0.0,0.0,0.0,0.0,0.0,0.0,0.0,0.0,0.0,0.0,0.0,0.0,0.0,0.0,0.0,0.0,0.0,0.0,0.0,0.0,0.0,0.0,0.0,0.0,0.0,0.0,0.0,0.0,0.0,0.0,0.0,0.0,0.0,0.0,0.0,0.0,0.0,0.0,0.0,0.0,0.0,0.0,0.0,0.0,0.0,0.0,0.0,0.0,0.0,0.0,0.0,0.0,0.0,0.0,0.0,0.0,0.0,0.0,0.0,0.0,0.0,0.0,0.0,0.0,0.0,0.0,0.0,0.0,0.0,0.0,-1.2513,-1.2739,-1.274,-1.2457,-1.2399,-1.1916,0.0,0.0,0.0,0.0,0.0,0.0,0.0,0.0,0.0,0.0,0.0,0.0,0.0,0.0,0.0,0.0,0.0,0.0,0.0,0.0,0.0,0.0,0.0,0.0,0.0,0.0,0.0,0.0,0.0,0.0,0.0,0.0,0.0,0.0,0.0,0.0,0.0,0.0,0.0,0.0,0.0,0.0,0.0,0.0,0.0,0.0,0.0,0.0,0.0,0.0,0.0,0.0,0.0,0.0,0.0,0.0,0.0,0.0,0.0,0.0,0.0,0.0,0.0,0.0,0.0,0.0,0.0,0.0,0.0,0.0,0.0,0.0,0.0,0.0,0.0,0.0,0.0,0.0,0.0,0.0,0.0,0.0,0.0,0.0,0.0,0.0,0.0,0.0,0.0,0.0,0.0,0.0,0.0,0.0,0.0,0.0,0.0,0.0,0.0,0.0,0.0,0.0,0.0,0.0,0.0,0.0,0.0,0.0,0.0,-1.1841,-1.2297,-1.2428,-1.2381,-1.2312,-1.2016,-1.1365,0.0,0.0,0.0,0.0,0.0,0.0,0.0,0.0,0.0,0.0,0.0,0.0,0.0,0.0,0.0,0.0,0.0,0.0,0.0,0.0,0.0,0.0,0.0,0.0,0.0,0.0,0.0,0.0,0.0,0.0,0.0,0.0,0.0,0.0,0.0,0.0,0.0,0.0,0.0,0.0,0.0,0.0,0.0,0.0,0.0,0.0,0.0,0.0,0.0,0.0,0.0,0.0,0.0,0.0,0.0,0.0,0.0,0.0,0.0,0.0,0.0,0.0,0.0,0.0,0.0,0.0,0.0,0.0,0.0,0.0,0.0,0.0,0.0,0.0,0.0,0.0,0.0,0.0,0.0,0.0,0.0,0.0,0.0,0.0,0.0,0.0,0.0,0.0,0.0,0.0,0.0,0.0,0.0,0.0,0.0,0.0,0.0,0.0,0.0,0.0,0.0,0.0,0.0,0.0,0.0,0.0,0.0,0.0,-1.0971,-1.1671,-1.2017,-1.2023,-1.2335,-1.2144,0.0,0.0,0.0,0.0,0.0,0.0,0.0,0.0,0.0,0.0,0.0,0.0,0.0,0.0,0.0,0.0,0.0,0.0,0.0,0.0,0.0,0.0,0.0,0.0,0.0,0.0,0.0,0.0,0.0,0.0,0.0,0.0,0.0,0.0,0.0,0.0,0.0,0.0,0.0,0.0,0.0,0.0,0.0,0.0,0.0,0.0,0.0,0.0,0.0,0.0,0.0,0.0,0.0,0.0,0.0,0.0,0.0,0.0,0.0,0.0,0.0,0.0,0.0,0.0,0.0,0.0,0.0,0.0,0.0,0.0,0.0,0.0,0.0,0.0,0.0,0.0,0.0,0.0,0.0,0.0,0.0,0.0,0.0,0.0,0.0,0.0,0.0,0.0,0.0,0.0,0.0,0.0,0.0,0.0,0.0,0.0,0.0,0.0,0.0,0.0,0.0,0.0,0.0,0.0,0.0,0.0,0.0,0.0,0.0,-1.0498,-1.1021,-1.1559,-1.2099,-1.2204,-1.2219,0.0,0.0,0.0,0.0,0.0,0.0,0.0,0.0,0.0,0.0,0.0,0.0,0.0,0.0,0.0,0.0,0.0,0.0,0.0,0.0,0.0,0.0,0.0,0.0,0.0,0.0,0.0,0.0,0.0,0.0,0.0,0.0,0.0,0.0,0.0,0.0,0.0,0.0,0.0,0.0,0.0,0.0,0.0,0.0,0.0,0.0,0.0,0.0,0.0,0.0,0.0,0.0,0.0,0.0,0.0,0.0,0.0,0.0,0.0,0.0,0.0,0.0,0.0,0.0,0.0,0.0,0.0,0.0,0.0,0.0,0.0,0.0,0.0,0.0,0.0,0.0,0.0,0.0,0.0,0.0,0.0,0.0,0.0,0.0,0.0,0.0,0.0,0.0,0.0,0.0,0.0,0.0,0.0,0.0,0.0,0.0,0.0,0.0,0.0,0.0,0.0,0.0,0.0,0.0,0.0,0.0,0.0,0.0,-0.9446,-0.9858,-1.022,-1.0808,-1.1663,-1.205,-1.233,0.0,0.0,0.0,0.0,0.0,0.0,0.0,0.0,0.0,0.0,0.0,0.0,0.0,0.0,0.0,0.0,0.0,0.0,0.0,0.0,0.0,0.0,0.0,0.0,0.0,0.0,0.0,0.0,0.0,0.0,0.0,0.0,0.0,0.0,0.0,0.0,0.0,0.0,0.0,0.0,0.0,0.0,0.0,0.0,0.0,0.0,0.0,0.0,0.0,0.0,0.0,0.0,0.0,0.0,0.0,0.0,0.0,0.0,0.0,0.0,0.0,0.0,0.0,0.0,0.0,0.0,0.0,0.0,0.0,0.0,0.0,0.0,0.0,0.0,0.0,0.0,0.0,0.0,0.0,0.0,0.0,0.0,0.0,0.0,0.0,0.0,0.0,0.0,0.0,0.0,0.0,0.0,0.0,0.0,0.0,0.0,0.0,0.0,0.0,0.0,0.0,0.0,0.0,0.0,0.0,0.0,0.0,0.0,-0.8892,-0.9272,-0.9486,-1.001,-1.0955,-1.1861,-1.2472,0.0,0.0,0.0,0.0,0.0,0.0,0.0,0.0,0.0,0.0,0.0,0.0,0.0,0.0,0.0,0.0,0.0,0.0,0.0,0.0,0.0,0.0,0.0,0.0,0.0,0.0,0.0,0.0,0.0,0.0,0.0,0.0,0.0,0.0,0.0,0.0,0.0,0.0,0.0,0.0,0.0,0.0,0.0,0.0,0.0,0.0,0.0,0.0,0.0,0.0,0.0,0.0,0.0,0.0,0.0,0.0,0.0,0.0,0.0,0.0,0.0,0.0,0.0,0.0,0.0,0.0,0.0,0.0,0.0,0.0,0.0,0.0,0.0,0.0,0.0,0.0,0.0,0.0,0.0,0.0,0.0,0.0,0.0,0.0,0.0,0.0,0.0,0.0,0.0,0.0,0.0,0.0,0.0,0.0,0.0,0.0,0.0,0.0,0.0,0.0,0.0,0.0,0.0,0.0,0.0,0.0,0.0,0.0,-0.8809,-0.9217,-0.9313,-0.9841,-1.0805,-1.1503,-1.2185,0.0,0.0,0.0,0.0,0.0,0.0,0.0,0.0,0.0,0.0,0.0,0.0,0.0,0.0,0.0,0.0,0.0,0.0,0.0,0.0,0.0,0.0,0.0,0.0,0.0,0.0,0.0,0.0,0.0,0.0,0.0,0.0,0.0,0.0,0.0,0.0,0.0,0.0,0.0,0.0,0.0,0.0,0.0,0.0,0.0,0.0,0.0,0.0,-1.0687,0.0,0.0,0.0,0.0,0.0,0.0,0.0,0.0,0.0,0.0,0.0,0.0,0.0,0.0,0.0,0.0,0.0,0.0,0.0,0.0,0.0,0.0,0.0,0.0,0.0,0.0,0.0,0.0,0.0,0.0,0.0,0.0,0.0,0.0,0.0,0.0,0.0,0.0,0.0,0.0,0.0,0.0,0.0,0.0,0.0,0.0,0.0,0.0,0.0,0.0,0.0,0.0,0.0,0.0,0.0,0.0,0.0,0.0,0.0,-0.8082,-0.8359,-0.8464,-0.9105,-1.0319,-1.0942,-1.1769,0.0,0.0,0.0,0.0,0.0,0.0,0.0,0.0,0.0,0.0,0.0,0.0,0.0,0.0,0.0,0.0,0.0,0.0,0.0,0.0,0.0,0.0,0.0,0.0,0.0,0.0,0.0,0.0,0.0,0.0,0.0,0.0,0.0,0.0,0.0,0.0,0.0,0.0,0.0,0.0,0.0,0.0,0.0,0.0,0.0,0.0,0.0,0.0,0.0,0.0,0.0,0.0,0.0,0.0,0.0,0.0,0.0,0.0,0.0,0.0,0.0,0.0,0.0,0.0,0.0,0.0,0.0,0.0,0.0,0.0,0.0,0.0,0.0,0.0,0.0,0.0,0.0,0.0,0.0,0.0,0.0,0.0,0.0,0.0,0.0,0.0,0.0,0.0,0.0,0.0,0.0,0.0,0.0,0.0,0.0,0.0,0.0,0.0,0.0,0.0,0.0,0.0,0.0,0.0,0.0,0.0,0.0,-0.736,-0.7281,-0.7401,-0.7488,-0.8289,-0.982,-1.0466,-1.1417,-1.2719,0.0,0.0,0.0,0.0,0.0,0.0,0.0,0.0,0.0,0.0,0.0,0.0,0.0,0.0,0.0,0.0,0.0,0.0,0.0,0.0,0.0,0.0,0.0,0.0,0.0,0.0,0.0,0.0,0.0,0.0,0.0,0.0,0.0,0.0,0.0,0.0,0.0,0.0,-1.0322,-1.0341,0.0,0.0,0.0,0.0,0.0,0.0,0.0,0.0,-1.2792,0.0,0.0,0.0,0.0,0.0,0.0,0.0,0.0,0.0,0.0,0.0,0.0,0.0,0.0,0.0,0.0,0.0,0.0,0.0,0.0,0.0,0.0,0.0,0.0,0.0,0.0,0.0,0.0,0.0,0.0,0.0,0.0,0.0,0.0,0.0,0.0,0.0,0.0,0.0,0.0,0.0,0.0,0.0,0.0,0.0,0.0,0.0,0.0,0.0,0.0,0.0,0.0,0.0,0.0,0.0,0.0,-0.7462,-0.7323,-0.729,-0.732,-0.7336,-0.8126,-0.9755,-1.0391,-1.1328,-1.2637,0.0,0.0,0.0,0.0,0.0,0.0,0.0,0.0,0.0,0.0,0.0,0.0,0.0,0.0,0.0,0.0,0.0,0.0,0.0,0.0,0.0,0.0,0.0,0.0,0.0,0.0,0.0,0.0,0.0,0.0,0.0,0.0,0.0,0.0,0.0,0.0,0.0,0.0,0.0,-1.0351,-1.0457,0.0,0.0,0.0,0.0,0.0,0.0,0.0,0.0,-1.3593,0.0,0.0,0.0,0.0,0.0,0.0,0.0,0.0,0.0,0.0,0.0,0.0,0.0,0.0,0.0,0.0,0.0,0.0,0.0,0.0,0.0,0.0,0.0,0.0,0.0,0.0,0.0,0.0,0.0,0.0,0.0,0.0,0.0,0.0,0.0,0.0,0.0,0.0,0.0,0.0,0.0,0.0,0.0,0.0,0.0,0.0,0.0,0.0,0.0,0.0,0.0,0.0,0.0,0.0,0.0,-0.7168,-0.7084,-0.7001,-0.6897,-0.7136,-0.7938,-0.9309,-1.0224,-1.1219,0.0,0.0,0.0,0.0,0.0,0.0,0.0,0.0,0.0,0.0,0.0,0.0,0.0,0.0,0.0,0.0,0.0,0.0,0.0,0.0,0.0,0.0,0.0,0.0,0.0,0.0,0.0,0.0,0.0,0.0,0.0,0.0,0.0,0.0,0.0,0.0,0.0,0.0,0.0,0.0,-1.0418,-1.0663,-1.1131,0.0,0.0,0.0,0.0,0.0,0.0,-1.4624,-1.4844,0.0,0.0,0.0,0.0,0.0,0.0,0.0,0.0,0.0,0.0,0.0,0.0,0.0,0.0,0.0,0.0,0.0,0.0,0.0,0.0,0.0,0.0,0.0,0.0,0.0,0.0,0.0,0.0,0.0,0.0,0.0,0.0,0.0,0.0,0.0,0.0,0.0,0.0,0.0,0.0,0.0,0.0,0.0,0.0,0.0,0.0,0.0,0.0,0.0,0.0,0.0,0.0,0.0,0.0,0.0,-0.6964,-0.6891,-0.675,-0.6562,-0.6957,-0.7751,-0.889,-1.0069,-1.1101,0.0,0.0,0.0,0.0,0.0,0.0,0.0,0.0,0.0,0.0,0.0,0.0,0.0,0.0,0.0,0.0,0.0,0.0,0.0,0.0,0.0,0.0,0.0,0.0,0.0,0.0,0.0,0.0,0.0,0.0,0.0,0.0,0.0,0.0,0.0,0.0,0.0,0.0,0.0,0.0,0.0,-1.0938,-1.165,-1.22,0.0,0.0,0.0,0.0,-1.5169,-1.5603,0.0,0.0,0.0,0.0,0.0,0.0,0.0,0.0,0.0,0.0,0.0,0.0,0.0,0.0,0.0,0.0,0.0,0.0,0.0,0.0,0.0,0.0,0.0,0.0,0.0,0.0,0.0,0.0,0.0,0.0,0.0,0.0,0.0,0.0,0.0,0.0,0.0,0.0,0.0,0.0,0.0,0.0,0.0,0.0,0.0,0.0,0.0,0.0,0.0,0.0,0.0,0.0,0.0,0.0,0.0,0.0,-0.7152,-0.7181,-0.6975,-0.6637,-0.6987,-0.7751,-0.8849,-1.0058,-1.1133,0.0,0.0,0.0,0.0,0.0,0.0,0.0,0.0,0.0,0.0,0.0,0.0,0.0,0.0,0.0,0.0,0.0,0.0,0.0,0.0,0.0,0.0,0.0,0.0,0.0,0.0,0.0,0.0,0.0,0.0,0.0,0.0,0.0,0.0,0.0,0.0,0.0,0.0,0.0,0.0,0.0,-1.1131,-1.189,-1.2663,-1.3519,0.0,0.0,-1.5947,-1.6176,-1.6269,0.0,0.0,0.0,0.0,0.0,0.0,0.0,0.0,0.0,0.0,0.0,0.0,0.0,0.0,0.0,0.0,0.0,0.0,0.0,0.0,0.0,0.0,0.0,0.0,0.0,0.0,0.0,0.0,0.0,0.0,0.0,0.0,0.0,0.0,0.0,0.0,0.0,0.0,0.0,0.0,0.0,0.0,0.0,0.0,0.0,0.0,0.0,0.0,0.0,0.0,0.0,0.0,0.0,0.0,0.0,-0.7445,-0.7202,-0.7134,-0.695,-0.6729,-0.7077,-0.7656,-0.8466,-0.9953,-1.1002,0.0,0.0,0.0,0.0,0.0,0.0,0.0,0.0,0.0,0.0,0.0,0.0,0.0,0.0,0.0,0.0,0.0,0.0,0.0,0.0,0.0,0.0,0.0,0.0,0.0,0.0,0.0,0.0,0.0,0.0,0.0,0.0,0.0,0.0,0.0,0.0,0.0,0.0,0.0,0.0,0.0,0.0,-1.2516,-1.3089,0.0,0.0,0.0,-1.6219,-1.6436,0.0,0.0,0.0,0.0,0.0,0.0,0.0,0.0,0.0,0.0,0.0,0.0,0.0,0.0,0.0,0.0,0.0,0.0,0.0,0.0,0.0,0.0,0.0,0.0,0.0,0.0,0.0,0.0,0.0,0.0,0.0,0.0,0.0,0.0,0.0,0.0,0.0,0.0,0.0,0.0,0.0,0.0,0.0,0.0,0.0,0.0,0.0,0.0,0.0,0.0,0.0,0.0,0.0,0.0,0.0,0.0,0.0,-0.7524,-0.7366,-0.7187,-0.6889,-0.7184,-0.7647,-0.8226,-0.9826,0.0,0.0,0.0,0.0,0.0,0.0,0.0,0.0,0.0,0.0,0.0,0.0,0.0,0.0,0.0,0.0,0.0,0.0,0.0,0.0,0.0,0.0,0.0,0.0,0.0,0.0,0.0,-1.1529,0.0,0.0,0.0,0.0,0.0,0.0,0.0,0.0,0.0,0.0,0.0,0.0,0.0,0.0,-1.1737,-1.3029,-1.3531,-1.4278,0.0,0.0,-1.6318,-1.6534,-1.6663,-1.6876,0.0,0.0,0.0,0.0,0.0,0.0,0.0,0.0,0.0,0.0,0.0,0.0,0.0,0.0,0.0,0.0,0.0,0.0,0.0,0.0,0.0,0.0,0.0,0.0,0.0,0.0,0.0,0.0,0.0,0.0,0.0,0.0,0.0,0.0,0.0,0.0,0.0,0.0,0.0,0.0,0.0,0.0,0.0,0.0,0.0,0.0,0.0,0.0,0.0,0.0,0.0,0.0,0.0,0.0,0.0,-0.8415,-0.8226,-0.7792,-0.7131,-0.7361,-0.7744,-0.8301,-0.9838,-1.0991,0.0,0.0,0.0,0.0,0.0,0.0,0.0,0.0,0.0,0.0,0.0,0.0,0.0,0.0,0.0,0.0,0.0,0.0,0.0,0.0,0.0,0.0,0.0,0.0,0.0,0.0,0.0,0.0,0.0,0.0,0.0,0.0,0.0,0.0,0.0,0.0,0.0,0.0,0.0,0.0,0.0,-1.2494,-1.3186,-1.4036,-1.492,0.0,0.0,-1.6448,-1.6663,-1.6863,-1.706,-1.7308,0.0,0.0,0.0,0.0,0.0,0.0,0.0,0.0,0.0,0.0,0.0,0.0,0.0,0.0,0.0,0.0,0.0,0.0,0.0,0.0,0.0,0.0,0.0,0.0,0.0,0.0,0.0,0.0,0.0,0.0,0.0,0.0,0.0,0.0,0.0,0.0,0.0,0.0,0.0,0.0,0.0,0.0,0.0,0.0,0.0,0.0,0.0,0.0,0.0,0.0,0.0,0.0,0.0,-0.9312,-0.8931,-0.8489,-0.8052,-0.766,-0.7671,-0.8068,-0.8848,-1.019,-1.1289,0.0,0.0,0.0,0.0,0.0,0.0,0.0,0.0,0.0,0.0,0.0,0.0,0.0,0.0,0.0,0.0,0.0,0.0,0.0,0.0,0.0,0.0,0.0,0.0,0.0,0.0,0.0,0.0,-1.3284,-1.347,-1.4024,0.0,0.0,0.0,0.0,0.0,0.0,0.0,0.0,0.0,0.0,-1.3122,-1.3857,-1.4394,0.0,0.0,-1.6318,-1.6565,-1.6833,-1.7086,-1.7365,-1.7693,-1.7801,0.0,0.0,0.0,0.0,0.0,0.0,0.0,0.0,0.0,0.0,0.0,0.0,0.0,0.0,0.0,0.0,0.0,0.0,0.0,0.0,0.0,0.0,0.0,0.0,0.0,0.0,0.0,0.0,0.0,0.0,0.0,0.0,0.0,0.0,0.0,0.0,0.0,0.0,0.0,0.0,0.0,0.0,0.0,0.0,0.0,0.0,0.0,0.0,0.0,0.0,0.0,0.0,-1.0066,-0.9606,-0.9087,-0.859,-0.8179,-0.8058,-0.8416,-0.9256,-1.0407,-1.1517,0.0,0.0,0.0,0.0,0.0,0.0,0.0,0.0,0.0,0.0,0.0,0.0,0.0,0.0,0.0,0.0,0.0,0.0,0.0,0.0,0.0,0.0,0.0,0.0,0.0,0.0,0.0,0.0,-1.4133,-1.4364,-1.4774,0.0,0.0,0.0,0.0,0.0,0.0,0.0,0.0,0.0,0.0,-1.3864,-1.4464,-1.4865,-1.536,-1.6139,-1.6405,-1.6675,-1.696,-1.7295,-1.7611,-1.8028,0.0,0.0,0.0,0.0,0.0,0.0,0.0,0.0,0.0,0.0,0.0,0.0,0.0,0.0,0.0,0.0,0.0,0.0,0.0,0.0,0.0,0.0,0.0,0.0,0.0,0.0,0.0,0.0,0.0,0.0,0.0,0.0,0.0,0.0,0.0,0.0,0.0,0.0,0.0,0.0,0.0,0.0,0.0,0.0,0.0,0.0,0.0,0.0,0.0,0.0,0.0,0.0,0.0,0.0,-1.0594,-1.0138,-0.9476,-0.8525,-0.8549,-0.8835,-0.9439,-1.0444,-1.1551,-1.269,0.0,0.0,0.0,0.0,0.0,0.0,0.0,0.0,0.0,0.0,0.0,0.0,0.0,0.0,0.0,0.0,0.0,0.0,0.0,0.0,0.0,0.0,0.0,0.0,0.0,0.0,-1.441,-1.4883,-1.5155,0.0,0.0,0.0,0.0,0.0,0.0,0.0,0.0,0.0,0.0,-1.4322,-1.465,-1.485,-1.5483,-1.6015,-1.6337,-1.6547,-1.6744,-1.696,-1.7434,-1.7908,0.0,0.0,0.0,0.0,0.0,0.0,0.0,0.0,0.0,0.0,0.0,0.0,0.0,0.0,0.0,0.0,0.0,0.0,0.0,0.0,0.0,0.0,0.0,0.0,0.0,0.0,0.0,-1.3347,-1.3209,0.0,0.0,0.0,0.0,0.0,0.0,0.0,0.0,0.0,0.0,0.0,-1.7368,-1.7513,0.0,0.0,0.0,0.0,0.0,0.0,0.0,0.0,0.0,0.0,0.0,0.0,-1.1837,-1.1253,-1.0684,-0.9995,-0.9139,-0.8997,-0.934,-1.0193,-1.0849,-1.2071,-1.3907,0.0,0.0,0.0,0.0,0.0,0.0,0.0,0.0,0.0,0.0,0.0,0.0,0.0,0.0,0.0,0.0,0.0,0.0,0.0,0.0,0.0,0.0,0.0,0.0,0.0,-1.4945,0.0,0.0,0.0,0.0,0.0,0.0,0.0,0.0,0.0,0.0,0.0,-1.5592,-1.521,-1.5036,-1.4874,-1.4959,-1.5011,-1.5176,0.0,0.0,0.0,0.0,0.0,0.0,0.0,0.0,0.0,0.0,0.0,0.0,0.0,0.0,-2.1217,-2.1099,-2.1131,-2.1118,-2.1033,0.0,0.0,0.0,0.0,0.0,0.0,0.0,0.0,0.0,0.0,0.0,0.0,0.0,0.0,0.0,0.0,-1.5052,0.0,0.0,0.0,0.0,0.0,0.0,0.0,0.0,-1.8936,-1.9077,-1.9092,-1.9248,-1.9325,0.0,-1.9356,-1.9045,0.0,0.0,0.0,0.0,0.0,0.0,0.0,0.0,-1.2782,-1.2121,-1.1333,-1.047,-0.9597,-0.9474,-0.981,-1.0625,-1.1668,-1.2992,-1.4627,-1.5225,-1.5445,0.0,0.0,0.0,0.0,0.0,0.0,0.0,0.0,0.0,0.0,0.0,0.0,0.0,0.0,0.0,0.0,0.0,0.0,0.0,0.0,0.0,0.0,0.0,-1.5746,0.0,0.0,0.0,0.0,0.0,0.0,0.0,0.0,0.0,-1.7089,-1.6808,-1.6476,-1.5917,-1.5471,-1.5108,-1.4955,0.0,0.0,0.0,0.0,0.0,0.0,0.0,-1.8221,-1.8769,-1.9064,-1.925,-1.9376,-1.9753,-2.028,-2.105,0.0,0.0,-2.1716,-2.1746,-2.1698,-2.1602,-2.1568,-2.1458,-2.1423,-2.1264,-2.1153,0.0,0.0,0.0,0.0,0.0,0.0,0.0,0.0,-1.71,-1.6756,0.0,-1.7133,0.0,0.0,0.0,0.0,0.0,0.0,0.0,0.0,-2.1005,-2.1318,-2.1332,-2.1376,-2.1469,-2.1519,-2.1486,-2.1379,-2.1098,-1.8998,0.0,0.0,0.0,0.0,0.0,0.0,-1.3779,-1.308,-1.2058,-1.0995,-0.9905,-0.9971,-1.0298,-1.0801,-1.278,-1.4149,-1.4763,-1.5315,-1.5781,-1.616,-1.6328,0.0,0.0,0.0,0.0,0.0,0.0,0.0,0.0,0.0,0.0,0.0,0.0,0.0,0.0,0.0,0.0,0.0,0.0,0.0,0.0,-1.6188,0.0,0.0,0.0,0.0,0.0,0.0,0.0,0.0,0.0,0.0,-1.7626,-1.7216,-1.6773,-1.6109,0.0,0.0,0.0,0.0,-1.475,-1.4955,-1.5549,-1.6099,-1.6599,-1.7487,-1.8281,-1.8745,0.0,0.0,-1.953,-2.0065,-2.0389,-2.027,-2.1211,-2.2091,-2.2252,-2.2331,-2.2324,-2.2091,-2.203,-2.1983,-2.1888,-2.1841,-2.1793,-2.1399,0.0,0.0,0.0,0.0,-1.9372,-1.8767,-1.8388,-1.8014,-1.7713,-1.7545,-1.8135,0.0,0.0,0.0,0.0,0.0,0.0,-2.182,-2.1874,-2.2105,-2.2235,-2.2252,-2.2344,-2.2398,-2.2361,-2.2324,-2.2224,-2.2079,-2.1309,-2.0261,-1.8918,0.0,0.0,0.0,0.0,-1.4359,-1.3532,-1.2466,-1.1507,-1.0617,-1.0743,-1.1179,-1.1822,-1.3279,-1.4292,-1.4794,-1.5404,-1.5924,-1.6328,-1.6554,0.0,0.0,0.0,0.0,0.0,0.0,0.0,0.0,0.0,0.0,0.0,0.0,0.0,0.0,0.0,0.0,0.0,0.0,0.0,-1.5898,-1.6649,-1.7407,0.0,0.0,0.0,0.0,0.0,0.0,0.0,0.0,0.0,-1.7927,-1.7372,-1.685,0.0,0.0,-1.4663,-1.4411,-1.4008,-1.3907,-1.4298,0.0,0.0,0.0,-1.65,-1.7036,-1.7603,-1.7959,-1.8346,-1.8877,-1.9201,-1.9636,-2.0445,-2.0938,-2.1322,-2.1854,-2.2382,-2.2711,-2.2663,-2.2663,-2.2618,-2.2572,-2.2526,-2.2434,-2.1737,-2.1606,-2.1496,-2.1151,-2.0613,-1.9844,-1.9323,-1.9038,-1.8664,-1.8406,-1.8316,-1.926,-1.9646,-1.9732,-2.0906,0.0,0.0,0.0,-2.2683,-2.2447,-2.2454,-2.2454,-2.2454,-2.2575,-2.2757,-2.2982,-2.295,-2.2857,-2.2747,-2.259,-2.19,-2.0714,0.0,0.0,-1.7612,-1.6326,-1.5065,-1.39,-1.2866,-1.1954,-1.1148,-1.1353,-1.179,-1.2423,-1.3467,-1.4241,-1.4718,-1.5374,-1.5924,-1.6398,-1.6686,-1.6917,0.0,0.0,0.0,0.0,0.0,0.0,0.0,0.0,0.0,0.0,0.0,-1.4988,0.0,0.0,0.0,0.0,-1.649,-1.6688,-1.6732,-1.7704,0.0,0.0,0.0,0.0,0.0,0.0,0.0,-1.9287,-1.8605,-1.8096,-1.7905,-1.7178,-1.6523,-1.6106,-1.525,-1.4475,-1.4018,0.0,-1.3505,-1.3778,-1.4141,-1.4637,-1.5341,-1.5916,-1.6531,-1.7209,-1.75,-1.7769,-1.8223,-1.8413,-1.8823,-1.9758,-2.0255,-2.061,-2.1272,-2.1966,-2.2408,-2.2365,-2.2279,-2.2279,-2.2279,-2.2193,-2.2106,-2.1694,-2.1697,-2.1625,-2.1094,-2.0318,-1.9974,-1.9687,-1.9425,-1.9164,-1.8975,-1.8949,-2.0347,-2.1006,-2.1149,-2.2597,0.0,0.0,-2.3271,-2.287,-2.2214,-2.225,-2.2189,-2.2145,-2.2253,-2.2664,-2.33,-2.3318,-2.3224,-2.3021,-2.2965,-2.2746,-2.2319,-2.1371,-2.0129,-1.8699,-1.7271,-1.5798,-1.4251,-1.3236,-1.2341,-1.1537,-1.1816,-1.2214,-1.2628,-1.3454,-1.4111,-1.4578,-1.5226,-1.5824,-1.6355,-1.6696,-1.7018,-1.7297,0.0,0.0,0.0,0.0,0.0,0.0,0.0,0.0,0.0,0.0,0.0,0.0,0.0,0.0,0.0,-1.7262,0.0,-1.767,-1.8919,0.0,0.0,0.0,-2.0872,-2.0224,-1.984,-1.9326,-1.85,0.0,0.0,0.0,0.0,-1.5866,-1.5438,-1.508,-1.4536,-1.3726,-1.3493,-1.3391,-1.3429,-1.3912,-1.4414,-1.4772,-1.5534,-1.6344,-1.7019,-1.7385,-1.7424,-1.7578,-1.7689,-1.8025,-1.8721,-1.9336,-1.9888,-2.0519,-2.109,-2.1491,-2.1357,-2.138,-2.1388,-2.1447,-2.1462,-2.1395,-2.0813,-2.08,-2.0745,-2.0953,-2.1274,-2.0458,-1.9973,-1.9774,-1.9567,-1.9372,-1.9335,-2.0254,-2.104,-2.1625,-2.2009,-2.2154,-2.2097,-2.2002,-2.1835,-2.1616,-2.1612,-2.161,-2.1572,-2.165,-2.2006,-2.2676,-2.2672,-2.2549,-2.2415,-2.2359,-2.1855,-2.0987,-2.0344,-1.9787,-1.9278,-1.7332,-1.5792,-1.4748,-1.3601,-1.2789,-1.2424,-1.2574,-1.2768,-1.3065,-1.3609,-1.4092,-1.4438,-1.5104,-1.5696,-1.6231,-1.6565,-1.6933,-1.7265,-1.733,0.0,0.0,0.0,0.0,0.0,0.0,0.0,0.0,0.0,-1.6712,-1.6773,0.0,-1.6855,0.0,-1.7147,-1.7261,-1.7344,-1.815,0.0,0.0,-1.9558,-1.9881,-1.9838,-1.9443,-1.9031,-1.8724,-1.7941,-1.7364,-1.7182,-1.6323,-1.5562,-1.5148,-1.4718,-1.4299,-1.3821,-1.3594,-1.3425,-1.3301,-1.3514,-1.3809,-1.4106,-1.474,-1.5379,-1.5688,-1.5947,-1.6232,-1.6768,-1.6998,-1.7331,-1.8027,-1.8691,-1.9159,-1.9371,-1.9792,-2.0139,-2.0228,-2.0884,-2.1615,-2.1615,-2.1585,-2.152,-2.0444,-2.0443,-2.0352,-2.0572,-2.0939,-2.0381,-2.006,-1.9873,-1.972,-1.9577,-1.9553,-2.0295,-2.1108,-2.1867,-2.185,-2.182,-2.1733,-2.1607,-2.1298,-2.0916,-2.0897,-2.0877,-2.082,-2.0822,-2.1198,-2.1867,-2.1846,-2.1726,-2.1578,-2.1507,-2.1115,-2.0418,-1.9605,-1.9067,-1.8693,-1.712,-1.5705,-1.4533,-1.3302,-1.2509,-1.2143,-1.2463,-1.2722,-1.3002,-1.3498,-1.396,-1.4401,-1.489,-1.5433,-1.5966,-1.6367,-1.6738,-1.7084,-1.7273,-1.7252,0.0,0.0,0.0,0.0,0.0,0.0,0.0,0.0,0.0,0.0,0.0,-1.7149,0.0,-1.7543,0.0,-1.7815,-1.8491,-1.8982,-1.9152,-1.9432,-1.9522,-1.9336,-1.8903,-1.8474,-1.8003,-1.7317,-1.6818,-1.6559,-1.5979,-1.5418,-1.5043,-1.4624,-1.4203,-1.3854,-1.3641,-1.3425,-1.3232,-1.3339,-1.3578,-1.3881,-1.4374,-1.4828,-1.5147,-1.5373,-1.5625,-1.6084,-1.6278,-1.6653,-1.7316,-1.7982,-1.854,-1.8842,-1.9326,-1.9654,-1.9722,-2.0176,-2.0652,-2.0735,-2.0774,-2.0697,-2.0255,-2.0347,-2.0215,-2.0087,-2.004,-2.0003,-1.9962,-1.9851,-1.9732,-1.9641,-1.9625,-2.0244,-2.0967,-2.1652,-2.1604,-2.1521,-2.1456,-2.1333,-2.0843,-2.0119,-2.0102,-2.0029,-1.9898,-1.99,-2.0237,-2.0883,-2.088,-2.0778,-2.057,-2.0503,-2.027,-1.9877,-1.8868,-1.8016,-1.7345,-1.6518,-1.5324,-1.3805,-1.2614,-1.1787,-1.1406,-1.1957,-1.2404,-1.2673,-1.3251,-1.3828,-1.4332,-1.4686,-1.512,-1.5623,-1.6093,-1.6517,-1.6809,-1.7109,-1.7304,0.0,-1.7549,0.0,0.0,0.0,0.0,0.0,0.0,0.0,0.0,-1.7443,-1.7425,-1.7446,-1.8091,-1.8485,-1.8476,-1.9077,-1.9486,-1.9588,-1.9512,-1.921,-1.8684,-1.831,-1.775,-1.6991,-1.6607,-1.6316,-1.6039,-1.5711,-1.5359,-1.5013,-1.4624,-1.4235,-1.3841,-1.3628,-1.3412,-1.3245,-1.3304,-1.3565,-1.3954,-1.4264,-1.4596,-1.4994,-1.5208,-1.5328,-1.5551,-1.5683,-1.5964,-1.6608,-1.7299,-1.796,-1.8609,-1.9146,-1.9545,-1.9553,-1.9524,-1.9568,-1.9642,-1.9708,-1.9465,-1.9531,-2.0041,-1.9926,-1.9801,-1.9687,-1.962,-1.9657,-1.9726,-1.9599,-1.9495,-1.9453,-1.9586,-1.9733,-1.9881,-1.9832,-1.9717,-1.9603,-1.9539,-1.9327,-1.9093,-1.9021,-1.8929,-1.8799,-1.8796,-1.916,-1.978,-1.9751,-1.9603,-1.943,-1.9298,-1.8799,-1.7959,-1.7337,-1.6533,0.0,0.0,0.0,0.0,-1.1789,-1.1474,-1.1265,-1.1925,-1.2319,-1.2384,-1.3165,0.0,-1.4007,-1.4479,-1.4935,-1.5344,-1.5826,0.0,0.0,0.0,0.0,0.0,0.0,0.0,0.0,0.0,0.0,0.0,-1.7743,-1.7681,-1.7589,-1.7612,-1.7641,-1.7665,-1.7828,-1.7962,-1.7946,-1.8063,-1.8148,-1.8108,-1.8054,-1.7893,-1.7705,-1.7486,-1.7221,-1.6873,-1.657,-1.6274,-1.6024,-1.5711,-1.5329,-1.4904,-1.4574,-1.4222,-1.3715,-1.3547,-1.3425,-1.3232,-1.3314,-1.3518,-1.3808,-1.4046,-1.4278,-1.4564,-1.489,-1.5118,-1.5328,-1.5389,-1.5522,-1.5817,-1.6734,-1.7611,-1.7774,-1.8638,-1.9428,-1.9391,-1.9354,-1.9339,-1.9413,-1.9376,-1.928,-1.8535,0.0,-1.8969,-1.908,0.0,-1.9204,-1.9154,-1.9231,-1.931,-1.9335,-1.9298,-1.9266,-1.9269,-1.9305,-1.9168,-1.9014,-1.8895,-1.8843,-1.8715,-1.8545,-1.8508,-1.841,-1.8266,-1.8263,-1.837,-1.8562,-1.8517,-1.8381,-1.8155,-1.8043,-1.7683,-1.6993,-1.6279,-1.5505,-1.4666,-1.3206,-1.2081,-1.1277,-1.1057,-1.0775,-1.0468,-1.1271,-1.1826,-1.1964,0.0,0.0,0.0,0.0,0.0,0.0,0.0,0.0,0.0,0.0,0.0,-1.7109,-1.7288,-1.7415,-1.7595,-1.7664,-1.7726,-1.7749,-1.7789,-1.7749,-1.7721,-1.7726,-1.7732,-1.7755,-1.7749,-1.7749,-1.7749,-1.7743,-1.7681,-1.7618,-1.7526,-1.7432,-1.7313,-1.7175,-1.6975,-1.6727,-1.6463,-1.6163,-1.5839,-1.5536,-1.5193,-1.4718,-1.4401,-1.4078,-1.3682,-1.356,-1.3425,-1.3232,-1.3323,-1.3472,-1.3641,-1.3874,-1.4092,-1.4356,-1.461,-1.4859,-1.5118,-1.5179,-1.5225,-1.5476,-1.6471,-1.7334,-1.734,-1.8251,-1.9064,-1.8988,-1.8912,-1.8927,-1.8965,-1.9003,-1.8988,-1.734,-1.7948,-1.7752,-1.8024,-1.8548,-1.8485,-1.8501,-1.8589,0.0,0.0,0.0,-1.9001,-1.9038,-1.911,-1.8896,-1.8716,-1.8603,-1.8491,-1.8371,-1.8166,-1.8166,-1.804,-1.7856,-1.7833,-1.7681,-1.7455,-1.7455,-1.7313,-1.7068,-1.6977,-1.6773,-1.6358,-1.5522,-1.4683,-1.384,-1.1734,-1.0586,-1.0476,-1.0262,-0.9944,-0.9533,-1.0563,-1.1271,-1.1485,-1.2589,-1.3404,-1.3808,-1.4092,-1.4433,-1.4814,-1.5269,-1.5653,-1.6011,-1.6328,-1.6633,-1.6917,-1.7126,-1.7296,-1.7455,-1.7572,-1.7641,-1.7704,-1.7726,-1.7766,-1.7789,-1.7789,-1.7789,-1.7783,-1.7743,-1.7664,-1.7664,-1.7618,-1.7549,-1.7462,-1.7408,-1.7329,-1.7142,-1.6952,-1.6747,-1.657,-1.6274,-1.5983,-1.558,-1.5314,-1.4949,-1.4515,-1.4195,-1.3868,-1.3615,-1.3493,-1.3391,-1.3232,-1.3288,-1.3404,-1.3493,-1.3661,-1.3941,-1.4157,-1.4337,-1.4533,-1.4814,-1.4921,-1.4996,-1.5178,-1.6247,-1.6886,-1.7018,-1.789,-1.8612,-1.85,-1.845,-1.8425,-1.84,-1.8475,-1.8461,-1.5962,-1.6646,-1.6453,-1.641,-1.6466,-1.6966,-1.7489,-1.8038,-1.8419,-1.8586,-1.8601,-1.8582,-1.8651,-1.8755,-1.85,-1.8307,-1.818,-1.7984,-1.7832,0.0,-1.7572,-1.7455,-1.7296,-1.7191,-1.7052,-1.6917,-1.685,-1.6722,-1.6517,-1.6394,-1.6133,-1.5709,-1.5257,-1.4064,-1.2176,-1.0463,-0.9464,-0.9181,-0.9228,-0.9216,-0.9115,-1.0297,-1.0982,-1.1142,-1.2456,-1.3288,-1.3547,-1.3881,-1.4195,-1.4533,-1.5011,-1.5374,-1.5652,-1.6052,-1.6371,-1.6649,-1.685,-1.7035,-1.724,-1.7377,-1.7496,-1.7612,-1.7612,-1.7681,-1.7789,-1.7749,-1.7704,-1.7708,-1.7652,-1.7595,-1.7549,-1.7509,-1.7432,-1.7264,-1.724,-1.7142,-1.6892,-1.6727,-1.6543,-1.6289,-1.5968,-1.5667,-1.533,-1.4998,-1.4599,-1.4219,-1.386,-1.3769,-1.348,-1.3323,-1.3232,-1.321,-1.321,-1.3267,-1.3391,-1.348,-1.3661,-1.3908,-1.4013,-1.4181,-1.4501,-1.4564,-1.4641,-1.4825,-1.5806,-1.6501,-1.6578,-1.7483,-1.8076,-1.8121,-1.8028,-1.8042,-1.8003,-1.7855,-1.776,-1.4601,-1.5211,-1.5087,-1.5235,-1.56,-1.6139,-1.6514,-1.6802,-1.7344,-1.7815,-1.817,-1.8146,-1.8245,-1.8439,-1.8017,-1.7609,-1.7269,-1.7332,-1.7256,-1.7076,-1.6952,-1.6825,-1.667,-1.6523,-1.6405,-1.6266,-1.6239,-1.609,-1.5911,-1.5695,-1.5419,-1.5016,-1.4049,-1.2763,-1.1296,-1.0332,-0.9653,-0.933,-0.9051,-0.9001,-0.9236,-1.0133,-1.0828,-1.1225,-1.2253,-1.2978,-1.3254,-1.3615,-1.3921,-1.4292,-1.4718,-1.5102,-1.5418,-1.5726,-1.6011,-1.6301,-1.6517,-1.6738,-1.6901,-1.715,-1.7337,-1.7455,-1.7479,-1.7502,-1.7566,-1.7635,-1.7629,-1.7609,-1.7512,-1.7408,-1.7344,-1.7248,-1.7126,-1.6977,-1.6917,-1.6789,-1.6607,-1.6421,-1.6219,-1.5953,-1.5682,-1.5228,-1.4615,-1.4302,-1.3833,-1.3235,-1.3056,-1.3101,-1.3204,-1.3116,-1.3094,-1.3198,-1.321,-1.3198,-1.3288,-1.3357,-1.3493,-1.3674,-1.3762,-1.3901,-1.4149,-1.4214,-1.4324,-1.4548,-1.5435,-1.6063,-1.61,-1.6989,-1.7558,-1.7598,-1.7544,-1.7557,-1.7488,-1.7269,-1.7144,-1.3352,-1.3809,-1.3694,-1.4043,-1.4702,-1.5053,-1.5336,-1.5638,-1.6168,-1.6783,-1.7402,-1.7522,-1.7702,-1.7836,-1.7386,-1.6881,-1.6479,-1.662,-1.6602,-1.6374,-1.6254,-1.6133,-1.595,-1.5809,-1.568,-1.5593,-1.5565,-1.5433,-1.5255,-1.497,-1.4631,-1.4087,-1.2768,-1.1636,-1.083,-1.0287,-0.9885,-0.9602,-0.907,-0.9006,-0.9429,-1.0068,-1.0698,-1.1274,-1.2048,-1.2615,-1.299,-1.331,-1.3669,-1.4046,-1.4447,-1.4839,-1.5162,-1.5388,-1.5639,-1.5955,-1.6163,-1.6409,-1.667,-1.6926,-1.7126,-1.7264,-1.7264,-1.7264,-1.7264,-1.732,-1.7417,-1.7378,-1.7281,-1.7175,-1.7068,-1.6926,-1.6815,-1.6686,-1.6596,-1.6448,-1.6316,-1.6123,-1.5881,-1.5608,-1.5242,-1.4672,-1.3981,-1.3434,-1.292,-1.2288,-1.2195,-1.2481,-1.2765,-1.2798,-1.2943,-1.3025,-1.3094,-1.3129,-1.3129,-1.3185,-1.3323,-1.3391,-1.3459,-1.3615,-1.3802,-1.3901,-1.4086,-1.4393,-1.5136,-1.5721,-1.5847,-1.6546,-1.7094,-1.7073,-1.706,-1.7031,-1.7018,-1.6808,-1.6637,-1.2392,-1.2363,-1.2267,-1.2553,-1.3107,-1.3191,-1.3901,-1.4882,-1.5128,-1.5522,-1.6138,-1.6586,-1.6757,-1.6722,-1.6517,-1.6169,-1.5771,-1.5872,-1.5823,-1.5666,-1.5419,-1.5301,-1.5181,-1.5045,-1.4998,-1.4954,-1.48,-1.4631,-1.447,-1.42,-1.3709,-1.2936,-1.1871,-1.1149,-1.075,-0.9997,-0.9486,-0.9332,-0.921,-0.9286,-0.9514,-1.0146,-1.0656,-1.0942,-1.1766,-1.2365,-1.2733,-1.3057,-1.3399,-1.3808,-1.4157,-1.4479,-1.4732,-1.5056,-1.5314,-1.5536,-1.5854,-1.6191,-1.657,-1.6712,-1.6789,-1.6825,-1.6866,-1.6866,-1.6866,-1.6815,-1.6882,-1.7039,-1.7,-1.685,-1.6686,-1.6633,-1.6528,-1.634,-1.6258,-1.6163,-1.597,-1.5769,-1.5535,-1.5286,-1.4557,-1.391,-1.3495,-1.2678,-1.2046,-1.1665,-1.1764,-1.2045,-1.2244,-1.2503,-1.2662,-1.2745,-1.2838,-1.2896,-1.2931,-1.2931,-1.3012,-1.3129,-1.3198,-1.3323,-1.348,-1.3633,-1.3812,-1.4341,-1.4982,-1.5517,-1.5877,-1.6424,-1.6667,-1.6607,-1.6565,-1.6565,-1.6491,-1.6362,-1.6306,-1.1622,-1.1535,-1.1475,-1.1545,-1.1736,-1.2135,-1.2824,-1.3662,-1.4108,-1.4602,-1.5108,-1.533,-1.5578,-1.5874,-1.5721,-1.5373,-1.4921,-1.5035,-1.4986,-1.4772,-1.4568,-1.4456,-1.4392,-1.42,-1.4117,-1.4117,-1.3973,-1.3795,-1.3609,-1.3204,-1.2649,-1.2031,-1.138,-1.094,-1.0672,-1.024,-0.993,-0.9793,-0.9731,-0.9814,-0.9983,-1.0184,-1.0552,-1.1064,-1.1662,-1.2138,-1.252,-1.2861,-1.3207,-1.356,-1.3874,-1.4157,-1.4324,-1.461,-1.489,-1.5134,-1.5551,-1.5924,-1.6274,-1.6367,-1.6448,-1.6543,-1.6543,-1.6501,-1.6474,-1.6367,-1.6301,-1.6344,-1.6463,-1.6474,-1.6328,-1.6176,-1.6022,-1.5909,-1.5796,-1.5667,-1.5536,-1.533,-1.5106,-1.4895,-1.4128,-1.329,-1.2622,-1.1497,-1.0922,-1.1094,-1.1303,-1.1518,-1.2079,-1.2307,-1.227,-1.2258,-1.2282,-1.2461,-1.2697,-1.2768,-1.2815,-1.285,-1.2908,-1.3012,-1.3141,-1.3546,-1.3917,-1.423,-1.4879,-1.5369,-1.5524,-1.5964,-1.6275,-1.6132,-1.6088,-1.6044,-1.5944,-1.5856,-1.578,-1.0973,-1.0855,-1.0811,-1.0753,-1.0735,-1.1315,-1.1939,-1.2537,-1.3195,-1.3796,-1.4237,-1.4214,-1.4383,-1.4718,-1.4805,-1.4578,-1.4182,-1.4196,-1.409,-1.3881,-1.3709,-1.3622,-1.3535,-1.3399,-1.3344,-1.3297,-1.3182,-1.2998,-1.2719,-1.2187,-1.1653,-1.1255,-1.0916,-1.0601,-1.0341,-1.0225,-1.0108,-0.9961,-0.9961,-1.0049,-1.0147,-1.02,-1.0511,-1.11,-1.1442,-1.1822,-1.2222,-1.2579,-1.2896,-1.322,-1.3573,-1.3828,-1.3934,-1.4214,-1.4515,-1.4828,-1.5255,-1.5609,-1.587,-1.5968,-1.6052,-1.6136,-1.6093,-1.6065,-1.6009,-1.5868,-1.5696,-1.5638,-1.5767,-1.5839,-1.5883,-1.5667,-1.5507,-1.5448,-1.5315,-1.5209,-1.5149,-1.489,-1.4655,-1.4438,-1.365,-1.2694,-1.1664,-1.0597,-1.0117,-1.054,-1.0766,-1.1029,-1.1803,-1.1915,-1.192,-1.1811,-1.1811,-1.1982,-1.2365,-1.2437,-1.2484,-1.2556,-1.2591,-1.2697,-1.2804,-1.3338,-1.3902,-1.4162,-1.4873,-1.533,-1.5435,-1.5712,-1.578,-1.5659,-1.5603,-1.5558,-1.5457,-1.5322,-1.5198,-1.0347,-1.021,-1.0097,-1.0046,-1.0059,-1.0566,-1.114,-1.1801,-1.2448,-1.3,-1.3437,-1.3467,-1.3331,-1.32,-1.3696,-1.3875,-1.3683,-1.3395,-1.3191,-1.3054,-1.2918,-1.2791,-1.2638,-1.2638,-1.2638,-1.2591,-1.2496,-1.2174,-1.1678,-1.1271,-1.0905,-1.0621,-1.0235,-0.9922,-0.9667,-0.9597,-0.9567,-0.9518,-0.9695,-0.9823,-0.9853,-1.0128,-1.0456,-1.0878,-1.1105,-1.1442,-1.1811,-1.2222,-1.2544,-1.285,-1.322,-1.3459,-1.3547,-1.3835,-1.4227,-1.4669,-1.5025,-1.5224,-1.5329,-1.5448,-1.5536,-1.5536,-1.5463,-1.5448,-1.5433,-1.5255,-1.5134,-1.5029,-1.4951,-1.5041,-1.5225,-1.5165,-1.5104,-1.5013,-1.4904,-1.4794,-1.4732,-1.4479,-1.4216,-1.3888,-1.3155,-1.2052,-1.0534,-1.0102,-0.9927,-1.0065,-1.0473,-1.1023,-1.1109,-1.1358,-1.1483,-1.1479,-1.1505,-1.1616,-1.1872,-1.1993,-1.2029,-1.2102,-1.2222,-1.2412,-1.2662,-1.2973,-1.355,-1.4065,-1.4618,-1.5045,-1.5325,-1.5412,-1.5289,-1.5165,-1.5062,-1.496,-1.4915,-1.4754,-1.4616,-0.9764,-0.9607,-0.954,-0.9434,-0.9402,-0.9876,-1.0445,-1.1075,-1.1681,-1.2246,-1.2671,-1.2696,-1.2591,-1.2413,-1.2425,-1.2567,-1.2824,-1.2661,-1.2449,-1.2234,-1.209,-1.1982,-1.1909,-1.1799,-1.1752,-1.1752,-1.1616,-1.1271,-1.084,-1.0495,-1.0196,-0.9873,-0.9527,-0.9257,-0.9119,-0.9047,-0.8999,-0.9047,-0.9217,-0.9377,-0.9607,-0.9823,-1.0098,-1.0505,-1.0867,-1.1244,-1.159,-1.1993,-1.2294,-1.2544,-1.2896,-1.3104,-1.3138,-1.3535,-1.3901,-1.4259,-1.4497,-1.4732,-1.4949,-1.4951,-1.4982,-1.509,-1.4982,-1.489,-1.4845,-1.4704,-1.4606,-1.4556,-1.4365,-1.4287,-1.4292,-1.4497,-1.4592,-1.4511,-1.4447,-1.4365,-1.4203,-1.3993,-1.3762,-1.3437,-1.2672,-1.1556,-1.0653,-1.0216,-1.0172,-1.03,-1.0471,-1.0726,-1.1028,-1.1132,-1.1105,-1.1019,-1.0981,-1.1019,-1.1094,-1.1479,-1.1664,-1.1689,-1.1833,-1.2147,-1.2392,-1.2954,-1.3518,-1.3993,-1.4451,-1.4696,-1.496,-1.4812,-1.4697,-1.4651,-1.4558,-1.4455,-1.4373,-1.4233,-1.4093,-0.9128,-0.9003,-0.8933,-0.8901,-0.8987,-0.9447,-0.9997,-1.0608,-1.1228,-1.1696,-1.1959,-1.1886,-1.1813,-1.1689,-1.1468,-1.1468,-1.1774,-1.1763,-1.1689,-1.1516,-1.1356,-1.1244,-1.1142,-1.1057,-1.0981,-1.0943,-1.0705,-1.0447,-1.0137,-0.9804,-0.9536,-0.927,-0.8918,-0.8683,-0.8561,-0.8521,-0.8513,-0.8561,-0.8773,-0.9047,-0.9297,-0.9506,-0.9744,-1.0088,-1.0485,-1.0933,-1.1319,-1.1664,-1.1957,-1.2222,-1.2473,-1.272,-1.2908,-1.3207,-1.3581,-1.3868,-1.4013,-1.4222,-1.4461,-1.4452,-1.447,-1.4596,-1.4483,-1.441,-1.4523,-1.4426,-1.4399,-1.4396,-1.4324,-1.411,-1.3904,-1.4036,-1.4126,-1.398,-1.396,-1.3894,-1.3728,-1.3514,-1.3263,-1.2844,-1.2055,-1.1215,-1.0576,-1.0377,-1.0329,-1.0467,-1.0452,-1.0678,-1.0918,-1.0916,-1.0812,-1.0687,-1.0687,-1.0725,-1.0764,-1.104,-1.1239,-1.1314,-1.1507,-1.1812,-1.2285,-1.2881,-1.3401,-1.3881,-1.4172,-1.4334,-1.4373,-1.4233,-1.4186,-1.414,-1.4046,-1.3941,-1.3858,-1.3763,-1.3724,-0.8456,-0.8382,-0.8336,-0.8484,-0.8787,-0.9243,-0.9784,-1.0312,-1.1094,-1.1314,-1.1169,-1.1004,-1.0929,-1.0905,-1.0878,-1.0725,-1.0562,-1.0753,-1.0878,-1.0878,-1.0687,-1.0534,-1.0418,-1.037,-1.0341,-1.0283,-0.9952,-0.9746,-0.9549,-0.9199,-0.8918,-0.8748,-0.8382,-0.8136,-0.8021,-0.8021,-0.8021,-0.8103,-0.8439,-0.8732,-0.8903,-0.9128,-0.9417,-0.9713,-0.9991,-1.0389,-1.0981,-1.1207,-1.1468,-1.1774,-1.1993,-1.2294,-1.2697,-1.2955,-1.3232,-1.3446,-1.3615,-1.3749,-1.3908,-1.3947,-1.398,-1.4093,-1.3967,-1.4109,-1.4436,-1.4433,-1.4469,-1.4639,-1.465,-1.4487,-1.3964,-1.3791,-1.3689,-1.3527,-1.3459,-1.3412,-1.3323,-1.3104,-1.272,-1.2188,-1.1535,-1.0917,-1.0616,-1.0464,-1.04,-1.0278,-1.043,-1.0606,-1.0639,-1.0621,-1.0592,-1.0582,-1.0544,-1.0515,-1.0564,-1.0641,-1.0777,-1.0912,-1.1155,-1.1467,-1.2039,-1.2634,-1.3173,-1.3583,-1.3793,-1.3931,-1.3847,-1.3752,-1.3705,-1.3658,-1.3563,-1.3577,-1.3583,-1.3577,-1.3571,-0.7917,-0.784,-0.7792,-0.7919,-0.822,-0.8675,-0.9124,-0.9521,-1.0222,-1.0525,-1.037,-1.0147,-1.0118,-1.0254,-1.0196,-1.003,-0.9864,-0.9825,-0.9952,-1.0196,-1.003,-0.9864,-0.9755,-0.9677,-0.9558,-0.9408,-0.9288,-0.9079,-0.8837,-0.8553,-0.839,-0.8218,-0.7889,-0.7724,-0.7641,-0.7614,-0.7614,-0.769,-0.7987,-0.8291,-0.8537,-0.8765,-0.9047,-0.9408,-0.9597,-0.9903,-1.0341,-1.0829,-1.1159,-1.1356,-1.1627,-1.1945,-1.2318,-1.2544,-1.2768,-1.3035,-1.3138,-1.3276,-1.3493,-1.345,-1.3607,-1.3861,-1.3856,-1.4012,-1.4349,-1.4372,-1.4342,-1.4356,-1.4277,-1.4101,-1.386,-1.3733,-1.3521,-1.3041,-1.3012,-1.292,-1.2779,-1.2461,-1.2102,-1.1799,-1.1373,-1.1041,-1.0809,-1.065,-1.0518,-1.0378,-1.0454,-1.0447,-1.039,-1.0342,-1.0244,-1.0205,-1.0264,-1.0469,-1.0675,-1.0833,-1.0954,-1.1065,-1.1216,-1.1469,-1.2006,-1.2413,-1.2926,-1.3267,-1.3418,-1.3447,-1.3362,-1.3314,-1.3324,-1.3324,-1.3276,-1.334,-1.3422,-1.341,-1.3387,-0.7373,-0.7303,-0.7253,-0.744,-0.7794,-0.8103,-0.8549,-0.9014,-0.9488,-0.9734,-0.9716,-0.9494,-0.9512,-0.9677,-0.9576,-0.9448,-0.927,-0.9079,-0.9168,-0.9377,-0.9368,-0.9239,-0.9119,-0.8967,-0.8805,-0.8643,-0.861,-0.8447,-0.8193,-0.7979,-0.7821,-0.7697,-0.7405,-0.7321,-0.7314,-0.728,-0.7286,-0.7405,-0.7621,-0.7912,-0.816,-0.8357,-0.8635,-0.8999,-0.9239,-0.9487,-0.9873,-1.039,-1.0764,-1.1019,-1.1319,-1.1616,-1.1945,-1.2102,-1.2364,-1.2794,-1.2926,-1.3095,-1.3447,-1.3484,-1.3508,-1.3824,-1.3809,-1.3973,-1.4325,-1.4346,-1.4299,-1.4362,-1.4305,-1.4086,-1.3811,-1.3682,-1.3408,-1.2896,-1.2826,-1.2577,-1.2244,-1.1872,-1.1616,-1.1383,-1.1148,-1.0954,-1.0725,-1.0611,-1.0534,-1.0428,-1.0312,-1.0235,-1.0195,-1.0192,-1.02,-1.0233,-1.0454,-1.0708,-1.0922,-1.1051,-1.1161,-1.1237,-1.1397,-1.1737,-1.2169,-1.2426,-1.2863,-1.3087,-1.3286,-1.319,-1.3104,-1.2997,-1.2997,-1.2997,-1.3007,-1.3057,-1.3111,-1.3164,-1.3171,-0.6876,-0.6751,-0.6751,-0.7039,-0.7493,-0.7567,-0.8027,-0.8705,-0.8878,-0.9016,-0.9088,-0.9004,-0.9013,-0.9128,-0.9016,-0.8895,-0.8724,-0.8561,-0.8406,-0.8447,-0.8529,-0.8521,-0.8431,-0.8283,-0.8118,-0.7979,-0.7912,-0.7787,-0.7621,-0.7461,-0.7293,-0.716,-0.6992,-0.6907,-0.6985,-0.6979,-0.7076,-0.7202,-0.7363,-0.7614,-0.787,-0.7946,-0.8226,-0.8643,-0.8846,-0.9128,-0.9487,-0.9853,-1.0244,-1.0649,-1.1019,-1.1314,-1.1597,-1.1734,-1.2152,-1.285,-1.2908,-1.3193,-1.3581,-1.3598,-1.3691,-1.3796,-1.3802,-1.3969,-1.4347,-1.4364,-1.4347,-1.4586,-1.4506,-1.4258,-1.3861,-1.3685,-1.339,-1.2966,-1.268,-1.2278,-1.1693,-1.1394,-1.1196,-1.1008,-1.0791,-1.0611,-1.0418,-1.0351,-1.0235,-1.0137,-1.0097,-1.0134,-1.0089,-1.0196,-1.0401,-1.0507,-1.056,-1.0788,-1.0971,-1.1179,-1.1309,-1.1562,-1.164,-1.1843,-1.2161,-1.2411,-1.2646,-1.2907,-1.3027,-1.2881,-1.2822,-1.2764,-1.2666,-1.2618,-1.2654,-1.2717,-1.2833,-1.2963,-1.3066,-0.6237,-0.6206,-0.6145,-0.6501,-0.7047,-0.7101,-0.7486,-0.8113,-0.8234,-0.8357,-0.8455,-0.8447,-0.848,-0.8578,-0.8455,-0.8332,-0.8193,-0.7995,-0.7829,-0.767,-0.7489,-0.7599,-0.7731,-0.7655,-0.7496,-0.7314,-0.7231,-0.7147,-0.6979,-0.6816,-0.6689,-0.6696,-0.6611,-0.6611,-0.6647,-0.6823,-0.6914,-0.6999,-0.7167,-0.7328,-0.7538,-0.7704,-0.7904,-0.8185,-0.8488,-0.879,-0.9136,-0.9625,-1.0049,-1.0457,-1.0715,-1.1082,-1.1609,-1.1819,-1.2182,-1.2788,-1.2981,-1.3055,-1.3219,-1.3275,-1.3401,-1.3736,-1.3716,-1.3795,-1.4213,-1.4257,-1.4196,-1.4129,-1.4046,-1.3909,-1.3678,-1.36,-1.3345,-1.2895,-1.2425,-1.1894,-1.1329,-1.0981,-1.0829,-1.0725,-1.0544,-1.0351,-1.0235,-1.0088,-1.0029,-0.9967,-1.0046,-1.0128,-1.0043,-1.0177,-1.0383,-1.0303,-1.0373,-1.0713,-1.1012,-1.1223,-1.149,-1.1842,-1.1929,-1.1855,-1.2111,-1.2234,-1.2455,-1.2666,-1.2676,-1.2578,-1.2529,-1.2471,-1.2421,-1.2274,-1.2271,-1.23,-1.2686,-1.2924,-1.2979,-0.5773,-0.5742,-0.5696,-0.6039,-0.6593,-0.6593,-0.6943,-0.7452,-0.7621,-0.7739,-0.7836,-0.7919,-0.7953,-0.8085,-0.7961,-0.7829,-0.7746,-0.7503,-0.7245,-0.707,-0.6774,-0.6768,-0.693,-0.6937,-0.6816,-0.6605,-0.6605,-0.6471,-0.6343,-0.6258,-0.6221,-0.6184,-0.6179,-0.6227,-0.6313,-0.6532,-0.6745,-0.6823,-0.6999,-0.7125,-0.7293,-0.7419,-0.7628,-0.7908,-0.8234,-0.8669,-0.9283,-0.98,-1.0178,-1.0475,-1.0676,-1.1055,-1.1665,-1.1861,-1.2278,-1.2872,-1.2958,-1.3033,-1.3269,-1.3258,-1.3341,-1.3576,-1.3549,-1.3619,-1.3716,-1.3742,-1.361,-1.3505,-1.343,-1.3392,-1.3334,-1.3296,-1.3027,-1.2513,-1.2145,-1.1663,-1.1093,-1.0864,-1.0636,-1.042,-1.0196,-1.0049,-0.9971,-0.9823,-0.9796,-0.9812,-0.9837,-0.9915,-0.9935,-1.0137,-1.0238,-1.0191,-1.0309,-1.068,-1.0871,-1.1116,-1.1213,-1.1612,-1.1706,-1.1724,-1.1911,-1.2039,-1.2171,-1.2323,-1.2332,-1.2283,-1.2175,-1.2076,-1.1977,-1.1877,-1.1828,-1.1924,-1.2255,-1.246,-1.255,-0.5358,-0.532,-0.5327,-0.5638,-0.6106,-0.6172,-0.6447,-0.6919,-0.7083,-0.7209,-0.7328,-0.7398,-0.7489,-0.7594,-0.7412,-0.7328,-0.7286,-0.6956,-0.6696,-0.6435,-0.6142,-0.6007,-0.6033,-0.6209,-0.613,-0.5927,-0.589,-0.5841,-0.5755,-0.5707,-0.5669,-0.5674,-0.5712,-0.5798,-0.5933,-0.619,-0.6447,-0.6605,-0.6781,-0.6999,-0.7125,-0.7216,-0.7412,-0.7738,-0.8238,-0.8781,-0.9436,-0.9979,-1.0365,-1.0568,-1.0755,-1.1201,-1.1693,-1.1947,-1.2311,-1.2771,-1.2929,-1.3073,-1.3392,-1.3381,-1.3358,-1.3321,-1.3283,-1.3276,-1.3122,-1.3074,-1.2977,-1.2871,-1.2852,-1.2822,-1.2822,-1.2822,-1.2619,-1.2186,-1.1996,-1.1705,-1.1237,-1.0881,-1.0565,-1.0153,-0.9897,-0.9808,-0.968,-0.9546,-0.9409,-0.971,-0.9742,-0.9829,-0.9864,-1.0002,-1.0068,-1.0067,-1.0293,-1.0629,-1.0813,-1.0973,-1.0998,-1.1167,-1.1209,-1.1275,-1.1525,-1.1665,-1.1891,-1.1968,-1.1877,-1.1778,-1.1669,-1.1569,-1.1477,-1.1377,-1.1276,-1.1379,-1.1553,-1.1651,-1.1752,-0.4724,-0.4756,-0.4762,-0.5132,-0.5658,-0.572,-0.6024,-0.6526,-0.6538,-0.666,-0.6816,-0.6846,-0.6943,-0.7083,-0.6901,-0.6774,-0.6647,-0.6361,-0.597,-0.5583,-0.5545,-0.5236,-0.5183,-0.5437,-0.5491,-0.5323,-0.5275,-0.5236,-0.5198,-0.5193,-0.5159,-0.5159,-0.5285,-0.5415,-0.5501,-0.5847,-0.6142,-0.6307,-0.6562,-0.6823,-0.6963,-0.7159,-0.736,-0.7711,-0.8361,-0.8806,-0.9144,-0.959,-1.001,-1.0372,-1.0768,-1.1191,-1.1674,-1.1943,-1.2285,-1.2663,-1.2839,-1.286,-1.289,-1.2861,-1.2813,-1.2706,-1.2657,-1.2618,-1.252,-1.2461,-1.2412,-1.2314,-1.2274,-1.2274,-1.2274,-1.2274,-1.2159,-1.2018,-1.1835,-1.1592,-1.1204,-1.0965,-1.0616,-1.0134,-0.9882,-0.9756,-0.9477,-0.9393,-0.9408,-0.9571,-0.9663,-0.9787,-0.9801,-0.9864,-0.9818,-0.9864,-0.9941,-1.019,-1.03,-1.0454,-1.0557,-1.0608,-1.0659,-1.0659,-1.0913,-1.1167,-1.1259,-1.1318,-1.1368,-1.1267,-1.1167,-1.1015,-1.0863,-1.082,-1.0734,-1.0829,-1.0902,-1.0895,-1.1043,-0.428,-0.4312,-0.4344,-0.4694,-0.5208,-0.5303,-0.559,-0.6004,-0.6067,-0.6147,-0.6264,-0.6258,-0.6349,-0.6447,-0.6349,-0.6221,-0.6056,-0.5755,-0.5361,-0.5058,-0.4971,-0.4753,-0.4495,-0.4666,-0.4801,-0.4705,-0.4709,-0.4714,-0.4675,-0.4675,-0.467,-0.4675,-0.4888,-0.4971,-0.5014,-0.541,-0.5761,-0.5976,-0.6264,-0.6562,-0.6745,-0.7058,-0.7571,-0.7996,-0.8578,-0.8933,-0.9207,-0.9622,-0.9953,-1.0221,-1.0586,-1.1137,-1.1652,-1.1938,-1.2223,-1.2423,-1.248,-1.2431,-1.2323,-1.2283,-1.2184,-1.2026,-1.2036,-1.1927,-1.1868,-1.1819,-1.181,-1.1719,-1.1728,-1.1728,-1.1728,-1.1728,-1.1728,-1.1628,-1.1519,-1.1282,-1.0968,-1.0841,-1.0549,-1.0055,-0.9794,-0.9661,-0.9476,-0.929,-0.934,-0.951,-0.9295,-0.9347,-0.953,-0.9548,-0.9482,-0.9511,-0.9526,-0.9673,-0.9784,-0.9888,-1.0035,-1.0087,-1.0079,-1.0035,-1.0138,-1.0344,-1.0557,-1.0659,-1.0812,-1.071,-1.0557,-1.0462,-1.03,-1.019,-1.0118,-1.015,-1.0212,-1.0271,-1.0391,-0.3896,-0.3896,-0.3993,-0.4266,-0.4681,-0.4829,-0.5127,-0.5492,-0.5583,-0.5631,-0.5707,-0.5701,-0.575,-0.5798,-0.575,-0.5626,-0.5453,-0.5188,-0.484,-0.4578,-0.4535,-0.4364,-0.4108,-0.4108,-0.4104,-0.414,-0.4228,-0.4276,-0.4276,-0.4228,-0.4276,-0.4276,-0.4447,-0.4578,-0.4661,-0.4971,-0.5328,-0.5588,-0.5927,-0.6221,-0.6526,-0.6956,-0.7577,-0.8225,-0.8684,-0.8954,-0.9226,-0.9592,-0.9858,-0.9947,-1.0352,-1.0812,-1.1318,-1.1769,-1.1977,-1.1918,-1.1828,-1.1778,-1.1678,-1.1578,-1.1477,-1.1377,-1.1377,-1.1326,-1.1217,-1.12,-1.12,-1.1167,-1.1175,-1.1175,-1.1175,-1.1124,-1.1074,-1.0964,-1.0913,-1.0812,-1.0618,-1.0441,-1.0124,-0.9908,-0.9624,-0.9439,-0.9299,-0.9166,-0.9285,-0.932,-0.9083,-0.8969,-0.9188,-0.9263,-0.9211,-0.9225,-0.9271,-0.9382,-0.9494,-0.9472,-0.9621,-0.9621,-0.9562,-0.9562,-0.9569,-0.9725,-0.9984,-1.0198,-1.0249,-1.0146,-1.0043,-0.994,-0.9777,-0.9562,-0.9577,-0.968,-0.9662,-0.9664,-0.9825,-0.3377,-0.341,-0.3536,-0.3802,-0.4168,-0.4393,-0.4655,-0.489,-0.5043,-0.5154,-0.5231,-0.5231,-0.5231,-0.5231,-0.5231,-0.5053,-0.4797,-0.4578,-0.4412,-0.4192,-0.4148,-0.3976,-0.3755,-0.3667,-0.3619,-0.3527,-0.3704,-0.3924,-0.3924,-0.3968,-0.3968,-0.4012,-0.4104,-0.4232,-0.436,-0.4618,-0.4884,-0.5193,-0.5583,-0.5879,-0.6237,-0.6746,-0.7374,-0.8099,-0.8577,-0.8815,-0.8974,-0.9263,-0.9517,-0.951,-0.9769,-0.9976,-1.0285,-1.0854,-1.1167,-1.1267,-1.1217,-1.1116,-1.0964,-1.0871,-1.0769,-1.0718,-1.0667,-1.0667,-1.0608,-1.06,-1.06,-1.0616,-1.0573,-1.0616,-1.0616,-1.0514,-1.0403,-1.03,-1.019,-1.0028,-0.9909,-0.979,-0.9597,-0.946,-0.9324,-0.9268,-0.9114,-0.9031,-0.9055,-0.9083,-0.8994,-0.8875,-0.8933,-0.9001,-0.8956,-0.8969,-0.8976,-0.9095,-0.9267,-0.9232,-0.9263,-0.9263,-0.9204,-0.9204,-0.9204,-0.9256,-0.942,-0.9569,-0.9673,-0.9629,-0.9524,-0.942,-0.9309,-0.9204,-0.9204,-0.9256,-0.9221,-0.9198,-0.9308,-0.3072,-0.3109,-0.3237,-0.3445,-0.3703,-0.393,-0.4156,-0.4386,-0.4581,-0.467,-0.467,-0.4709,-0.4709,-0.4666,-0.4709,-0.4535,-0.4272,-0.406,-0.3888,-0.3755,-0.3711,-0.3619,-0.3398,-0.335,-0.3262,-0.3258,-0.3391,-0.3527,-0.3619,-0.3711,-0.3755,-0.3755,-0.384,-0.3921,-0.4052,-0.4316,-0.4535,-0.4845,-0.5193,-0.5539,-0.5886,-0.6497,-0.7267,-0.7954,-0.8279,-0.8527,-0.8639,-0.8844,-0.8995,-0.9047,-0.9211,-0.9309,-0.9465,-0.9725,-1.019,-1.0438,-1.0438,-1.0395,-1.0241,-1.019,-1.0087,-1.0035,-1.0043,-1.0043,-1.0035,-1.0028,-1.0043,-0.9918,-0.9851,-0.9836,-0.9784,-0.9732,-0.9681,-0.9577,-0.9472,-0.9361,-0.9256,-0.9099,-0.8996,-0.898,-0.8973,-0.8966,-0.8892,-0.8817,-0.8806,-0.8822,-0.883,-0.8791,-0.8685,-0.8685,-0.8639,-0.8639,-0.8646,-0.8712,-0.8831,-0.8811,-0.8844,-0.8844,-0.8837,-0.8837,-0.8784,-0.8837,-0.8837,-0.889,-0.8942,-0.9047,-0.9054,-0.9001,-0.8896,-0.8837,-0.8784,-0.8791,-0.8738,-0.8791,-0.885,-0.2776,-0.2801,-0.2904,-0.3086,-0.3235,-0.3426,-0.3656,-0.389,-0.405,-0.4144,-0.4144,-0.4144,-0.4144,-0.4144,-0.4052,-0.3921,-0.3748,-0.3534,-0.3401,-0.3353,-0.3309,-0.3217,-0.3081,-0.299,-0.2901,-0.2862,-0.2993,-0.3078,-0.335,-0.3486,-0.3578,-0.3578,-0.3615,-0.37,-0.3788,-0.4008,-0.4232,-0.4495,-0.4801,-0.5111,-0.5653,-0.6393,-0.7183,-0.7887,-0.7972,-0.8049,-0.8209,-0.8315,-0.8408,-0.8468,-0.858,-0.8633,-0.8738,-0.8798,-0.9047,-0.9444,-0.9607,-0.9666,-0.9562,-0.9517,-0.9472,-0.9472,-0.9413,-0.9465,-0.9458,-0.9406,-0.9309,-0.9221,-0.9141,-0.9106,-0.9099,-0.9054,-0.8949,-0.885,-0.8791,-0.8738,-0.8633,-0.8468,-0.8362,-0.8429,-0.858,-0.856,-0.841,-0.8456,-0.8403,-0.841,-0.8415,-0.8362,-0.8309,-0.8309,-0.8309,-0.8309,-0.8315,-0.8321,-0.8328,-0.8381,-0.8362,-0.8355,-0.8355,-0.8355,-0.8355,-0.8302,-0.8362,-0.8362,-0.8368,-0.8415,-0.8527,-0.8586,-0.8527,-0.8421,-0.8315,-0.8315,-0.8362,-0.8374,-0.8385,-0.2304,-0.2474,-0.2543,-0.2586,-0.2645,-0.2887,-0.3085,-0.3224,-0.341,-0.3575,-0.3663,-0.3667,-0.3667,-0.3619,-0.3439,-0.3306,-0.3217,-0.3087,-0.2957,-0.2912,-0.2909,-0.2821,-0.264,-0.2593,-0.2415,-0.2375,-0.2506,-0.286,-0.3084,-0.3309,-0.3442,-0.3442,-0.353,-0.3619,-0.3656,-0.3788,-0.3968,-0.4272,-0.4499,-0.4932,-0.5555,-0.6034,-0.6493,-0.6973,-0.7267,-0.7492,-0.761,-0.7723,-0.7824,-0.7925,-0.7978,-0.7978,-0.8031,-0.8031,-0.8037,-0.8296,-0.8672,-0.9061,-0.8956,-0.8896,-0.8896,-0.8896,-0.885,-0.8903,-0.8837,-0.8732,-0.8639,-0.8498,-0.8453,-0.8474,-0.8421,-0.8368,-0.8321,-0.8209,-0.815,-0.809,-0.7984,-0.7889,-0.7783,-0.7616,-0.7723,-0.7824,-0.78,-0.7919,-0.7972,-0.7978,-0.7978,-0.7931,-0.7931,-0.7877,-0.7877,-0.7877,-0.7883,-0.7889,-0.7895,-0.7895,-0.7883,-0.7877,-0.7877,-0.7931,-0.7877,-0.7877,-0.7931,-0.7931,-0.7883,-0.7836,-0.7889,-0.7996,-0.8049,-0.8049,-0.7883,-0.7937,-0.7984,-0.7949,-0.7967,-0.1759,-0.2178,-0.2247,-0.2247,-0.2245,-0.2469,-0.2573,-0.2629,-0.2885,-0.3043,-0.309,-0.3176,-0.3135,-0.3043,-0.2907,-0.2768,-0.2682,-0.2553,-0.2467,-0.2467,-0.242,-0.233,-0.2196,-0.2061,-0.1927,-0.1973,-0.2062,-0.2194,-0.2551,-0.2948,-0.3214,-0.3214,-0.3306,-0.3439,-0.3527,-0.3619,-0.3748,-0.3965,-0.4244,-0.4687,-0.5213,-0.5533,-0.5916,-0.6401,-0.6566,-0.6781,-0.6934,-0.7025,-0.7074,-0.7176,-0.7176,-0.7176,-0.7176,-0.7176,-0.7182,-0.7176,-0.7444,-0.7824,-0.8203,-0.8256,-0.8256,-0.8256,-0.8256,-0.8243,-0.8178,-0.7978,-0.7842,-0.7788,-0.7699,-0.7681,-0.7676,-0.7622,-0.7568,-0.7515,-0.7456,-0.7424,-0.7371,-0.73,-0.7192,-0.6977,-0.681,-0.6966,-0.7069,-0.723,-0.7337,-0.7396,-0.7396,-0.7402,-0.7402,-0.7402,-0.7402,-0.745,-0.7402,-0.7413,-0.7413,-0.7419,-0.7408,-0.7396,-0.7402,-0.7402,-0.7456,-0.7456,-0.7396,-0.7348,-0.73,-0.7252,-0.7306,-0.7354,-0.7515,-0.7509,-0.745,-0.745,-0.745,-0.7419,-0.7443,-0.1195,-0.1709,-0.1838,-0.188,-0.1895,-0.2,-0.2048,-0.2091,-0.2298,-0.2436,-0.2502,-0.2551,-0.2553,-0.2464,-0.2328,-0.2237,-0.2103,-0.1971,-0.1928,-0.193,-0.1884,-0.1839,-0.1794,-0.1658,-0.1612,-0.1615,-0.1614,-0.1703,-0.1927,-0.2281,-0.2635,-0.2857,-0.3081,-0.3214,-0.3306,-0.3394,-0.3527,-0.3656,-0.3965,-0.4296,-0.4683,-0.4894,-0.5266,-0.5625,-0.5901,-0.6029,-0.6212,-0.6362,-0.6372,-0.6421,-0.6421,-0.6475,-0.6421,-0.6431,-0.6426,-0.648,-0.6583,-0.6745,-0.7176,-0.7391,-0.7545,-0.7545,-0.7551,-0.7492,-0.7374,-0.7171,-0.6972,-0.696,-0.6825,-0.6815,-0.6761,-0.6756,-0.6756,-0.6756,-0.6756,-0.6737,-0.6663,-0.6609,-0.6519,-0.6442,-0.6248,-0.61,-0.6258,-0.6426,-0.6642,-0.6804,-0.6864,-0.6869,-0.6864,-0.6864,-0.6858,-0.6853,-0.6858,-0.6869,-0.6874,-0.6874,-0.6869,-0.681,-0.6864,-0.681,-0.675,-0.6696,-0.6642,-0.6652,-0.6603,-0.6549,-0.6436,-0.6707,-0.6923,-0.6864,-0.6858,-0.6858,-0.6869,-0.6895,-0.693,-0.067,-0.0903,-0.1217,-0.1444,-0.1514,-0.1389,-0.15,-0.1639,-0.1651,-0.1774,-0.1923,-0.1882,-0.1927,-0.1837,-0.1703,-0.1657,-0.1614,-0.1524,-0.1479,-0.1479,-0.1435,-0.1479,-0.1435,-0.139,-0.1256,-0.1168,-0.1122,-0.121,-0.1299,-0.1567,-0.2012,-0.246,-0.2726,-0.2901,-0.3078,-0.3173,-0.3262,-0.3394,-0.3615,-0.3792,-0.4044,-0.4252,-0.4513,-0.4757,-0.4994,-0.5245,-0.5414,-0.552,-0.5668,-0.5769,-0.5764,-0.576,-0.5714,-0.5727,-0.5723,-0.5664,-0.566,-0.5823,-0.5982,-0.6475,-0.6691,-0.6691,-0.6691,-0.6637,-0.6529,-0.6367,-0.6218,-0.6123,-0.6,-0.5941,-0.5937,-0.5882,-0.5937,-0.6005,-0.6037,-0.6012,-0.5923,-0.5858,-0.5828,-0.5766,-0.5676,-0.5485,-0.5415,-0.5639,-0.5996,-0.6154,-0.6263,-0.6263,-0.6263,-0.6263,-0.6263,-0.6258,-0.6263,-0.6268,-0.6277,-0.6277,-0.6268,-0.6213,-0.6159,-0.605,-0.5937,-0.5937,-0.5941,-0.5887,-0.5837,-0.5727,-0.5673,-0.5887,-0.6105,-0.6209,-0.6263,-0.6263,-0.627,-0.6276,-0.6278,-0.0256,-0.0381,-0.0452,-0.0807,-0.1247,-0.121,-0.1142,-0.1138,-0.1222,-0.138,-0.1523,-0.1569,-0.1389,-0.1165,-0.1074,-0.103,-0.103,-0.0985,-0.1076,-0.1167,-0.1212,-0.1212,-0.1122,-0.0943,-0.0718,-0.0674,-0.0673,-0.0763,-0.0898,-0.1076,-0.1253,-0.1654,-0.2146,-0.246,-0.2682,-0.2862,-0.2998,-0.3087,-0.3176,-0.3262,-0.3357,-0.3478,-0.3654,-0.3913,-0.4066,-0.425,-0.4449,-0.4649,-0.4761,-0.4838,-0.4944,-0.4944,-0.4838,-0.4849,-0.4794,-0.4791,-0.4732,-0.4732,-0.4897,-0.5496,-0.61,-0.6041,-0.5937,-0.5773,-0.5719,-0.5555,-0.5399,-0.5348,-0.5293,-0.5226,-0.5226,-0.5226,-0.5285,-0.5309,-0.5258,-0.5235,-0.5174,-0.5059,-0.5064,-0.5019,-0.5002,-0.4908,-0.4847,-0.4853,-0.5203,-0.55,-0.5609,-0.5664,-0.566,-0.566,-0.566,-0.566,-0.5664,-0.5664,-0.5673,-0.5668,-0.5664,-0.5559,-0.5454,-0.5395,-0.5281,-0.5281,-0.5281,-0.5175,-0.5069,-0.5014,-0.5014,-0.5124,-0.5285,-0.55,-0.5609,-0.566,-0.5627,-0.5632,-0.5705,0.0196,0.017,0.0224,-0.0168,-0.0778,-0.0771,-0.0683,-0.0553,-0.0666,-0.0795,-0.0879,-0.0844,-0.0716,-0.0447,-0.0358,-0.0358,-0.0403,-0.0403,-0.0538,-0.0629,-0.0719,-0.0855,-0.0764,-0.0674,-0.0539,0.0,0.0,-0.0405,-0.0494,-0.0718,-0.0896,-0.1076,-0.1346,-0.1748,-0.2194,-0.2509,-0.2645,-0.2645,-0.2687,-0.2729,-0.2768,-0.2865,-0.2932,-0.3237,-0.3329,-0.3447,-0.3614,-0.3788,-0.3892,-0.3959,-0.4015,-0.4015,-0.3962,-0.3855,-0.3802,-0.3747,-0.3744,-0.3744,-0.4018,-0.4567,-0.5226,-0.5171,-0.5058,-0.4952,-0.4842,-0.4732,-0.4629,-0.4577,-0.4519,-0.4515,-0.4515,-0.446,-0.4405,-0.4366,-0.4422,-0.4387,-0.4346,-0.4258,-0.4273,-0.4273,-0.4243,-0.4262,-0.4158,-0.416,-0.4501,-0.4857,-0.5007,-0.5062,-0.5066,-0.5062,-0.5062,-0.5062,-0.5062,-0.5062,-0.5066,-0.5066,-0.5066,-0.4904,-0.4798,-0.4739,-0.4625,-0.4625,-0.4515,-0.4408,-0.4356,-0.4301,-0.4301,-0.4356,-0.4574,-0.4846,-0.4927,-0.4975,-0.5076,-0.5078,-0.5228,0.0697,0.0768,0.0735,0.0402,-0.0067,-0.0034,0.0,0.0108,0.0074,0.0156,0.0254,0.0307,0.0313,0.0402,0.0403,0.0403,0.0313,0.0224,0.0135,0.0045,-0.0135,-0.027,-0.045,-0.045,0.0,0.0,0.0,0.0,-0.009,-0.0449,-0.0584,-0.0674,-0.0898,-0.1121,-0.1614,-0.1884,-0.202,-0.2109,-0.2237,-0.2279,-0.2279,-0.237,-0.2429,-0.252,-0.267,-0.2777,-0.2827,-0.3035,-0.3118,-0.313,-0.3183,-0.3183,-0.3128,-0.3135,-0.3081,-0.3074,-0.3074,-0.3074,-0.3186,-0.3744,-0.3962,-0.4128,-0.4125,-0.407,-0.4018,-0.3907,-0.3796,-0.3688,-0.3688,-0.3635,-0.3638,-0.3583,-0.3524,-0.3559,-0.359,-0.3569,-0.3512,-0.3554,-0.3614,-0.357,-0.3551,-0.3522,-0.3419,-0.3395,-0.3798,-0.4101,-0.4415,-0.4519,-0.4463,-0.4519,-0.4515,-0.446,-0.446,-0.4463,-0.4519,-0.4519,-0.4463,-0.4304,-0.4135,-0.4076,-0.391,-0.3799,-0.3747,-0.3638,-0.3638,-0.3635,-0.3583,-0.353,-0.3685,-0.3849,-0.4152,-0.4253,-0.4395,-0.4546,-0.4606,0.0805,0.0846,0.086,0.0845,0.0771,0.074,0.0749,0.0799,0.0866,0.1041,0.1247,0.1325,0.1225,0.1155,0.1163,0.1162,0.103,0.0895,0.0807,0.0538,0.0404,0.0135,-0.0045,-0.018,-0.0135,0.0,0.0,0.0,-0.0,-0.027,-0.045,-0.0539,-0.0539,-0.0763,-0.1166,-0.1435,-0.1614,-0.1614,-0.1657,-0.1701,-0.1701,-0.1746,-0.1791,-0.1796,-0.1982,-0.2057,-0.2073,-0.232,-0.2389,-0.2404,-0.2462,-0.246,-0.2406,-0.241,-0.2354,-0.2294,-0.2237,-0.2237,-0.2237,-0.2514,-0.285,-0.3128,-0.3297,-0.3239,-0.3128,-0.3019,-0.2907,-0.2796,-0.2796,-0.28,-0.2856,-0.2742,-0.2693,-0.2836,-0.2849,-0.2769,-0.2722,-0.2893,-0.2962,-0.2816,-0.2772,-0.282,-0.2739,-0.2676,-0.2924,-0.3211,-0.3419,-0.3761,-0.3858,-0.386,-0.3858,-0.3913,-0.3913,-0.3913,-0.3916,-0.3858,-0.3855,-0.3691,-0.3524,-0.3411,-0.3244,-0.3077,-0.3023,-0.3023,-0.297,-0.2972,-0.2884,-0.2807,-0.2702,-0.2799,-0.3106,-0.348,-0.3653,-0.3845,-0.4056,0.0972,0.1041,0.108,0.1181,0.1305,0.1179,0.1177,0.1255,0.1389,0.1553,0.1709,0.1788,0.168,0.1605,0.1667,0.1779,0.1611,0.1479,0.1299,0.0985,0.0762,0.0494,0.0314,0.018,0.0135,0.0135,0.0135,0.0135,0.018,-0.018,-0.0315,-0.0405,-0.0405,-0.0584,-0.0897,-0.1076,-0.1212,-0.1257,-0.1346,-0.1346,-0.1346,-0.1345,-0.1345,-0.1369,-0.1427,-0.144,-0.1532,-0.1646,-0.1773,-0.1783,-0.1792,-0.1847,-0.1737,-0.1738,-0.1682,-0.1625,-0.1624,-0.1625,-0.168,-0.168,-0.2015,-0.235,-0.2462,-0.246,-0.2404,-0.2406,-0.2352,-0.224,-0.2015,-0.2071,-0.2127,-0.2015,-0.2137,-0.2217,-0.2235,-0.2131,-0.2057,-0.2199,-0.227,-0.2128,-0.2119,-0.2127,-0.2139,-0.2037,-0.2119,-0.2255,-0.2443,-0.2803,-0.3205,-0.3251,-0.3249,-0.3304,-0.3302,-0.3302,-0.3246,-0.319,-0.3135,-0.3079,-0.2968,-0.2798,-0.2629,-0.2462,-0.2408,-0.241,-0.2411,-0.237,-0.2301,-0.217,-0.2113,-0.2089,-0.2224,-0.2546,-0.2876,-0.3118,-0.3372,0.1258,0.1291,0.138,0.1491,0.1561,0.1406,0.1377,0.1548,0.1663,0.1707,0.176,0.1852,0.1807,0.1789,0.1927,0.2052,0.2015,0.1851,0.1672,0.1416,0.1055,0.0797,0.0624,0.0537,0.0494,0.045,0.045,0.0494,0.0405,0.0315,0.0045,-0.0225,-0.0225,-0.0359,-0.0494,-0.0584,-0.0763,-0.0899,-0.0989,-0.0989,-0.0989,-0.1034,-0.0989,-0.1004,-0.1034,-0.1071,-0.1106,-0.1203,-0.1245,-0.127,-0.1231,-0.1233,-0.1234,-0.1234,-0.1234,-0.1234,-0.1234,-0.1178,-0.1178,-0.1121,-0.1177,-0.14,-0.1567,-0.1679,-0.1847,-0.1959,-0.1847,-0.1736,-0.1511,-0.1511,-0.151,-0.1623,-0.1737,-0.1787,-0.1729,-0.1589,-0.1431,-0.1476,-0.1528,-0.1544,-0.1543,-0.1584,-0.1684,-0.1591,-0.1379,-0.1475,-0.1681,-0.1925,-0.2291,-0.2637,-0.2635,-0.2689,-0.2689,-0.2689,-0.2633,-0.2633,-0.2579,-0.2577,-0.2352,-0.2184,-0.2017,-0.1903,-0.1905,-0.1906,-0.1797,-0.1771,-0.1845,-0.1771,-0.162,-0.1578,-0.1533,-0.186,-0.2259,-0.2352,-0.2589,0.141,0.1521,0.1652,0.179,0.1962,0.2011,0.2009,0.1952,0.1987,0.2031,0.2115,0.2144,0.2064,0.203,0.2195,0.2304,0.2242,0.2125,0.1875,0.1607,0.1354,0.1111,0.0952,0.0834,0.0847,0.0852,0.0897,0.0851,0.0855,0.0764,0.0494,0.0225,0.0135,0.009,0.009,0.009,-0.0225,-0.045,-0.0539,-0.0584,-0.0584,-0.0584,-0.0584,-0.0591,-0.0605,-0.0623,-0.0638,-0.0669,-0.0639,-0.0647,-0.0499,-0.0392,-0.0393,-0.0393,-0.0336,-0.0393,-0.0336,-0.0393,-0.0393,-0.0393,-0.0393,-0.0393,-0.0504,-0.0953,-0.1233,-0.1345,-0.1289,-0.112,-0.0896,-0.084,-0.0952,-0.1064,-0.1176,-0.1257,-0.1182,-0.0973,-0.0807,-0.0769,-0.0796,-0.0808,-0.0808,-0.0873,-0.099,-0.0989,-0.0779,-0.0827,-0.0992,-0.1201,-0.1514,-0.188,-0.2076,-0.213,-0.2128,-0.213,-0.2128,-0.2127,-0.2074,-0.202,-0.1738,-0.1569,-0.1457,-0.1401,-0.1457,-0.1416,-0.1267,-0.1377,-0.1505,-0.134,-0.1029,-0.0917,-0.0862,-0.1195,-0.1531,-0.1674,-0.1746,0.155,0.1693,0.1764,0.1979,0.227,0.2389,0.2421,0.2402,0.2278,0.2262,0.2358,0.2326,0.2319,0.2304,0.2395,0.2501,0.2562,0.2373,0.2172,0.199,0.165,0.1424,0.1244,0.1137,0.1112,0.1172,0.1187,0.1144,0.1159,0.0987,0.0718,0.0628,0.0674,0.0674,0.0674,0.0629,0.0494,0.0225,0.0045,-0.0045,-0.009,-0.009,-0.009,-0.009,-0.0093,-0.0094,-0.0096,-0.0101,-0.0102,-0.0052,0.0216,0.0439,0.0441,0.05,0.0504,0.0505,0.0505,0.0505,0.0505,0.0505,0.0505,0.0505,0.0505,0.028,-0.0168,-0.0392,-0.0449,-0.0392,-0.028,-0.0224,-0.0336,-0.0505,-0.0617,-0.0731,-0.0466,-0.0241,-0.0187,-0.0128,-0.0131,-0.0067,-0.0067,-0.0135,-0.0135,-0.0135,-0.0134,-0.0196,-0.0254,-0.0429,-0.083,-0.1323,-0.1527,-0.1682,-0.1626,-0.1625,-0.1624,-0.1511,-0.1344,-0.1177,-0.0953,-0.0841,-0.0841,-0.0789,-0.0678,-0.0696,-0.0716,-0.0744,-0.0707,-0.0588,-0.033,-0.0201,-0.0135,-0.0336,-0.0602,-0.094,-0.1009,0.1704,0.1837,0.1831,0.2093,0.2478,0.2513,0.2659,0.2845,0.26,0.2444,0.245,0.2447,0.2487,0.2514,0.26,0.2616,0.2624,0.2491,0.2371,0.2276,0.1939,0.1715,0.1561,0.1414,0.1387,0.1368,0.1343,0.1404,0.1367,0.125,0.1165,0.1074,0.1077,0.1078,0.1034,0.1034,0.0989,0.0898,0.0674,0.0494,0.045,0.045,0.045,0.045,0.0453,0.0457,0.047,0.0432,0.0485,0.0603,0.078,0.1066,0.1198,0.127,0.1285,0.1289,0.1233,0.1289,0.1289,0.1289,0.1345,0.1346,0.1347,0.1233,0.084,0.0449,0.0336,0.028,0.0393,0.0449,0.0336,0.028,0.0168,0.0113,0.0232,0.0415,0.0424,0.0502,0.0584,0.0594,0.0595,0.0597,0.0606,0.0606,0.0606,0.0531,0.0451,0.031,0.006,-0.0523,-0.0796,-0.101,-0.1009,-0.0953,-0.0953,-0.0784,-0.0504,-0.0336,-0.0112,0.0,0.0056,0.0113,0.0114,0.0178,0.0185,0.019,0.026,0.033,0.0467,0.0537,0.0606,0.0607,0.0337,-0.0,-0.0269,0.1919,0.1966,0.2061,0.2225,0.2431,0.265,0.2751,0.2835,0.2993,0.2933,0.2801,0.2775,0.2726,0.2673,0.272,0.2722,0.2593,0.2566,0.2448,0.2319,0.2112,0.1963,0.1865,0.1749,0.1683,0.1703,0.1685,0.1723,0.1709,0.1713,0.1657,0.1479,0.1481,0.1436,0.1346,0.1346,0.1346,0.1345,0.1256,0.1077,0.0989,0.0945,0.0945,0.0945,0.0947,0.0903,0.0877,0.094,0.0998,0.1168,0.1345,0.1557,0.1658,0.1672,0.1679,0.168,0.1792,0.1847,0.1903,0.1905,0.1961,0.1961,0.1905,0.1847,0.1624,0.1233,0.101,0.1009,0.1009,0.1009,0.1009,0.0953,0.0955,0.0968,0.0921,0.0989,0.1059,0.1102,0.1212,0.1227,0.1295,0.1312,0.1268,0.1278,0.1346,0.1252,0.1208,0.1108,0.1028,0.0646,0.0228,-0.0,-0.0224,-0.0224,-0.0168,-0.0056,0.028,0.0504,0.0672,0.0841,0.0955,0.0926,0.0953,0.1175,0.1216,0.1107,0.1054,0.1199,0.1276,0.1279,0.1279,0.1212,0.1279,0.1009,0.0673,0.2056,0.2045,0.2138,0.2294,0.2502,0.2668,0.2822,0.3065,0.3233,0.3291,0.3229,0.3068,0.294,0.2874,0.2874,0.2808,0.2676,0.2616,0.2572,0.246,0.2307,0.22,0.2106,0.204,0.2041,0.2036,0.2064,0.2089,0.2082,0.2094,0.2047,0.1958,0.1925,0.1794,0.1703,0.1705,0.1703,0.1705,0.1703,0.166,0.1482,0.1393,0.1257,0.1257,0.1213,0.1213,0.1264,0.1285,0.1383,0.1562,0.1748,0.2028,0.2144,0.2238,0.2184,0.224,0.2296,0.235,0.2406,0.2462,0.2517,0.2517,0.2462,0.2404,0.2296,0.1906,0.1681,0.1625,0.1456,0.1456,0.1456,0.1456,0.14,0.1411,0.1421,0.1433,0.1444,0.1474,0.1611,0.1678,0.1683,0.1758,0.1722,0.1817,0.1816,0.1805,0.1736,0.1682,0.1649,0.1603,0.1267,0.096,0.0734,0.0731,0.0897,0.0953,0.1121,0.1289,0.1407,0.1421,0.1498,0.1621,0.1743,0.1851,0.1823,0.1851,0.1806,0.1882,0.1883,0.1817,0.1817,0.1817,0.1883,0.1883,0.1615,0.2166,0.2144,0.217,0.2325,0.259,0.2655,0.2949,0.3365,0.3471,0.3606,0.3714,0.3401,0.3241,0.3138,0.3039,0.297,0.2904,0.2808,0.2779,0.2646,0.252,0.2414,0.2346,0.2281,0.2243,0.2288,0.2331,0.242,0.2472,0.2462,0.2452,0.2475,0.2368,0.2199,0.2199,0.2199,0.2199,0.2196,0.2196,0.2199,0.2018,0.1749,0.1614,0.1524,0.1479,0.1479,0.1524,0.1569,0.1661,0.19,0.214,0.2509,0.2741,0.28,0.28,0.2856,0.2854,0.2963,0.3016,0.3072,0.3072,0.3072,0.3016,0.2963,0.2856,0.2689,0.2464,0.2294,0.2069,0.1958,0.1958,0.1958,0.1958,0.1959,0.1914,0.1922,0.1934,0.1947,0.2047,0.2158,0.2183,0.2191,0.2309,0.2348,0.235,0.2339,0.2302,0.2239,0.2172,0.2161,0.1976,0.1835,0.1716,0.1762,0.1801,0.1804,0.1805,0.1935,0.2005,0.2031,0.2071,0.2216,0.235,0.2332,0.2311,0.2403,0.2414,0.2421,0.2356,0.2354,0.2421,0.2421,0.2421,0.2421,0.2421,0.2429,0.2429,0.2495,0.2545,0.263,0.2879,0.318,0.3485,0.3735,0.394,0.4076,0.3993,0.3765,0.3429,0.3401,0.3303,0.3105,0.3006,0.2911,0.2782,0.2679,0.258,0.248,0.245,0.2393,0.243,0.2514,0.2548,0.2668,0.2763,0.2819,0.2729,0.283,0.2765,0.2732,0.2734,0.269,0.2732,0.2734,0.2734,0.26,0.233,0.202,0.1975,0.1975,0.1975,0.1975,0.1975,0.2152,0.2386,0.2699,0.3064,0.3261,0.335,0.3357,0.3357,0.3411,0.3466,0.3516,0.363,0.363,0.363,0.363,0.3572,0.3466,0.3413,0.3188,0.3132,0.291,0.2631,0.2575,0.2519,0.2519,0.2519,0.2529,0.2529,0.2537,0.256,0.2628,0.2738,0.281,0.2887,0.2998,0.3025,0.3025,0.3002,0.2963,0.2887,0.2829,0.2796,0.2696,0.2613,0.2538,0.2283,0.2085,0.2333,0.24,0.2483,0.264,0.2759,0.2826,0.2841,0.2916,0.2962,0.2988,0.3015,0.3025,0.3025,0.3025,0.3023,0.3025,0.3025,0.3025,0.3025,0.3023]}]]